GFSMW_700_spd_000.txt.gz
Wind_Speed
12 15 18 22 26 29 29 29 33 30 31 32 30 29 28 26 23 24 25 26 27 27 26 27 29 32 33 33 34 34 34 33 34 37 38 40 41 41 40 38 37 37 36
8 11 15 17 18 20 28 30 28 30 29 32 29 30 29 26 25 27 28 28 28 28 30 31 31 32 34 35 36 37 37 36 37 37 39 40 41 42 40 40 39 38 38
7 9 11 11 13 13 15 24 27 26 28 28 31 30 30 29 27 27 27 26 28 31 34 32 30 30 33 33 34 36 37 38 38 38 41 42 41 41 40 40 39 38 38
10 10 11 10 9 8 10 15 23 25 28 29 32 32 31 33 29 30 28 28 30 34 34 32 31 31 31 32 34 34 36 39 39 42 40 42 42 42 41 39 37 37 37
10 11 13 13 11 10 7 7 14 20 25 28 31 31 32 31 32 31 30 31 33 34 35 33 32 30 30 30 32 34 35 37 38 41 42 41 42 42 43 40 38 38 34
4 6 9 11 12 12 11 10 11 14 18 21 24 25 27 27 29 28 30 33 34 34 34 33 33 33 32 31 31 33 35 37 39 39 42 44 43 43 43 43 38 40 37
6 7 9 11 12 12 12 11 12 15 18 21 24 26 28 28 28 29 32 32 32 32 32 34 36 36 35 34 34 35 36 37 39 40 42 43 44 44 45 45 43 43 39
8 8 9 11 11 11 10 10 12 15 17 19 22 25 27 29 30 31 32 31 29 30 32 35 37 38 38 37 37 37 38 38 39 40 42 43 44 45 46 46 45 46 43
16 16 16 16 16 15 14 14 15 17 19 21 23 24 26 28 29 29 30 30 30 31 34 38 40 42 43 42 41 41 40 40 39 38 39 43 45 46 45 46 45 45 46
23 26 23 21 19 20 23 22 21 21 23 24 25 25 25 26 27 28 28 30 31 33 34 35 37 41 44 45 45 44 42 42 40 39 40 41 43 46 46 45 45 45 45
33 33 33 33 31 28 26 27 28 28 28 28 29 29 29 28 28 30 32 34 34 35 35 36 36 37 39 43 47 47 45 45 46 42 39 39 41 44 46 46 46 46 45
39 38 37 36 35 36 36 36 35 35 35 34 34 36 37 36 36 36 37 39 41 42 42 43 44 42 44 43 44 44 46 50 49 46 42 39 40 43 45 47 47 47 45
34 31 31 33 35 37 36 36 37 37 38 39 39 38 37 39 42 45 47 47 46 46 49 50 50 49 48 49 47 48 49 51 50 48 48 42 39 41 43 46 45 45 46
32 33 35 39 39 35 33 33 33 33 34 34 35 36 38 39 40 41 43 46 46 46 47 49 52 54 55 55 52 53 53 51 50 50 50 46 44 39 41 45 42 44 45
30 35 39 35 32 33 34 35 34 33 37 37 37 39 40 39 41 42 43 43 43 46 47 47 47 48 47 43 39 38 40 49 51 52 51 47 48 44 45 45 41 44 44
38 38 34 34 36 37 41 43 46 46 46 43 42 43 45 44 43 45 45 46 47 48 48 47 47 47 46 43 40 41 43 44 39 47 53 49 47 47 49 45 41 44 43
31 30 33 37 42 45 47 48 48 49 48 44 41 40 40 43 46 47 49 49 47 48 49 50 49 50 47 44 47 47 41 46 51 43 51 54 51 47 46 45 40 44 41
34 38 42 45 47 48 49 49 48 47 45 43 41 42 42 42 42 43 44 46 48 47 48 47 46 49 47 45 46 47 47 39 47 43 46 49 50 50 43 47 40 41 40
42 45 48 50 51 53 48 46 45 45 42 41 43 43 43 43 43 43 44 44 44 45 45 47 47 45 44 42 38 40 41 39 42 35 43 47 46 49 40 45 42 38 42
46 49 54 54 52 49 49 49 48 47 46 45 46 47 49 47 46 46 47 48 49 49 48 46 45 47 46 40 38 31 33 43 46 46 38 46 39 40 40 42 42 40 40
50 55 51 51 48 47 47 49 50 51 52 52 51 49 47 47 47 48 48 48 47 47 46 48 46 46 46 45 45 41 31 35 39 46 40 39 41 44 41 39 41 40 39
49 45 44 44 45 47 49 51 53 53 54 52 51 48 46 45 44 44 44 44 45 44 43 44 43 43 43 44 43 45 43 32 37 40 44 42 39 40 42 40 38 41 36
42 43 43 44 45 47 47 49 50 50 50 49 49 47 46 44 44 43 43 43 44 44 44 44 44 41 39 39 40 39 45 44 34 36 38 37 31 37 45 40 38 37 35
42 42 42 41 42 43 43 44 47 48 50 50 49 46 44 42 41 42 43 44 42 42 43 43 43 42 38 36 36 35 38 43 40 28 29 33 34 34 42 40 39 35 32
37 38 40 43 45 45 46 47 48 49 50 51 50 48 47 45 42 39 39 40 40 38 39 38 40 43 39 33 36 34 33 36 38 29 25 32 37 40 36 40 40 37 34
37 38 41 46 48 49 50 50 50 52 53 53 51 50 48 47 46 46 44 39 37 35 32 31 34 37 37 36 36 37 33 32 35 38 19 23 31 32 29 32 36 40 36

GFSMW_700_spd_003.txt.gz
Wind_Speed
17 18 20 21 22 25 29 30 33 34 36 36 35 35 34 33 34 33 29 25 28 31 33 32 31 31 31 32 33 34 33 34 36 39 39 40 39 40 43 45 46 46 45
9 10 12 14 16 18 21 24 30 31 33 35 36 36 37 37 35 34 30 27 31 33 34 34 34 35 35 32 32 34 35 34 34 39 40 42 41 40 41 43 44 44 46
7 10 12 14 15 17 18 20 23 28 33 31 32 34 35 35 34 31 32 31 33 33 35 36 38 39 37 34 33 33 34 34 34 36 39 44 44 43 42 42 41 41 42
11 12 14 15 15 16 16 15 16 19 25 30 29 32 34 34 33 34 36 38 37 36 37 38 40 41 40 36 34 34 33 33 33 37 38 38 40 46 48 45 42 40 42
10 12 13 14 14 14 13 12 12 13 17 23 27 31 33 34 36 37 38 38 39 38 37 39 42 43 41 37 34 34 33 33 35 34 39 39 39 41 45 47 44 43 42
10 12 14 14 15 15 14 11 11 13 17 23 28 31 34 35 36 36 38 37 37 37 38 40 42 41 39 37 36 36 36 36 37 38 37 39 40 40 42 45 44 44 41
9 11 13 14 15 15 14 13 13 13 15 19 24 27 30 32 34 34 35 34 36 38 40 41 41 40 38 39 39 41 41 40 41 40 40 40 39 39 42 44 43 45 42
16 19 17 17 17 17 17 16 16 16 16 18 20 23 26 27 29 30 32 35 36 37 38 38 36 37 39 41 44 46 46 46 46 44 43 42 40 39 42 45 45 46 45
18 20 22 24 23 23 22 22 22 22 21 21 22 23 24 25 27 30 32 34 34 34 34 36 38 40 43 44 46 49 48 48 48 48 46 46 42 42 42 43 44 46 48
22 28 35 36 34 32 30 28 28 29 31 31 30 29 29 29 29 29 31 33 34 36 37 39 40 41 43 42 43 46 44 44 46 48 49 47 45 47 45 44 45 46 48
28 37 39 39 36 33 31 31 32 33 32 33 35 36 35 35 35 35 36 36 37 40 40 42 45 46 47 47 48 48 49 49 49 50 49 49 48 49 46 47 44 44 46
36 43 41 36 33 32 34 35 35 32 30 30 31 32 34 35 38 39 39 40 40 41 43 46 48 49 49 50 52 53 53 53 52 51 52 54 52 52 49 48 48 47 45
42 41 35 33 32 34 34 31 31 33 35 34 34 35 37 37 37 38 39 41 43 42 42 41 41 42 43 46 47 49 52 56 59 62 59 59 54 55 53 44 49 47 43
32 32 31 30 34 34 34 34 35 38 40 41 42 42 41 39 40 41 42 42 41 43 45 46 47 47 47 48 46 46 47 48 52 54 55 52 54 53 52 47 48 47 47
32 32 30 35 34 34 40 38 40 42 44 45 44 42 40 39 39 40 42 44 44 44 44 45 46 46 48 48 44 43 47 49 49 48 48 42 45 46 47 52 51 50 47
33 31 35 34 34 36 39 43 46 48 50 49 47 45 44 41 39 37 36 37 39 42 45 47 46 46 44 45 45 44 48 50 51 49 46 47 53 54 47 46 50 56 54
32 32 34 34 36 39 42 46 49 49 49 48 49 49 48 49 48 47 47 47 45 44 43 42 42 42 43 42 42 42 47 50 51 53 50 50 55 51 51 47 50 54 51
32 34 36 38 41 46 51 53 53 51 49 48 48 48 49 50 51 52 53 53 52 51 50 49 48 47 44 42 39 42 43 47 46 50 50 45 50 49 47 46 46 43 49
36 38 42 46 50 54 57 57 54 52 51 52 52 52 53 53 53 54 53 51 50 49 49 49 50 50 48 46 44 43 45 44 51 51 46 42 48 47 43 42 42 47 47
45 46 48 50 52 55 54 50 50 51 52 53 54 55 55 55 54 53 53 51 50 49 49 50 50 50 50 48 46 44 45 48 51 54 49 38 45 49 50 49 51 44 41
49 51 51 50 50 49 48 49 50 51 52 53 55 54 54 53 52 51 50 50 49 48 48 47 47 47 48 48 45 44 45 46 48 51 50 47 31 37 44 47 50 38 39
52 46 43 43 44 47 47 47 48 50 51 53 55 56 55 53 52 51 50 47 46 47 48 49 48 47 47 44 42 41 43 43 45 48 49 45 45 31 35 43 46 41 38
39 39 39 41 44 42 43 45 47 49 52 54 55 56 56 54 52 51 50 50 47 46 44 46 47 48 47 44 41 38 40 40 40 42 43 42 44 43 29 35 37 36 31
37 38 39 40 38 37 40 44 48 50 53 55 57 57 58 57 55 53 52 50 49 48 47 46 44 44 44 44 40 39 39 40 37 36 42 41 41 39 31 31 31 33 35
35 36 35 34 36 41 45 47 50 53 56 56 56 55 54 52 52 51 50 50 49 48 48 46 45 46 43 41 38 36 39 41 39 38 33 34 32 33 33 33 31 28 29
31 31 33 36 40 44 47 48 51 53 54 53 50 48 47 46 45 45 45 43 44 46 46 43 41 41 43 41 38 34 35 39 38 35 33 34 30 31 33 28 29 27 30

GFSMW_700_spd_006.txt.gz
Wind_Speed
20 18 15 16 17 19 20 21 24 27 31 33 33 33 35 35 36 36 35 35 36 36 31 30 32 34 35 33 33 34 33 31 32 35 35 35 36 36 35 36 38 39 39
7 8 9 10 11 12 15 18 21 24 29 31 30 30 30 34 36 36 36 35 35 36 35 35 35 36 36 37 36 37 36 34 31 34 36 36 35 34 34 36 37 38 38
5 8 9 11 13 14 15 16 18 20 23 28 29 29 30 31 32 34 33 32 33 33 36 38 38 38 40 39 38 38 39 38 33 32 33 37 39 37 35 34 35 35 36
9 11 13 13 13 13 13 13 14 15 17 22 25 26 30 31 30 33 35 35 37 39 39 41 40 40 40 42 41 41 40 38 35 35 35 37 37 39 42 36 35 35 35
9 10 10 11 12 13 15 15 16 15 15 16 19 24 29 31 33 36 37 37 39 42 42 39 39 41 42 42 43 42 41 37 38 36 38 39 38 38 41 43 37 40 35
8 9 11 14 16 17 18 19 18 17 16 16 19 24 29 32 33 33 35 35 37 38 39 38 37 38 41 42 40 40 40 38 39 40 41 43 43 42 42 43 40 42 39
8 10 12 13 15 18 20 20 20 19 18 18 19 20 22 24 26 28 30 31 33 34 36 40 40 39 39 38 38 38 38 39 42 43 44 44 45 44 45 45 44 45 41
14 17 18 19 20 25 26 26 25 24 23 22 22 23 24 25 26 27 28 29 30 32 34 36 38 38 36 35 36 38 40 41 44 45 44 45 44 43 44 47 48 50 47
18 20 21 24 27 34 35 33 29 28 28 29 29 30 30 30 30 30 31 30 30 31 31 33 35 37 39 41 42 43 44 43 44 45 44 45 44 46 45 45 46 51 51
20 22 26 33 39 42 42 38 33 30 30 30 30 32 34 34 34 34 34 35 35 36 36 36 36 36 37 39 40 43 44 45 46 47 48 49 49 47 46 46 49 50 51
26 30 35 36 41 44 39 33 31 30 28 28 29 31 31 33 33 35 36 36 37 39 41 41 41 41 41 41 42 42 42 43 44 45 47 49 48 47 47 45 47 54 50
34 37 39 40 39 36 34 30 32 32 34 33 33 34 35 36 37 37 38 39 40 40 41 42 43 45 45 44 42 41 39 41 42 43 45 47 49 51 54 55 54 55 57
39 41 42 37 32 33 34 32 31 34 34 35 38 40 40 40 39 38 37 37 39 41 42 42 43 43 44 45 46 47 48 48 48 47 46 47 47 49 50 52 50 49 53
44 42 39 36 32 30 35 33 34 35 37 39 41 43 43 42 40 40 39 38 37 38 39 40 40 41 43 44 46 47 49 50 52 51 50 48 46 47 45 46 47 45 47
37 37 35 33 30 35 34 35 37 38 41 45 45 46 45 43 42 41 40 40 39 38 39 40 41 42 43 42 40 40 43 49 51 51 51 51 50 49 47 47 49 52 55
39 37 35 35 36 36 39 40 40 43 45 47 47 48 47 48 49 48 48 48 47 45 43 42 41 40 39 39 39 41 44 45 45 46 48 50 51 50 50 48 48 50 52
39 37 36 35 36 39 42 44 45 47 49 49 46 46 46 48 49 51 51 51 51 51 50 48 45 42 39 38 39 42 43 42 40 43 43 47 49 49 51 49 51 53 57
40 43 38 37 40 45 46 47 48 46 45 45 46 46 48 49 50 51 51 51 51 50 50 49 47 46 44 43 43 43 44 44 43 42 42 44 45 46 50 53 51 55 55
37 39 39 42 45 49 51 46 43 43 44 46 47 48 49 50 51 52 52 52 53 52 51 51 50 48 47 46 46 47 48 47 45 44 44 44 46 45 46 47 56 56 53
37 39 43 48 51 50 45 42 43 46 47 47 47 48 49 51 52 53 55 54 54 54 52 50 49 47 49 48 47 47 48 47 46 43 44 45 44 44 45 45 43 54 50
46 50 52 51 47 43 43 43 43 44 44 45 47 49 50 51 53 54 56 57 57 57 55 53 49 48 48 48 46 44 46 44 44 44 44 45 47 45 43 40 40 43 38
47 48 47 43 41 41 41 40 39 40 43 47 48 49 51 53 56 58 58 58 56 55 53 51 50 47 45 46 45 42 42 40 40 41 42 46 45 42 42 39 36 36 36
42 39 39 40 39 38 36 36 38 43 47 48 49 51 53 55 56 57 56 55 52 50 49 48 49 48 46 44 42 43 41 39 37 39 41 41 39 38 40 37 36 34 35
38 38 37 36 34 32 34 38 42 46 48 49 50 52 55 56 54 51 49 47 46 46 45 45 46 46 45 41 39 40 40 39 34 36 37 38 36 35 32 35 28 29 33
36 34 33 32 31 33 37 40 44 47 49 49 50 53 54 54 52 48 46 45 42 42 44 43 43 43 42 35 34 37 37 37 35 37 38 37 36 34 31 27 26 31 26
31 31 29 29 32 36 40 43 46 47 48 50 52 53 53 50 47 45 44 39 40 39 38 38 38 38 35 33 31 31 33 30 32 36 36 35 36 35 35 29 27 26 21

GFSMW_700_spd_009.txt.gz
Wind_Speed
21 19 18 17 17 17 17 19 21 24 26 25 25 22 22 23 25 26 27 28 28 30 33 34 33 32 33 33 35 36 35 33 33 37 36 35 31 29 28 28 28 29 29
6 7 7 8 9 12 15 17 19 20 23 26 28 27 23 25 25 25 27 27 29 32 33 32 33 33 36 36 36 37 39 38 36 38 41 41 34 30 29 31 30 28 29
4 4 6 9 12 13 13 14 16 18 19 20 23 27 27 26 25 25 26 26 28 30 31 34 35 37 38 39 37 37 38 40 37 38 41 44 41 36 32 33 33 32 30
5 7 8 9 10 11 11 13 15 16 17 17 18 20 21 21 22 27 29 30 33 35 35 35 37 39 41 40 39 39 39 40 41 40 39 40 39 42 43 34 35 36 33
6 8 9 9 10 11 13 16 18 19 19 19 19 19 20 21 24 28 31 33 32 33 34 36 37 38 39 38 38 39 40 41 42 41 39 39 39 40 44 48 37 40 35
8 9 10 11 12 15 18 22 25 25 24 23 23 22 23 24 26 28 29 30 30 30 32 34 35 36 37 37 38 38 38 39 40 41 40 41 42 42 45 48 48 44 36
11 11 12 12 13 14 17 23 26 27 27 26 26 25 26 27 28 30 31 32 33 33 34 36 36 36 36 36 37 37 37 38 39 41 42 43 46 45 46 49 49 47 41
14 14 15 17 19 22 27 33 33 33 28 26 27 28 29 30 31 32 33 35 36 36 37 38 38 38 39 40 40 41 41 42 41 44 45 46 48 47 49 51 52 55 51
15 17 20 23 26 31 34 35 37 34 28 25 24 25 27 28 30 33 35 37 38 39 39 40 40 39 39 39 39 42 44 45 42 43 44 45 45 45 46 49 50 53 58
16 20 24 29 33 37 39 39 33 28 26 25 26 27 29 30 31 33 34 36 37 38 40 41 42 43 44 44 44 45 44 44 45 45 46 47 46 46 48 51 53 52 52
25 28 32 36 36 40 40 33 30 28 28 29 31 33 33 34 36 37 39 39 39 39 40 42 43 44 45 45 46 46 48 49 49 47 47 47 46 46 47 48 50 53 53
27 32 35 37 40 42 40 36 33 33 33 34 35 36 37 38 40 40 40 40 41 41 41 42 43 44 44 44 44 44 45 48 50 52 53 52 50 50 49 50 54 58 55
33 35 38 40 39 39 39 36 31 34 35 36 36 38 42 43 44 44 44 43 42 41 40 40 41 43 44 44 44 44 45 45 47 49 50 51 50 51 50 50 51 49 51
31 33 35 35 37 39 36 33 35 36 39 41 42 45 47 46 44 43 42 42 42 43 43 42 41 41 41 43 46 47 47 48 49 49 48 46 46 48 50 50 52 52 52
31 32 34 36 37 36 35 35 37 41 43 46 47 50 49 47 46 45 44 44 43 43 42 42 41 40 39 39 40 41 43 45 46 47 46 45 44 45 45 48 49 49 53
32 40 42 40 39 41 40 41 41 44 49 52 52 47 45 44 43 43 43 43 43 43 43 43 43 43 41 39 38 42 44 45 45 46 47 46 46 45 46 47 46 47 50
38 42 39 39 41 45 47 46 44 50 53 51 46 44 43 43 42 42 43 44 45 46 47 47 47 47 47 44 43 45 43 43 44 45 45 44 44 43 45 47 48 49 50
43 40 40 40 44 48 49 49 51 54 50 45 43 42 41 42 43 45 46 48 49 49 50 50 50 49 48 45 46 47 45 47 46 44 43 44 43 42 44 45 46 46 49
43 38 38 40 45 48 49 52 52 45 43 42 40 40 42 44 46 47 48 50 51 51 52 53 53 51 49 47 48 45 47 49 49 46 42 42 44 42 42 45 47 46 47
33 36 40 42 43 47 48 43 41 42 41 39 39 41 43 46 47 49 50 52 53 54 55 55 52 51 49 47 45 45 47 48 49 48 43 42 41 41 40 43 46 48 43
35 41 42 45 43 41 40 39 39 38 37 37 40 43 45 47 48 49 50 52 55 55 54 54 53 50 47 45 43 41 42 44 47 48 45 42 39 39 40 39 41 44 44
40 42 44 42 37 37 36 35 34 34 36 40 42 45 47 48 49 51 52 53 54 54 54 52 51 48 45 43 41 40 38 38 41 43 41 38 37 38 39 37 37 41 43
46 44 39 37 37 33 32 32 32 35 38 42 45 48 49 49 50 51 53 53 52 51 50 48 48 47 44 41 39 38 38 36 36 36 35 32 34 36 35 34 34 36 36
44 40 36 35 30 29 30 32 35 39 43 46 48 50 51 51 51 52 53 52 50 48 46 45 46 45 43 39 37 37 37 34 33 32 29 28 29 31 33 33 32 31 31
34 34 33 31 27 28 32 35 39 43 47 49 49 49 49 50 50 50 50 49 46 43 43 43 43 43 41 37 36 37 38 37 35 33 29 28 28 31 32 32 32 27 30
29 30 28 26 28 32 35 39 44 47 47 48 48 49 50 51 52 53 52 45 41 39 38 38 39 39 37 35 34 35 34 34 32 30 29 28 27 30 33 33 33 27 27

GFSMW_700_spd_012.txt.gz
Wind_Speed
28 26 24 25 22 16 14 15 17 18 20 23 25 26 25 23 22 23 22 22 22 24 27 29 30 30 30 29 31 33 36 36 37 41 39 39 37 35 33 33 30 29 28
19 15 10 9 10 12 14 17 19 20 20 21 22 25 25 24 23 22 24 25 26 26 28 30 31 31 33 33 35 37 39 41 39 43 45 48 42 36 32 34 34 32 32
9 7 7 9 11 13 13 14 14 16 16 17 18 19 21 22 22 22 22 25 29 31 33 35 36 37 37 38 39 41 42 44 41 41 44 50 52 46 37 36 37 36 35
9 8 8 9 10 10 9 8 11 15 17 19 20 19 20 21 22 22 23 25 30 33 36 36 36 36 38 39 40 42 43 43 44 42 44 46 49 51 53 42 38 39 37
9 9 9 10 10 9 10 13 15 18 20 21 21 22 23 24 25 25 26 28 30 33 35 37 38 39 39 40 39 40 42 43 45 44 44 47 48 49 51 55 43 43 41
11 10 10 10 12 14 15 16 20 24 25 25 24 24 24 25 26 27 28 30 31 33 35 36 38 39 40 42 44 45 45 43 42 43 42 47 48 50 51 54 53 54 46
11 11 12 12 15 17 19 23 27 31 30 28 25 24 25 26 28 30 32 34 36 37 39 41 41 42 43 44 44 44 44 44 42 42 44 45 46 46 50 53 56 56 58
13 12 13 16 18 22 25 29 31 31 28 25 24 24 25 26 28 30 33 35 37 38 40 42 43 44 45 46 46 47 48 48 48 46 45 47 48 48 51 50 54 57 59
12 11 14 18 23 27 30 31 32 28 27 25 24 25 26 28 30 32 34 35 37 39 40 42 43 44 46 47 48 49 49 49 50 51 51 52 52 52 53 51 50 52 54
9 15 19 24 30 33 35 35 31 30 29 29 29 30 31 33 35 37 38 40 41 43 43 43 43 44 45 46 48 49 49 51 51 51 52 53 54 55 55 54 55 54 57
13 17 23 30 34 36 34 32 31 31 32 32 33 35 36 37 39 41 44 46 47 46 46 46 46 46 46 46 47 49 50 51 50 49 50 51 51 53 54 56 57 58 57
16 24 29 31 32 33 34 33 34 34 35 34 36 38 40 42 43 46 48 48 48 47 47 46 46 46 45 45 46 47 49 50 50 51 52 52 51 49 48 50 54 56 57
27 26 26 26 30 32 34 35 35 36 36 36 38 42 45 48 49 49 48 47 46 45 45 45 45 45 45 44 44 45 45 46 48 49 51 52 51 51 50 50 50 50 51
21 21 25 26 32 35 33 34 36 37 40 43 45 48 50 54 51 47 46 45 44 44 43 43 43 42 42 43 44 45 46 47 47 48 50 51 52 52 53 52 51 50 51
23 26 26 30 35 36 35 36 39 42 45 47 48 51 56 55 49 48 45 44 43 42 42 43 42 43 43 44 44 45 46 46 47 48 50 52 53 53 53 52 53 53 54
25 26 28 33 37 38 39 40 44 46 48 51 54 55 56 48 45 42 42 43 43 44 44 45 45 45 44 44 43 45 49 49 50 51 51 51 51 53 54 52 52 51 52
24 27 36 37 37 34 35 39 43 48 51 52 52 47 45 43 42 43 44 46 47 48 49 49 50 50 49 48 48 49 50 51 52 53 52 52 50 50 51 51 52 51 50
33 35 35 34 34 41 46 47 48 51 49 44 42 42 41 40 42 44 46 48 50 51 52 52 52 52 52 51 49 48 49 50 50 51 50 52 52 47 46 48 50 50 49
37 34 36 41 48 42 45 48 50 45 41 41 39 39 39 40 43 46 48 50 52 54 54 54 54 54 54 52 49 48 50 50 49 48 48 49 49 45 42 45 47 49 46
31 33 39 43 41 47 48 48 42 41 41 39 37 38 40 43 46 50 52 54 54 55 55 55 54 54 53 50 47 46 47 48 48 47 47 46 43 42 40 40 42 45 43
35 38 40 41 50 48 43 39 40 39 38 36 37 40 43 47 50 53 54 55 55 55 55 55 54 53 51 48 45 43 43 44 47 48 47 45 40 37 36 36 37 39 41
42 44 41 42 42 38 36 37 38 38 37 38 39 43 47 50 52 54 54 53 54 54 55 55 54 52 49 45 43 41 40 42 45 46 45 44 37 33 33 33 33 34 37
38 39 41 38 36 33 35 36 35 36 36 39 43 47 51 52 52 53 53 53 53 55 55 54 53 51 46 43 39 38 39 40 41 41 42 41 34 32 31 29 29 32 35
35 37 36 32 30 31 32 33 35 37 40 44 47 50 52 52 51 51 52 53 53 54 53 51 49 47 45 42 39 39 40 40 40 40 38 37 32 31 29 29 29 31 33
31 29 27 27 28 29 29 32 37 41 44 47 49 51 52 51 51 50 51 51 51 51 50 46 45 45 44 42 39 39 41 41 41 41 38 36 32 31 28 27 30 30 34
28 26 27 28 28 30 32 36 40 43 46 48 50 50 50 50 50 51 51 50 49 47 42 39 40 41 40 41 39 38 38 39 38 38 37 35 33 31 30 30 31 31 35

GFSMW_700_spd_015.txt.gz
Wind_Speed
22 23 22 22 22 16 11 11 13 14 15 15 15 17 19 20 21 22 22 24 27 28 29 30 29 29 31 32 34 35 38 40 41 46 47 47 45 42 42 41 40 40 38
16 16 16 10 9 10 12 13 14 13 12 12 13 15 16 18 20 22 23 25 27 28 30 32 32 34 36 37 38 40 42 44 44 48 51 55 52 47 43 43 43 43 43
14 9 7 8 10 11 11 11 11 10 11 13 14 16 17 19 20 22 23 25 26 28 31 34 36 38 41 40 40 42 43 46 46 47 49 53 56 55 50 47 45 45 46
9 9 10 10 9 9 9 9 11 12 14 17 20 20 20 21 22 23 25 26 28 30 32 35 37 38 40 40 41 42 45 46 49 48 47 49 50 52 57 56 51 48 48
12 11 9 8 7 8 12 14 16 20 23 25 27 25 22 22 23 25 27 29 32 34 36 38 40 42 43 44 45 45 45 47 50 50 49 50 51 52 53 60 56 50 49
13 11 8 7 9 11 15 18 21 24 27 27 25 23 22 23 25 27 29 31 33 35 38 40 42 44 46 47 48 49 49 49 50 49 47 45 47 48 48 52 52 55 57
12 9 8 8 11 14 17 21 25 28 28 26 24 23 23 23 25 27 29 31 33 35 37 39 41 43 45 47 49 49 50 51 52 53 53 52 51 50 53 56 62 60 56
11 9 8 11 13 16 21 27 30 29 26 25 25 25 25 26 28 31 33 35 37 39 41 43 44 45 46 47 48 49 50 51 51 52 52 54 54 55 56 58 58 62 63
10 10 10 13 17 22 27 28 27 25 25 26 26 26 27 30 32 35 38 41 44 46 46 47 47 46 47 48 49 50 51 52 53 54 53 52 51 53 55 57 58 54 61
9 10 14 18 23 27 25 25 26 26 27 28 29 30 32 34 37 40 43 45 47 48 48 48 47 48 48 49 50 50 51 52 53 53 53 53 53 53 52 52 54 56 59
9 13 19 23 26 24 24 25 27 29 30 31 32 33 35 38 43 46 48 50 50 48 48 48 49 49 50 50 50 50 51 51 51 51 52 52 52 53 52 52 53 54 56
13 18 22 27 22 22 24 27 30 32 33 34 36 38 40 43 45 48 51 54 51 48 48 47 47 47 48 48 48 48 48 49 49 49 49 50 51 52 52 53 54 53 53
20 23 27 22 21 23 27 30 31 32 34 36 39 41 44 48 52 52 54 52 50 48 46 46 46 47 47 47 48 48 48 48 49 49 50 50 50 50 53 54 56 58 59
26 24 19 21 20 25 29 32 33 34 36 40 43 47 51 55 57 54 52 49 47 46 46 46 47 47 47 48 48 48 49 49 49 49 49 50 51 52 54 56 58 61 63
16 17 17 17 23 29 33 34 34 35 41 45 47 52 55 58 50 48 48 46 45 46 46 47 47 49 50 50 50 49 50 51 50 50 50 51 52 52 53 57 58 60 62
17 17 18 23 27 32 33 32 36 43 43 46 51 53 59 48 48 47 45 45 46 47 48 50 52 54 54 52 51 51 52 53 53 54 53 52 52 53 53 54 56 58 59
17 19 22 26 29 33 35 40 43 44 47 50 55 56 47 47 45 44 44 46 48 50 53 55 57 57 56 54 55 55 56 56 55 54 54 53 51 51 50 48 49 52 54
26 27 28 32 34 37 41 44 44 46 49 55 49 46 46 44 44 45 46 48 52 56 58 59 59 58 57 56 56 57 57 56 55 53 51 50 49 47 47 49 52 51 48
34 34 36 35 37 40 42 45 48 54 50 45 45 44 44 43 44 46 49 53 57 60 61 60 59 58 57 57 57 57 57 55 53 50 48 47 47 47 46 49 50 45 42
31 30 32 34 38 42 46 50 47 43 41 40 42 42 42 43 46 50 54 57 60 61 59 58 57 56 56 55 56 55 54 52 50 49 48 46 45 45 44 44 43 43 41
32 32 34 39 39 42 42 46 41 37 37 39 39 40 42 45 49 54 57 59 59 58 56 56 54 54 55 55 53 50 47 46 47 49 49 47 45 43 41 38 37 38 38
31 33 37 39 41 43 41 40 35 34 37 38 38 41 45 49 53 56 56 55 54 55 54 55 56 57 55 51 48 45 43 43 45 46 46 45 44 41 39 36 33 33 34
30 32 36 38 37 36 33 31 33 35 35 37 40 45 49 52 53 55 53 53 53 54 57 58 58 57 53 49 45 43 43 43 43 44 44 43 42 40 38 33 32 32 33
30 32 33 32 30 29 31 32 34 36 38 41 45 48 50 53 53 51 51 53 54 56 57 56 55 54 49 46 45 45 46 45 44 45 44 42 40 38 37 32 30 30 31
31 30 30 29 28 28 30 34 36 39 41 44 47 49 52 52 52 51 52 54 54 53 54 52 50 49 47 46 45 45 46 44 44 47 44 42 41 39 36 32 31 30 32
28 27 28 27 28 30 32 36 38 41 44 47 49 52 53 52 53 55 55 50 51 49 46 44 42 42 42 44 45 45 43 43 43 43 42 41 40 38 36 35 34 32 33

GFSMW_700_spd_018.txt.gz
Wind_Speed
20 20 19 18 16 15 11 9 11 12 13 12 11 10 11 13 16 18 20 21 24 26 28 29 30 32 34 35 37 40 41 42 44 48 48 50 49 50 49 47 47 46 45
23 19 14 12 7 6 7 9 10 10 9 8 9 11 13 14 16 18 20 23 25 27 29 31 32 34 36 37 39 42 44 44 44 48 51 56 54 52 52 51 49 45 44
15 13 8 5 5 6 7 7 6 6 7 9 13 15 17 18 19 21 23 24 26 28 30 32 34 36 38 40 41 43 45 48 46 46 48 53 58 57 56 53 51 49 48
11 7 6 6 5 4 4 6 9 11 13 16 19 21 20 18 18 20 22 25 27 29 32 34 37 39 41 43 44 45 47 49 51 50 49 51 53 55 62 56 50 52 47
9 9 7 5 3 4 8 11 14 17 19 21 22 21 19 18 18 20 22 25 28 30 32 35 36 38 40 42 44 45 46 48 51 52 53 53 53 53 55 64 61 58 55
11 9 6 4 4 7 11 15 18 20 23 23 21 20 19 20 20 21 23 25 28 30 33 35 38 41 43 45 46 46 46 48 49 51 52 53 55 56 57 59 62 63 61
13 10 7 5 7 10 13 18 22 24 23 21 20 21 21 22 23 24 27 30 32 35 38 40 42 43 44 44 45 46 47 49 51 52 53 54 55 55 57 59 63 64 64
14 11 7 7 10 12 18 22 24 23 22 22 22 23 24 26 28 30 33 36 40 43 44 45 46 46 46 47 48 49 50 52 53 54 54 55 55 54 53 55 57 62 64
13 10 9 10 12 16 22 24 23 23 23 24 24 26 28 30 31 34 37 40 44 47 49 50 50 49 49 49 49 50 51 52 53 54 54 54 54 54 53 53 54 56 61
12 10 10 11 15 20 22 23 23 24 25 26 29 31 33 34 35 37 42 45 48 51 51 50 49 49 48 48 48 49 50 50 50 51 51 51 51 51 52 53 53 52 54
10 11 12 15 19 22 22 23 24 27 29 31 33 35 36 38 39 42 47 50 55 52 50 50 49 48 48 48 48 49 50 50 51 51 51 51 51 51 51 51 52 53 53
13 13 16 20 23 23 22 25 28 31 33 35 35 37 40 41 43 47 52 58 55 49 49 48 47 48 48 49 50 51 52 53 54 55 54 54 55 55 55 55 55 57 57
15 18 20 24 24 21 24 28 31 33 34 35 38 41 41 43 47 52 57 54 47 47 47 47 48 49 50 52 54 55 56 57 57 57 55 54 55 55 56 57 58 58 60
18 20 23 20 20 23 26 30 33 36 37 39 42 44 44 48 51 57 51 48 48 48 49 49 50 52 54 56 58 59 58 57 57 56 55 55 55 55 56 57 58 58 59
22 23 20 21 23 25 29 33 36 37 40 42 44 48 49 52 54 51 48 48 48 48 50 52 53 56 58 60 61 60 60 59 60 58 57 55 54 54 54 55 55 56 57
20 22 23 23 25 28 32 36 38 39 41 44 47 50 55 54 49 48 47 48 48 49 51 54 57 60 61 59 59 58 59 58 57 57 55 54 53 52 51 50 49 50 51
20 22 23 24 27 30 34 36 37 40 45 49 49 55 53 46 45 46 46 47 49 51 54 58 61 61 60 59 58 56 56 56 56 56 56 54 51 51 50 49 47 45 44
22 25 26 27 28 30 33 34 38 43 47 50 52 44 43 42 44 45 46 48 51 55 59 61 61 60 58 57 56 57 58 58 56 54 52 51 50 48 48 48 48 47 45
28 26 25 25 29 31 32 37 42 46 46 42 40 39 40 42 43 45 47 51 55 59 61 61 59 58 56 57 58 58 57 55 53 48 47 45 46 47 45 45 48 47 44
26 25 25 26 29 32 36 41 42 43 39 37 36 38 40 42 44 47 51 54 58 60 58 58 57 57 57 56 55 54 52 50 47 46 46 45 46 44 41 45 45 45 42
25 26 27 30 33 35 37 39 39 37 34 35 37 38 40 43 46 50 53 56 57 58 57 57 57 56 55 54 51 47 45 45 47 47 47 46 46 43 44 42 41 42 40
27 28 29 31 33 35 37 38 36 34 34 35 36 39 42 45 48 51 54 55 56 57 57 58 57 55 54 52 48 44 43 42 45 46 46 46 45 45 43 41 39 38 37
27 27 30 33 35 35 35 34 34 33 34 36 38 41 44 47 49 51 53 55 55 56 57 57 57 55 51 48 44 42 43 44 45 46 47 46 45 43 39 37 37 36 34
28 30 32 34 35 34 34 34 33 34 36 38 41 44 46 48 50 51 53 54 54 55 55 55 55 51 47 46 46 46 46 47 47 46 49 46 43 40 37 35 33 32 32
31 31 31 32 32 31 32 34 35 37 39 41 43 45 47 48 50 52 52 52 52 52 52 50 49 47 46 46 46 47 48 47 46 48 46 44 41 38 35 33 32 32 33
30 30 31 31 30 29 32 35 37 39 42 43 46 47 48 49 51 52 52 51 49 48 45 43 44 44 43 45 46 46 46 45 45 46 44 40 37 35 35 35 35 34 35

GFSMW_700_spd_021.txt.gz
Wind_Speed
14 14 16 18 18 18 14 8 6 7 7 6 6 7 9 11 14 16 19 21 23 25 26 27 28 29 30 31 33 35 37 37 41 46 47 48 46 46 46 46 46 46 45
17 17 16 15 12 8 5 4 4 3 3 4 5 6 9 11 14 16 18 20 21 23 24 26 27 29 31 33 36 40 42 42 43 48 51 55 53 51 51 50 50 49 48
15 14 12 9 7 5 4 2 2 4 6 8 10 13 15 16 17 18 19 20 22 24 26 28 30 33 35 38 40 43 45 48 46 47 50 55 58 59 55 54 53 52 51
15 11 9 8 6 5 4 3 5 7 9 11 13 15 15 15 15 16 18 20 22 24 27 29 32 35 38 40 42 44 46 48 49 47 45 47 52 58 66 59 58 55 55
11 11 10 8 7 5 3 6 8 10 12 14 16 15 14 14 15 17 19 22 24 27 30 33 36 39 41 43 44 44 44 46 49 50 53 53 53 53 57 67 64 61 60
12 12 10 9 7 5 7 9 11 14 16 17 16 16 16 17 18 20 22 24 27 30 34 37 39 41 43 44 45 46 46 47 49 50 52 54 56 57 57 59 63 64 64
14 12 12 9 6 6 8 12 16 19 20 18 17 18 18 20 21 23 26 28 31 33 36 40 42 44 45 44 44 44 44 44 46 47 49 50 51 52 54 56 59 63 65
15 14 12 9 7 7 11 16 20 22 21 21 20 21 23 24 26 29 32 34 35 38 41 45 46 43 42 43 43 43 45 46 48 50 51 53 53 54 54 54 55 61 62
13 12 11 9 9 10 14 19 23 24 23 23 24 26 28 30 32 35 36 36 38 42 48 46 42 42 43 44 45 46 46 46 47 49 50 51 52 53 54 55 55 55 61
14 13 11 11 11 14 18 22 24 25 25 26 28 31 34 35 37 37 36 37 43 49 47 42 43 43 43 44 45 46 47 50 52 53 54 55 55 55 55 55 55 54 54
13 12 12 13 15 18 22 24 25 26 27 30 33 36 38 40 39 39 39 42 46 49 45 43 43 44 45 46 48 50 53 55 56 58 59 58 57 56 56 56 57 57 57
14 14 15 17 19 22 25 24 25 28 30 33 37 39 41 41 43 43 45 47 48 48 45 45 45 46 48 50 53 55 58 61 62 61 61 60 59 58 57 58 58 59 60
16 16 18 20 23 26 24 25 27 30 34 38 40 41 43 42 47 47 49 49 47 44 43 45 47 49 51 54 57 59 61 62 61 60 59 58 57 55 54 54 55 56 57
20 21 21 22 25 24 24 27 29 33 37 39 40 41 43 46 49 50 49 45 43 43 44 46 49 52 54 57 60 61 61 60 59 57 56 54 53 53 53 53 53 54 55
21 21 22 23 23 24 26 29 33 35 38 39 40 43 45 48 49 46 42 43 43 44 46 49 51 54 57 59 60 60 60 59 58 56 54 54 52 50 47 47 48 48 49
22 22 22 21 23 26 29 31 32 34 37 39 42 46 46 44 40 41 41 42 43 45 47 51 54 56 57 58 58 59 60 59 58 57 55 53 50 45 42 42 42 41 42
21 20 21 23 26 29 30 30 32 34 37 41 45 43 40 38 37 39 40 43 44 47 50 53 55 57 58 59 60 60 60 59 57 55 51 47 43 42 43 43 43 42 42
18 20 24 27 26 26 27 30 32 35 39 41 42 39 37 36 37 39 41 44 47 50 53 54 57 59 60 60 60 59 57 55 52 47 44 42 43 44 44 44 41 42 43
22 26 25 24 23 24 27 30 32 35 37 39 38 36 36 36 38 41 44 47 49 51 53 56 59 60 59 58 56 55 54 51 46 43 42 42 43 43 43 37 44 44 39
25 23 21 21 22 25 28 32 33 33 35 35 34 35 36 38 42 45 48 49 50 51 53 57 57 58 57 53 51 49 48 45 44 45 44 43 42 42 37 44 44 44 41
19 19 19 21 22 26 30 32 32 33 33 33 34 36 39 42 45 47 48 49 50 52 54 56 57 56 53 50 47 45 45 44 45 46 46 45 44 39 43 40 40 40 41
19 20 21 23 25 29 30 31 30 31 31 33 35 38 41 44 46 47 48 49 51 53 54 55 56 53 49 47 46 45 43 41 45 47 47 46 43 41 39 37 35 36 38
21 23 24 26 27 28 29 30 31 32 33 35 37 41 43 44 46 47 48 50 51 53 54 53 54 52 49 47 45 44 44 45 47 47 47 45 43 40 35 32 32 34 35
24 24 25 25 26 27 28 31 32 33 35 37 41 43 43 44 45 46 48 49 50 52 51 51 53 52 48 46 46 47 49 48 48 49 47 44 40 34 32 30 29 31 33
23 23 23 24 26 27 30 31 32 35 38 40 42 42 43 44 45 47 48 49 49 48 47 49 49 50 50 48 48 47 47 47 46 48 45 40 36 31 28 28 30 31 33
22 22 23 25 25 26 30 32 35 38 41 41 41 43 44 45 47 48 47 47 45 45 44 44 45 46 47 48 47 45 44 44 44 44 41 37 32 30 30 31 32 32 38

GFSMW_700_spd_024.txt.gz
Wind_Speed
13 12 12 14 15 17 19 19 15 9 8 9 10 10 12 13 16 19 21 24 26 27 27 27 28 28 29 31 33 35 36 37 41 45 47 48 48 47 49 49 49 48 48
15 17 17 17 17 15 11 8 7 6 5 6 6 8 10 13 16 19 21 22 23 24 24 25 27 28 30 32 35 39 41 43 45 49 52 56 53 51 52 52 52 53 52
15 15 14 14 12 10 9 8 7 6 6 7 9 11 13 15 17 18 20 21 22 23 25 27 29 32 35 38 41 44 47 49 47 48 50 55 58 60 57 56 56 55 54
17 15 13 12 12 11 10 8 7 7 8 10 13 14 15 16 17 17 19 20 22 25 27 30 33 36 39 42 44 46 47 48 49 48 46 47 53 57 65 59 59 57 58
18 14 13 15 13 13 11 8 7 8 10 11 13 14 15 15 16 18 20 23 25 28 31 34 37 39 41 43 44 44 43 44 45 46 47 46 47 48 53 64 61 58 57
16 15 17 16 15 12 10 8 7 8 11 14 16 16 16 16 18 21 23 25 29 32 35 37 38 41 42 42 38 38 39 40 41 43 45 47 50 52 55 60 62 64 62
15 17 18 17 15 12 10 9 9 12 15 18 18 17 18 20 23 25 27 31 34 34 34 35 38 40 37 37 38 39 39 40 42 43 46 48 51 54 57 61 65 68 67
17 19 19 18 15 12 11 11 13 16 19 21 20 20 22 25 28 30 33 37 37 36 36 38 41 41 39 39 40 40 42 43 45 47 49 52 54 56 58 61 64 70 70
18 20 20 19 16 13 12 14 16 19 22 23 23 25 28 31 34 37 39 37 37 37 39 40 41 40 39 40 41 42 44 46 48 51 53 55 57 58 59 59 60 62 69
21 21 22 20 16 15 15 16 19 22 24 26 27 29 32 36 39 42 40 40 41 42 41 40 40 39 40 41 43 45 47 50 52 55 58 58 58 58 57 57 57 57 59
21 21 21 19 17 17 18 18 22 25 26 28 30 33 36 39 41 45 44 46 46 43 40 39 40 40 41 43 46 48 52 55 57 57 58 58 57 57 56 56 55 55 55
19 19 20 19 19 19 20 22 26 27 28 30 33 36 38 41 43 45 46 47 45 40 39 40 41 42 44 46 49 53 55 57 58 59 59 58 57 56 55 54 55 56 55
19 21 21 20 20 21 22 25 27 28 31 33 35 38 41 43 46 47 47 44 39 39 40 42 43 45 47 50 52 54 57 59 60 61 60 59 57 56 55 54 53 51 49
20 21 22 22 22 22 25 27 29 31 32 34 36 39 44 46 45 45 41 39 38 39 41 42 45 47 49 51 53 56 59 61 62 61 58 55 54 53 51 49 47 46 47
22 23 23 22 23 26 27 29 30 32 33 36 39 43 45 43 42 39 37 37 38 40 42 45 47 49 50 52 56 59 61 62 61 58 55 52 50 48 45 44 45 46 46
22 22 22 24 26 26 27 29 32 33 34 37 41 44 42 42 38 36 37 38 40 42 45 47 49 50 51 54 57 59 61 60 59 57 53 49 46 45 44 44 43 42 41
21 23 24 24 24 26 28 31 31 32 34 39 41 40 40 38 37 37 38 41 43 45 46 48 49 50 53 55 58 60 59 58 55 52 50 47 46 45 46 45 44 42 39
21 21 21 22 25 28 28 28 29 33 37 37 37 36 37 37 38 38 41 43 46 46 48 49 50 52 54 57 59 58 57 54 52 50 48 46 45 44 45 45 42 41 45
20 20 22 25 25 24 25 27 31 33 33 33 35 35 36 37 38 40 43 45 47 47 48 50 52 53 55 56 56 55 54 52 50 48 46 45 45 45 43 42 44 49 47
18 21 23 21 21 23 25 28 29 31 33 34 34 35 36 38 40 43 46 46 47 49 50 51 53 53 54 54 54 52 52 50 49 47 46 47 46 44 43 46 48 48 44
21 19 18 20 22 23 24 27 28 30 32 33 33 35 37 40 43 45 46 47 48 49 50 51 52 54 54 54 52 49 49 49 50 50 49 48 45 45 45 42 42 42 42
17 17 19 20 21 23 24 26 28 30 31 32 33 35 38 42 45 46 46 47 48 49 50 51 52 54 54 51 50 48 48 48 49 50 49 47 47 46 42 39 37 37 38
16 18 19 20 21 22 24 26 27 28 29 31 34 38 40 43 44 45 47 48 49 50 50 51 53 53 53 52 50 48 48 49 49 48 47 46 46 42 37 33 33 34 36
17 18 19 20 21 23 25 26 26 27 30 33 37 39 41 42 43 45 46 47 48 49 50 51 52 53 53 52 50 49 50 49 48 46 46 44 41 37 34 31 30 32 35
17 19 19 21 22 24 25 25 26 28 32 35 39 40 41 42 43 45 47 47 47 48 49 49 50 51 52 51 50 49 49 48 45 46 43 41 38 35 30 28 30 32 38
18 19 21 22 23 23 23 25 28 32 35 37 39 40 41 43 45 46 47 48 47 47 46 45 46 48 48 49 48 48 47 44 41 41 39 38 35 31 29 31 32 37 32

GFSMW_700_spd_027.txt.gz
Wind_Speed
15 15 14 15 16 17 17 19 20 20 17 14 14 15 16 17 18 21 24 26 28 29 30 31 31 32 33 34 36 38 39 41 44 48 50 49 48 47 47 48 48 49 49
17 16 17 16 16 17 17 16 12 9 8 8 8 8 10 13 16 19 22 24 25 27 27 28 30 31 33 36 38 42 45 46 47 50 52 54 51 48 46 46 46 47 48
20 18 19 19 17 16 14 11 10 8 8 7 9 11 14 16 18 19 21 22 23 25 27 29 31 34 37 41 43 45 47 48 46 45 47 51 52 53 49 48 49 48 49
23 20 18 16 15 14 13 11 10 9 8 8 11 12 14 15 16 18 20 21 23 26 30 33 36 39 42 43 43 45 45 45 44 42 40 41 46 51 60 55 52 52 52
24 21 18 15 14 15 14 12 10 8 8 9 11 13 15 17 18 19 21 24 28 30 33 37 40 41 40 40 42 41 40 40 41 42 44 45 45 46 52 62 60 58 58
25 21 17 17 18 17 15 12 10 9 9 10 12 15 17 17 18 21 24 28 31 35 38 39 39 39 41 41 40 38 38 39 40 42 44 47 49 52 54 58 61 64 64
23 20 19 21 20 18 15 13 11 10 10 12 16 19 18 18 21 25 29 31 35 39 38 38 38 39 39 39 38 37 38 40 41 42 44 47 50 53 57 61 66 69 69
21 20 22 22 21 18 16 14 12 12 13 16 20 21 21 23 26 30 35 37 39 39 39 39 39 38 37 37 38 39 40 42 43 45 48 51 53 55 58 61 65 71 71
21 21 23 23 22 20 17 15 14 15 16 20 23 24 25 28 31 35 39 42 44 43 43 42 39 38 38 39 41 41 42 44 46 48 51 53 55 58 59 60 61 62 71
22 23 25 25 24 21 18 17 17 17 20 23 25 27 29 32 35 39 42 45 46 45 44 41 39 39 39 40 41 42 44 47 49 51 54 56 57 60 60 60 59 58 58
25 24 25 25 24 21 20 20 20 21 24 26 29 30 33 36 39 42 45 47 47 45 42 40 39 39 39 41 43 44 47 49 52 54 56 58 59 60 59 57 56 56 54
24 22 23 23 23 23 21 21 22 24 27 30 31 33 36 39 42 45 47 47 45 42 40 39 40 41 42 44 46 47 49 51 54 56 58 59 59 58 57 56 54 53 51
22 22 23 23 24 24 23 23 25 27 31 33 34 36 39 42 45 46 46 45 42 40 40 41 41 43 45 46 47 49 51 53 55 57 59 59 58 57 54 52 51 50 48
19 21 22 23 24 24 24 25 28 30 32 34 36 38 41 44 46 46 45 42 41 41 41 42 44 46 47 48 49 51 53 55 57 59 59 58 56 54 52 51 50 48 48
16 16 22 23 24 24 26 28 30 31 33 35 37 40 42 45 45 44 43 41 41 41 43 45 47 47 48 49 51 53 54 56 57 58 57 56 54 53 50 47 47 46 46
20 22 23 23 24 26 28 29 29 31 34 37 39 40 43 43 43 43 41 40 41 43 46 48 49 48 48 50 51 53 55 56 58 58 57 55 52 50 47 47 47 41 42
21 22 22 23 25 26 26 28 30 34 36 37 39 40 41 42 41 39 39 42 44 46 48 48 48 48 49 51 52 53 55 56 56 55 55 53 50 49 49 49 48 46 43
20 21 21 23 23 24 27 30 32 33 35 37 37 38 39 38 38 39 42 44 47 48 48 48 49 50 50 51 53 53 54 54 53 53 52 51 51 50 49 48 49 47 50
21 20 20 21 22 26 28 29 30 32 34 36 37 38 38 38 40 41 44 46 48 47 47 48 50 51 51 51 51 53 54 54 53 52 51 50 51 50 46 45 48 54 50
19 18 19 21 24 25 25 27 29 32 33 34 36 37 37 39 41 43 46 46 47 47 48 49 51 51 51 51 51 52 53 54 53 53 52 50 49 47 45 46 51 50 45
17 17 20 22 22 23 25 27 29 31 32 33 33 35 37 39 42 44 45 46 47 48 49 50 50 51 51 52 52 52 52 53 54 54 53 51 50 44 47 45 44 41 40
18 20 21 20 22 24 26 27 28 29 30 31 32 34 37 40 43 44 44 45 47 49 50 50 51 51 52 52 52 52 51 51 52 53 52 51 47 47 44 41 37 35 37
20 20 20 21 22 23 24 26 26 27 28 30 33 36 37 40 42 43 44 46 47 49 50 50 52 52 52 52 51 50 50 50 51 50 49 46 45 42 39 34 33 34 37
17 18 20 21 22 22 23 24 25 26 29 31 33 35 38 39 40 42 45 47 48 48 49 50 52 52 52 51 50 50 51 51 50 48 47 43 40 37 33 30 30 33 38
17 18 19 20 20 22 22 23 25 28 29 30 33 36 38 39 41 42 45 47 48 50 51 50 51 51 50 48 48 49 51 50 46 46 43 40 38 33 29 30 32 37 32
16 18 19 20 20 21 22 25 26 27 29 32 35 37 39 40 42 44 46 47 49 50 50 49 49 49 47 47 47 48 47 43 42 41 40 37 33 30 31 33 37 30 27

GFSMW_700_spd_030.txt.gz
Wind_Speed
29 17 16 15 16 17 16 16 18 19 21 22 23 21 18 17 17 17 19 21 23 25 27 28 30 32 33 34 36 39 41 43 47 48 47 44 42 41 40 39 40 40 41
31 20 17 15 15 16 17 18 18 17 15 13 11 10 10 11 13 15 18 20 22 23 25 27 29 31 34 37 40 44 46 45 45 48 48 48 42 41 39 38 39 39 41
31 19 19 19 18 18 17 17 14 11 10 9 8 9 11 13 14 16 17 19 20 22 24 27 30 33 37 40 43 43 43 42 41 41 45 48 50 52 49 46 44 45 45
31 22 21 19 18 17 15 14 13 11 9 8 8 9 10 12 14 15 17 18 20 24 27 31 34 38 40 40 40 40 42 42 41 38 36 39 45 50 59 54 49 48 49
33 22 22 20 18 16 15 14 13 11 9 8 8 9 11 13 15 16 18 20 23 27 32 35 38 37 37 39 39 39 39 39 40 41 41 41 41 43 50 62 58 56 54
31 25 23 21 19 18 17 16 14 11 9 9 8 10 13 16 17 18 22 26 29 32 35 37 38 38 39 39 38 37 37 38 39 39 41 43 45 48 51 55 59 62 61
25 23 24 22 21 20 19 17 14 12 10 9 9 13 16 19 20 22 26 30 34 36 39 39 39 40 39 38 37 37 38 39 39 40 42 43 45 48 51 56 61 65 65
21 23 24 23 23 23 20 18 15 12 11 11 13 17 20 22 23 26 31 34 38 41 42 42 41 40 38 38 38 38 39 40 41 42 43 45 46 49 51 55 60 67 67
19 23 23 24 25 24 21 18 15 14 13 14 17 20 24 26 28 30 34 38 41 43 43 43 41 39 38 39 39 40 42 43 43 44 46 48 49 51 53 55 57 61 70
21 24 24 25 27 25 22 19 17 16 17 18 21 24 27 29 31 34 37 41 43 44 44 43 40 39 39 41 42 43 45 46 45 47 49 50 51 53 54 56 57 57 59
22 23 24 27 27 25 23 20 19 19 20 23 25 28 30 32 34 37 40 43 44 45 43 41 40 40 41 43 45 46 47 47 48 49 51 51 52 54 55 56 56 57 56
23 24 24 25 25 25 24 22 21 21 23 26 28 31 33 35 37 40 43 43 44 44 42 41 41 42 43 45 48 49 48 48 49 50 52 52 53 54 55 55 56 56 54
23 24 23 22 23 25 25 24 23 23 26 28 31 33 35 38 40 42 43 44 43 42 41 41 42 44 46 48 48 48 48 49 50 51 52 52 53 55 55 55 55 54 53
16 20 20 21 23 24 25 25 25 26 28 31 33 35 37 39 41 42 43 43 42 41 41 42 44 46 48 48 49 49 49 49 50 50 51 52 54 55 54 54 53 52 52
12 17 14 18 22 23 24 25 26 28 30 32 34 36 39 40 40 42 43 41 40 41 42 44 46 47 48 47 48 49 51 51 51 51 52 53 54 52 51 49 49 50 51
13 16 19 22 21 22 23 24 26 29 31 32 35 37 38 39 40 41 40 39 40 41 44 46 48 48 46 47 48 50 51 51 52 53 53 54 53 52 51 50 49 44 41
12 13 18 22 22 21 23 25 27 29 31 34 36 36 37 39 40 40 39 40 41 43 46 46 46 46 47 48 49 50 51 51 52 53 54 54 53 51 51 51 49 47 45
15 16 20 21 20 21 23 24 26 30 33 33 34 35 37 38 38 38 39 41 43 45 45 44 46 48 49 50 50 50 51 52 53 53 54 53 53 52 51 49 47 45 50
16 18 19 19 19 21 22 24 29 30 30 31 33 35 35 36 36 37 39 42 44 42 43 45 48 50 50 50 50 51 53 55 55 55 54 53 53 52 48 42 46 52 47
17 18 17 18 19 20 24 26 26 27 29 31 32 33 34 35 36 38 40 41 41 43 45 47 49 49 50 50 51 52 53 55 55 55 54 53 51 48 40 42 47 46 42
17 17 17 17 19 22 23 23 25 27 28 30 30 32 32 34 36 39 39 40 42 44 45 47 47 49 50 51 51 51 52 52 53 54 53 51 46 41 43 39 39 38 37
15 15 15 18 20 20 21 23 24 26 27 28 29 30 31 34 37 38 39 40 42 44 46 48 49 50 51 51 51 50 49 49 50 51 50 45 42 41 38 35 34 33 36
13 15 17 17 18 20 22 22 24 25 26 27 27 29 32 35 37 38 39 41 43 46 48 49 50 52 52 51 50 49 48 47 47 46 43 41 40 37 34 30 30 33 37
15 15 15 16 18 20 21 22 24 24 24 25 28 31 33 35 36 37 39 42 45 48 50 51 53 54 53 51 48 47 48 48 45 44 43 39 36 33 29 27 29 33 29
13 14 15 17 18 20 21 22 22 22 24 27 30 32 34 36 37 38 40 43 46 49 51 51 52 53 52 49 46 46 47 45 43 43 40 37 33 29 27 29 32 26 26
13 15 16 17 19 19 20 21 21 23 25 28 30 33 36 37 37 39 41 43 46 48 48 48 48 48 46 45 44 45 44 41 40 39 37 34 30 29 30 34 28 25 26

GFSMW_700_spd_033.txt.gz
Wind_Speed
23 21 19 18 17 18 18 19 20 20 20 20 20 22 23 21 19 17 17 18 18 20 21 22 25 27 29 32 34 37 39 41 43 41 40 38 37 38 36 37 37 37 37
24 23 22 19 17 15 16 16 16 17 17 17 17 16 15 13 12 13 15 16 17 19 20 22 25 28 31 35 38 40 39 38 42 43 43 43 38 38 37 35 35 35 37
27 26 24 21 18 17 16 15 15 16 15 15 14 11 10 11 12 13 15 15 17 18 21 24 28 32 35 36 37 37 38 36 37 40 42 45 47 46 41 40 39 41 42
32 29 28 23 20 19 18 17 16 14 14 13 12 11 10 10 11 13 14 16 18 20 23 27 30 33 35 35 35 36 37 37 36 35 37 40 45 50 57 51 45 44 46
34 29 30 24 22 19 18 16 14 14 14 12 10 9 7 8 11 13 14 16 20 23 27 30 32 33 34 34 35 36 36 37 37 38 38 38 40 43 51 60 56 51 48
35 33 32 25 23 20 18 16 16 15 13 11 9 7 6 9 13 15 16 19 23 27 31 34 35 35 35 35 35 35 36 37 38 39 41 44 47 48 50 55 58 60 58
36 36 33 27 24 22 19 19 18 16 13 11 8 7 9 13 16 19 21 24 28 32 34 36 37 36 36 36 36 36 36 37 39 41 43 44 45 48 51 55 60 63 61
31 31 29 28 25 23 21 20 18 16 13 10 9 10 13 17 20 23 26 28 32 35 37 38 38 38 37 36 36 37 38 40 42 44 45 47 46 48 50 54 58 65 64
24 27 28 27 26 24 23 21 19 16 13 12 11 14 17 21 24 27 29 31 35 38 39 39 38 37 37 37 37 39 41 43 45 46 48 48 49 50 51 52 54 58 66
21 26 27 28 27 25 25 23 20 17 15 14 15 18 21 24 27 29 31 34 37 39 39 38 37 37 37 38 40 43 44 46 47 48 49 49 50 51 52 52 52 53 58
20 24 27 28 26 26 25 23 21 19 17 17 19 21 24 27 30 32 34 37 39 39 39 38 37 37 38 41 43 46 48 49 49 49 50 50 51 52 51 51 53 55 56
20 22 25 25 25 26 25 24 23 21 19 19 21 24 28 30 32 34 37 39 39 39 39 37 37 39 41 43 46 48 49 49 49 49 51 51 50 50 50 52 54 56 56
21 23 24 23 24 25 25 25 24 23 22 22 24 28 31 33 34 36 39 39 39 39 38 38 39 41 43 45 46 48 49 50 50 50 50 50 51 52 53 55 56 57 56
15 20 22 22 22 23 25 25 25 24 23 25 27 30 32 34 36 38 38 38 38 38 37 39 41 43 45 46 48 49 50 50 49 48 49 51 52 54 56 56 55 54 54
11 16 18 19 21 21 22 23 23 23 24 26 29 31 33 35 36 36 37 38 37 37 38 41 42 43 46 47 49 49 50 50 49 49 50 52 54 54 52 52 52 51 49
8 10 15 17 17 17 18 19 20 22 25 27 30 31 33 35 35 36 37 36 35 37 40 42 44 45 46 46 46 48 50 50 51 53 54 55 54 53 51 49 49 44 40
9 12 11 13 17 18 17 18 20 22 25 27 29 31 33 33 34 35 35 35 36 39 40 42 44 44 44 46 47 49 51 52 54 56 57 57 54 52 51 50 48 43 38
11 14 14 16 17 17 17 17 19 22 25 27 29 30 31 32 33 33 34 36 37 39 41 43 43 44 45 48 50 51 53 54 56 56 56 54 52 50 50 47 43 43 44
13 13 14 15 15 15 15 17 21 23 25 28 28 28 30 31 31 32 34 36 38 39 40 40 43 45 47 49 51 53 55 56 55 54 51 49 49 47 43 39 43 46 40
13 14 15 14 14 14 16 19 21 23 25 25 27 28 29 29 30 32 35 37 39 40 40 40 44 47 50 51 53 54 55 54 53 50 48 46 44 41 38 41 42 41 37
15 15 14 13 14 16 18 20 21 22 23 25 26 27 27 28 31 33 36 38 39 39 40 42 45 47 49 51 53 53 52 49 48 47 46 44 40 38 40 37 35 34 35
15 14 13 13 15 17 18 19 20 22 23 23 24 25 27 30 32 35 37 37 39 40 42 45 47 48 50 52 53 51 47 43 44 45 44 41 40 39 36 33 31 32 36
12 13 13 14 16 16 17 18 19 20 21 22 23 25 28 30 34 36 37 37 39 42 44 47 49 51 53 53 50 47 43 43 44 42 41 39 38 35 31 28 30 32 28
11 12 14 14 14 15 17 18 18 19 20 21 23 26 28 31 34 35 37 38 40 43 46 49 51 53 54 51 47 44 44 44 43 41 40 37 34 30 28 27 28 25 25
11 12 12 13 14 15 16 17 18 19 20 22 25 27 30 33 34 35 36 38 40 44 48 49 52 53 51 47 43 43 43 43 41 40 37 34 30 27 26 27 24 23 25
10 10 11 13 14 15 16 17 18 19 21 24 26 29 31 33 35 37 36 36 40 43 45 47 48 47 43 41 41 41 41 38 37 37 35 31 28 28 30 26 23 24 25

GFSMW_700_spd_036.txt.gz
Wind_Speed
25 23 26 23 20 20 22 26 29 27 26 23 22 21 22 22 20 20 19 18 16 17 18 20 22 24 27 30 32 35 36 38 37 36 34 33 35 34 34 34 35 35 36
30 28 29 25 20 19 19 23 23 22 20 20 20 20 22 21 18 16 15 14 16 16 18 20 23 26 30 33 35 35 35 36 37 37 38 38 35 36 36 35 35 37 37
31 32 30 26 20 18 19 19 18 18 19 19 19 20 19 15 13 12 13 14 15 17 19 22 26 29 32 34 34 34 33 34 36 39 40 43 44 43 38 39 38 41 41
38 33 33 28 22 20 20 18 17 17 18 18 18 15 13 12 10 10 12 14 16 18 21 25 28 31 32 32 32 33 34 35 35 36 39 41 45 49 54 45 43 45 48
40 39 32 27 25 23 21 19 17 16 15 16 15 13 11 8 7 8 11 14 17 20 24 27 30 31 32 33 33 34 35 36 36 37 38 40 43 47 54 61 57 53 51
40 39 34 31 28 24 22 19 17 16 18 16 14 12 9 8 7 9 12 15 19 23 26 30 33 33 34 34 35 35 35 36 37 38 41 44 47 50 54 59 63 66 64
42 40 36 33 29 25 23 20 18 18 18 16 14 12 10 9 10 13 16 20 23 26 30 34 35 35 35 35 35 35 35 37 39 41 44 46 48 52 55 59 65 68 67
50 38 34 33 30 24 24 22 20 20 18 16 14 12 10 11 13 17 20 24 27 30 33 37 37 37 36 35 35 36 37 39 41 44 46 49 50 53 55 58 63 70 69
45 39 35 33 30 24 26 23 21 21 19 17 14 12 12 14 17 20 24 27 30 32 36 37 37 37 36 36 36 38 40 42 44 46 48 51 53 54 55 56 58 62 69
36 37 34 32 27 26 27 24 23 21 19 17 14 14 14 17 20 24 28 30 32 34 37 37 37 36 36 37 39 41 43 45 47 49 51 52 54 55 55 55 56 57 61
26 29 30 28 26 29 27 25 24 22 19 17 15 15 17 20 24 27 30 32 34 37 37 37 37 37 37 39 42 44 46 48 50 50 51 52 54 54 54 55 56 57 58
23 24 25 25 28 29 27 26 24 22 20 19 18 18 21 23 27 30 32 33 36 37 38 37 37 38 40 41 44 46 48 50 51 51 52 53 54 54 54 56 58 59 59
21 21 23 25 27 27 27 26 25 24 22 21 20 22 24 27 29 32 32 35 37 38 38 38 38 40 41 43 46 49 50 50 50 51 52 53 55 57 58 60 60 60 59
22 21 23 24 25 25 26 26 25 24 23 23 24 25 27 29 31 32 34 37 37 37 37 38 39 41 43 46 48 49 49 49 51 52 52 54 56 60 61 61 59 57 56
20 21 22 23 24 24 25 25 25 24 25 25 25 27 28 30 31 33 36 36 37 36 37 39 40 43 46 48 49 50 51 51 52 51 54 57 60 60 59 56 56 53 51
12 16 20 22 21 21 21 22 23 24 24 25 26 27 28 30 32 34 34 35 35 36 38 40 43 45 47 48 48 49 52 51 53 56 59 60 60 59 56 52 50 45 41
6 10 14 16 18 18 18 19 20 22 24 24 24 27 29 31 32 33 34 34 35 36 38 41 45 45 47 48 48 50 51 52 56 59 60 59 55 51 51 49 46 41 40
3 10 13 14 15 16 17 19 19 20 21 22 25 26 28 30 31 33 33 33 35 37 40 43 45 46 47 48 49 51 52 55 58 58 56 52 48 48 47 46 44 44 44
6 10 12 12 12 13 14 16 17 19 21 22 24 26 27 29 30 30 31 34 35 38 41 43 45 47 47 49 51 53 56 58 58 55 49 47 47 44 42 42 45 43 37
8 10 12 12 13 13 15 16 16 18 20 23 24 25 27 28 28 29 32 34 38 40 43 43 44 46 48 50 52 56 59 59 56 50 46 45 42 41 40 41 41 37 35
9 10 11 10 12 13 13 14 17 19 21 22 24 25 26 26 28 30 33 36 39 41 42 43 43 45 48 50 54 56 56 53 50 47 46 42 40 39 38 35 33 34 37
12 13 12 12 11 12 14 17 18 19 20 22 23 24 25 27 29 31 34 38 41 42 42 43 44 46 48 52 54 54 49 45 46 46 43 40 39 38 34 31 32 34 34
13 14 13 13 13 15 16 17 18 19 20 21 22 23 25 27 30 33 37 39 40 42 43 45 48 49 51 53 53 50 46 44 44 43 38 38 37 34 30 29 32 30 28
14 13 12 13 14 15 15 16 17 18 19 20 21 23 25 29 32 36 39 40 41 42 44 47 49 51 53 53 50 47 45 44 44 40 36 36 33 29 29 29 25 24 26
12 12 13 14 13 13 14 15 16 17 18 19 21 24 27 30 34 37 38 39 40 43 47 49 52 54 53 50 46 45 45 43 41 37 35 33 29 27 26 22 22 23 24
12 12 11 11 11 12 13 15 16 17 18 20 23 26 29 33 36 37 35 37 40 42 45 48 51 51 47 43 43 42 41 38 36 34 34 30 28 28 26 23 22 22 23

GFSMW_700_spd_039.txt.gz
Wind_Speed
25 29 31 29 27 22 23 23 23 25 30 32 30 26 24 23 22 22 21 23 22 18 17 18 21 22 25 28 31 34 36 36 35 33 31 31 32 32 32 32 32 33 36
29 29 29 28 26 24 22 22 22 22 26 28 26 24 23 23 23 23 22 20 17 16 18 20 21 24 27 31 34 35 36 36 35 35 36 35 33 34 33 32 33 35 36
37 28 31 30 28 25 21 19 19 19 20 23 23 23 23 24 23 24 19 15 15 17 19 20 23 26 30 33 34 34 33 34 35 37 37 39 40 40 35 35 35 39 39
38 35 32 32 30 26 21 19 18 18 18 19 20 22 22 20 19 15 14 14 14 17 19 22 25 29 32 33 33 33 34 35 36 36 36 38 42 45 47 39 38 42 45
37 38 35 31 31 29 24 21 18 18 19 19 21 22 20 16 14 13 12 11 14 17 21 24 27 30 33 34 34 35 35 35 35 36 37 38 41 44 50 55 52 49 50
41 40 37 35 35 30 25 22 20 20 21 21 19 17 15 14 13 11 10 12 15 19 23 27 29 32 35 35 36 36 35 35 36 37 39 42 45 48 52 58 61 65 65
42 41 43 38 35 32 27 23 22 22 21 20 19 17 17 16 13 11 12 15 18 22 26 29 32 35 36 36 37 36 36 36 37 40 41 44 47 51 54 59 63 68 69
40 42 41 35 33 30 27 23 22 23 21 20 19 18 17 14 13 13 15 18 22 26 29 32 34 37 37 38 37 36 37 38 40 42 45 47 50 53 55 59 64 70 71
35 39 40 33 33 29 26 23 24 24 22 21 20 18 16 16 14 16 18 21 25 29 32 34 37 38 38 38 37 37 39 40 42 45 47 50 52 53 55 56 59 63 73
32 36 38 37 31 29 26 25 25 24 23 22 21 19 18 16 17 18 21 24 28 32 34 36 38 39 39 38 38 39 41 43 45 48 50 51 53 55 56 57 59 60 64
28 32 39 40 34 30 27 27 28 25 24 23 21 20 18 18 19 21 24 27 31 34 36 38 39 39 38 38 39 41 44 46 48 49 52 53 55 57 58 59 61 63 65
23 25 31 37 33 29 28 29 27 26 25 24 22 20 20 21 23 25 27 30 33 36 38 38 39 38 38 39 42 44 46 48 50 52 54 55 56 58 59 62 64 65 66
24 28 32 31 28 28 29 29 27 27 26 24 23 22 22 24 26 27 29 32 35 37 38 39 38 38 39 41 43 46 48 50 52 54 55 56 58 59 62 64 66 67 64
22 25 27 26 26 27 28 28 28 27 25 24 24 25 26 27 28 29 31 34 36 38 38 39 39 39 41 44 46 48 50 51 52 54 55 56 59 62 65 66 63 59 57
24 22 21 22 24 26 28 27 26 25 25 26 26 27 28 28 29 30 33 35 37 38 39 38 39 41 43 46 48 50 52 53 54 55 56 58 62 63 61 58 55 54 53
21 19 19 20 22 24 24 25 25 26 27 27 28 28 28 28 29 32 33 35 37 38 38 39 40 43 45 47 49 51 53 54 55 56 59 62 61 58 54 51 50 47 46
16 17 18 19 20 20 21 22 24 25 26 27 27 26 27 28 30 32 34 35 36 36 37 40 42 44 46 48 50 51 53 54 54 58 61 61 56 51 51 49 46 45 44
13 13 16 19 20 20 20 21 22 23 24 23 23 25 26 28 30 32 33 35 35 36 38 40 44 45 47 49 51 52 53 54 57 60 59 55 50 48 47 46 46 43 38
11 11 12 14 15 16 17 18 19 19 19 21 22 23 26 28 30 32 33 33 35 37 39 42 44 46 47 50 51 52 54 57 60 59 54 50 48 46 44 44 45 39 33
12 10 12 13 14 14 14 15 16 17 18 19 21 24 26 27 29 31 32 33 35 38 41 42 45 46 49 50 51 53 57 60 60 55 49 46 44 41 41 41 38 36 35
12 13 13 11 11 12 13 14 15 16 17 19 21 23 25 27 29 30 31 34 36 39 41 43 44 46 48 49 52 55 58 58 55 50 47 44 41 39 38 35 34 35 36
13 13 12 13 13 13 14 14 15 16 18 19 21 24 26 27 28 30 33 36 38 41 43 44 44 44 46 50 53 56 55 52 49 47 44 42 40 38 34 31 33 34 31
13 14 14 13 13 13 13 13 14 16 18 20 22 24 26 26 28 31 33 36 40 43 44 45 46 48 49 52 55 55 50 47 46 44 41 38 38 34 31 30 32 30 30
14 14 13 12 12 12 12 14 15 17 19 21 22 24 25 27 29 32 35 39 41 43 44 46 48 50 52 54 55 52 48 47 46 43 38 37 35 31 30 29 26 27 29
13 13 12 11 11 12 13 14 16 17 19 21 22 23 25 27 30 34 37 40 41 44 46 48 51 53 54 54 52 48 46 45 43 40 36 34 31 29 26 22 23 24 25
11 10 10 11 11 11 13 14 16 17 18 19 21 23 25 29 32 35 36 40 41 42 44 47 50 52 52 48 45 44 43 40 39 36 35 32 30 28 25 24 23 23 25

GFSMW_700_spd_042.txt.gz
Wind_Speed
49 49 43 37 32 33 30 29 27 22 22 26 32 33 31 28 25 22 20 17 13 26 21 16 17 18 21 24 27 31 33 33 33 31 30 31 31 31 30 29 29 30 31
45 49 44 37 32 29 29 28 23 20 21 23 25 27 27 26 25 21 21 19 23 22 17 16 18 20 23 26 29 32 34 34 32 32 33 33 31 30 29 29 30 32 33
42 43 41 33 31 27 28 26 22 19 19 21 23 25 26 26 24 22 22 23 24 18 15 17 19 22 25 28 31 33 33 34 35 35 36 38 38 38 33 31 31 34 35
40 41 41 35 30 28 28 24 21 18 18 19 19 22 22 22 21 22 22 25 23 15 15 17 20 24 28 31 33 34 34 35 35 36 36 36 39 41 44 36 34 38 41
39 39 43 38 32 31 28 23 22 19 18 18 19 19 21 22 21 22 19 16 13 14 16 19 23 27 30 32 35 35 35 36 36 36 36 36 38 41 46 48 45 44 46
37 37 41 41 38 33 27 25 24 20 18 20 20 21 22 21 19 19 17 14 13 15 18 21 25 29 32 34 36 35 36 36 36 36 38 39 42 43 47 52 55 59 59
37 37 41 42 43 37 28 25 23 21 20 21 20 20 19 19 19 19 16 14 15 17 20 24 28 31 33 36 36 37 37 36 37 38 39 41 44 47 50 54 58 64 66
36 37 39 40 42 37 28 27 24 22 21 21 20 20 22 22 20 17 16 15 17 20 24 27 31 33 35 37 37 37 37 37 38 39 41 43 46 49 52 56 62 68 69
35 35 38 42 41 37 28 25 24 23 22 21 21 22 22 21 19 17 16 17 20 23 26 30 33 35 37 37 37 37 37 38 40 42 44 47 49 51 54 56 58 62 72
30 33 37 41 38 35 28 25 24 24 23 22 22 23 23 21 19 17 18 20 23 26 29 32 35 37 38 38 38 38 39 40 42 45 47 49 51 53 55 57 58 60 64
27 29 34 36 36 32 28 26 25 26 25 25 24 24 23 22 19 20 21 24 26 28 32 35 37 39 39 39 39 39 40 42 44 47 49 51 53 55 56 58 61 63 66
24 26 30 36 35 33 26 26 27 27 27 26 25 25 24 22 21 22 24 26 28 31 34 37 39 39 39 39 39 40 42 45 47 49 51 53 55 56 58 61 64 66 65
23 26 33 34 35 33 28 26 28 28 28 27 26 26 24 22 23 25 25 28 31 33 36 38 39 39 39 38 40 43 45 47 49 51 53 55 57 60 62 64 65 62 60
23 26 30 33 34 31 28 28 28 29 28 27 27 25 24 24 25 25 28 30 33 35 38 39 39 39 38 40 43 45 47 48 50 51 54 56 58 61 63 63 60 57 55
25 24 26 29 29 27 27 28 28 28 27 27 25 24 24 25 25 28 30 32 33 37 38 38 39 39 40 42 45 47 48 50 51 53 55 57 60 61 59 57 55 52 49
22 22 22 22 23 25 26 27 27 27 26 25 23 23 24 25 27 30 31 31 35 37 38 38 38 39 42 44 46 48 50 51 53 55 57 59 59 57 54 50 49 44 42
20 19 18 19 21 24 25 25 25 24 23 23 22 23 25 27 28 29 29 33 35 37 38 38 39 41 44 45 47 48 50 53 55 56 58 59 56 52 50 47 46 41 39
16 16 17 20 21 23 23 23 22 21 21 21 22 24 25 25 26 27 30 34 35 36 36 38 40 42 45 46 48 50 52 54 55 56 57 55 52 49 47 46 44 40 35
15 14 15 17 18 20 20 19 19 19 19 20 21 21 22 23 25 28 31 33 34 35 36 39 42 44 45 47 49 52 54 54 56 57 54 50 49 46 43 43 43 37 32
15 14 16 18 18 18 17 16 16 16 17 17 17 18 19 24 26 28 31 32 32 35 37 40 43 45 46 48 50 53 55 56 58 54 49 46 45 42 40 40 39 35 34
15 16 16 15 15 15 14 14 14 14 13 14 15 18 21 24 26 28 29 31 33 36 39 41 42 44 47 49 51 52 54 56 55 49 47 44 42 38 37 35 34 34 31
10 12 12 13 14 13 12 11 11 11 12 14 16 19 21 24 25 27 29 32 35 38 40 41 42 43 46 49 50 52 53 51 49 48 44 41 39 37 35 32 32 31 30
10 12 13 12 12 11 11 10 10 11 13 16 18 20 22 23 25 27 30 34 37 39 41 43 44 46 47 48 51 52 50 48 47 45 40 38 37 35 31 31 30 30 31
13 12 11 11 10 10 9 10 11 13 15 17 19 21 22 23 26 28 31 34 37 39 42 44 47 48 49 51 52 52 49 48 46 43 38 37 35 31 30 27 25 27 28
12 12 11 10 10 9 9 10 12 13 16 18 19 20 22 24 27 29 32 35 37 41 44 47 49 51 52 52 51 49 48 46 43 41 37 35 31 29 26 24 24 25 27
11 11 11 10 9 9 10 11 13 15 16 18 19 20 23 25 27 30 32 36 37 40 43 45 48 50 50 48 47 46 44 41 39 37 35 33 30 28 26 25 25 27 28

GFSMW_700_spd_045.txt.gz
Wind_Speed
43 49 51 49 44 41 38 34 33 29 30 30 30 29 31 32 28 27 24 22 16 20 11 23 15 15 16 18 21 24 27 29 30 29 29 29 30 29 29 28 29 29 30
39 42 49 53 50 45 39 35 32 30 30 30 29 28 29 29 29 27 26 21 20 19 16 17 14 15 17 20 23 27 29 31 31 29 29 30 29 28 28 28 30 31 32
40 40 42 50 50 47 41 35 30 28 27 27 27 26 27 28 28 27 24 18 19 23 21 16 15 16 18 22 26 29 31 32 31 30 32 33 33 34 30 29 30 32 32
41 39 40 45 47 44 39 34 30 28 26 25 25 24 23 24 26 26 24 21 21 21 19 15 16 17 20 24 28 30 32 32 32 33 33 33 35 37 39 34 33 35 36
35 38 36 41 42 40 36 36 31 28 26 23 22 22 21 24 24 25 22 23 21 21 15 15 16 19 23 26 30 32 33 33 34 34 34 34 35 37 40 42 37 38 40
29 28 34 35 43 41 39 39 35 28 24 22 21 20 20 21 24 22 22 24 18 16 14 15 18 21 25 29 32 34 34 35 35 35 36 36 37 38 42 46 48 50 50
30 33 34 37 44 45 40 39 36 30 24 22 21 22 22 21 21 21 22 22 19 14 15 17 20 24 27 31 34 35 35 36 36 36 36 37 39 41 44 48 51 57 58
24 33 35 38 42 43 42 38 35 29 23 22 22 23 22 23 22 23 21 18 16 16 17 19 22 26 30 34 36 36 36 37 37 37 37 39 42 44 47 50 55 60 62
24 26 34 38 40 41 42 39 34 29 24 22 23 24 23 23 23 24 19 17 17 18 19 22 25 29 32 36 37 37 38 38 37 38 39 41 44 46 49 52 55 60 67
29 27 35 37 38 40 40 39 33 29 25 23 23 23 23 24 24 21 20 18 18 20 22 25 28 31 35 37 39 39 38 38 38 40 42 44 46 48 51 54 55 57 61
24 30 32 35 36 41 40 37 32 30 26 23 23 24 24 23 22 21 19 19 20 22 25 28 31 34 37 39 39 39 38 39 40 42 44 46 49 50 52 54 55 58 61
27 32 29 33 40 41 39 37 32 29 25 23 24 25 24 23 23 21 20 21 23 24 27 30 33 36 39 40 39 39 39 40 42 44 45 47 50 51 53 56 59 61 61
32 30 29 35 43 41 36 33 31 28 25 24 25 25 24 24 22 21 21 23 24 27 30 32 34 38 40 41 40 40 41 42 44 46 48 50 52 54 57 59 61 61 59
30 24 31 37 41 40 36 32 29 27 24 25 26 25 24 23 21 22 23 24 27 29 31 32 36 39 40 39 40 41 42 43 45 47 49 51 54 56 58 61 61 58 54
22 24 29 36 39 38 35 31 28 25 25 25 25 24 23 22 22 23 24 26 28 30 31 35 38 39 38 39 40 42 44 45 47 48 50 52 54 57 58 57 54 52 49
23 27 33 36 35 34 31 28 25 24 25 25 23 22 22 22 22 23 26 27 28 29 33 36 37 37 38 39 41 44 45 47 48 51 53 54 56 56 54 50 48 46 40
25 28 30 29 28 27 25 24 23 23 23 22 21 22 21 21 23 25 26 26 27 32 34 35 35 37 39 41 43 45 46 48 50 52 54 56 55 52 49 46 44 40 37
25 26 26 26 25 23 23 22 21 21 20 20 20 19 20 22 23 24 23 26 30 32 33 34 35 37 40 42 44 46 48 50 51 52 54 54 51 48 47 44 42 37 33
20 19 19 19 20 21 21 20 20 19 19 18 19 19 21 21 21 21 25 28 29 31 32 34 36 38 41 43 45 48 50 52 53 52 51 50 48 45 41 40 40 35 31
18 17 19 19 19 20 19 18 17 17 18 18 18 18 17 18 20 23 25 27 28 30 32 35 38 41 42 44 46 49 52 54 54 50 48 45 43 40 37 37 37 35 32
17 18 17 16 17 17 17 17 17 17 16 15 14 15 16 19 21 22 24 26 28 31 33 35 39 41 44 45 47 49 52 53 52 49 45 42 39 36 35 34 33 33 30
15 15 14 16 16 17 16 15 14 13 12 13 13 15 17 18 20 22 24 26 29 32 35 37 37 40 42 46 48 49 50 50 48 46 42 39 36 35 33 31 30 29 30
11 13 14 14 15 15 14 12 11 11 11 12 14 15 16 18 20 22 24 27 31 34 36 38 39 41 43 46 48 49 48 47 45 42 38 36 34 33 29 29 28 29 30
11 11 12 13 11 11 10 10 9 9 11 12 13 15 17 18 20 23 26 30 33 35 37 39 41 44 46 49 49 49 48 46 44 41 38 35 33 31 29 26 25 26 28
11 12 11 10 10 9 9 8 9 9 10 12 13 15 17 19 22 25 28 31 34 36 38 42 44 48 50 50 50 49 47 45 44 42 37 32 30 27 25 24 24 26 28
12 12 12 11 10 9 8 9 9 9 10 12 14 15 18 20 23 26 29 32 34 36 40 42 45 46 48 48 48 46 43 42 41 38 32 29 28 27 25 25 25 26 26

GFSMW_700_spd_048.txt.gz
Wind_Speed
41 46 54 55 53 49 45 40 37 34 31 28 31 31 33 33 32 33 29 27 23 22 16 18 15 21 16 14 15 17 21 24 26 28 28 28 27 28 27 28 29 30 31
38 39 46 54 56 55 50 46 42 39 35 32 32 34 34 33 32 31 29 29 26 20 19 22 17 18 15 14 17 20 23 25 27 28 28 28 29 28 28 29 31 31 32
40 39 40 47 54 57 56 51 46 42 36 33 34 34 32 33 33 32 31 30 26 22 22 20 18 18 18 15 19 22 24 27 28 29 29 31 32 32 31 31 32 32 33
34 40 40 42 48 55 57 54 50 45 40 34 33 32 32 31 30 31 31 28 25 20 19 21 20 17 17 17 21 24 26 29 30 30 30 32 33 35 36 35 36 36 36
30 30 36 41 43 46 53 53 51 47 39 35 34 32 30 29 28 28 29 28 25 24 22 19 16 17 17 19 23 26 28 31 31 31 32 34 35 37 39 39 36 38 40
20 30 30 38 43 43 48 47 48 42 37 35 35 32 27 24 24 27 27 25 22 22 23 20 18 18 19 22 25 28 30 33 33 34 35 36 37 38 41 43 43 44 42
22 22 30 36 42 44 47 46 43 40 37 37 35 30 27 25 24 25 24 23 22 22 19 19 18 19 21 24 28 30 33 34 35 36 37 38 38 39 41 44 47 49 51
26 27 29 36 41 44 46 47 43 41 38 37 35 30 26 24 25 23 23 23 25 25 22 19 19 22 23 27 30 33 35 37 37 38 38 39 40 41 42 45 50 54 55
21 21 26 36 40 45 47 47 45 42 37 37 34 29 26 23 23 25 20 23 23 20 19 20 22 23 27 30 33 35 38 38 38 39 40 40 41 43 45 47 50 55 62
39 36 31 31 40 41 46 49 47 41 37 35 31 27 25 24 26 20 26 24 22 20 21 22 23 26 30 32 35 37 39 39 40 40 40 42 43 45 48 50 53 55 59
42 37 34 35 37 41 47 49 48 42 36 34 30 26 24 24 22 26 25 23 22 22 22 23 25 29 32 34 37 39 39 40 40 41 42 44 46 47 50 52 55 57 58
30 39 34 36 41 41 47 49 45 40 36 33 29 26 24 23 25 27 25 23 22 22 23 25 28 31 34 36 38 39 40 40 41 42 44 46 47 49 52 55 56 57 58
10 27 40 36 40 41 45 47 43 39 33 30 27 25 23 24 26 24 24 22 22 23 24 27 31 33 35 38 39 39 40 40 42 44 45 46 49 52 54 55 57 57 57
15 28 35 35 40 40 45 46 41 36 30 27 26 23 24 25 24 24 22 22 22 24 26 30 32 34 37 39 39 40 40 41 43 44 46 48 51 53 54 56 56 57 56
21 25 32 33 40 42 45 41 37 31 27 25 24 23 25 25 23 22 22 22 23 26 28 31 33 36 37 38 39 40 40 42 43 45 48 51 52 52 53 54 54 53 52
23 24 27 33 40 41 40 36 32 28 25 24 23 24 24 22 22 21 21 23 25 27 31 32 34 36 37 37 38 40 42 43 45 48 50 52 52 52 52 52 50 48 46
21 25 29 34 37 36 32 30 27 25 25 24 23 22 22 21 20 20 22 24 26 30 30 32 33 35 35 36 39 41 42 44 46 48 50 51 52 52 52 50 48 44 38
22 28 31 34 33 30 28 25 23 22 22 22 22 21 20 19 19 21 23 27 27 27 30 31 32 33 35 37 40 41 43 46 48 49 50 50 51 49 48 47 43 40 36
29 30 29 27 27 25 23 22 22 21 21 21 20 18 18 18 20 22 25 25 25 28 29 30 31 33 36 38 40 43 46 48 49 49 49 50 49 46 43 41 40 38 32
25 25 25 23 22 22 21 21 20 21 21 19 17 16 17 18 21 22 21 24 25 27 28 30 32 35 37 39 41 44 48 50 50 49 48 45 44 41 38 38 38 35 31
20 21 21 20 20 20 21 21 21 19 17 15 15 15 17 18 18 19 21 23 24 25 28 31 34 37 38 40 44 46 48 49 50 49 46 43 41 38 35 34 33 33 30
17 19 18 19 20 22 22 20 18 16 14 13 14 15 15 15 17 19 20 22 24 27 29 31 34 36 39 43 45 46 47 48 48 46 43 41 39 35 32 31 30 28 29
14 19 19 21 22 21 18 14 12 11 11 12 14 13 13 15 17 19 21 23 26 28 31 32 34 36 40 43 45 45 46 46 45 43 40 38 35 30 29 28 27 28 29
13 15 17 18 17 17 16 15 12 12 12 13 11 11 13 15 17 19 22 24 27 30 32 34 37 39 42 45 46 46 48 47 44 42 39 36 30 27 26 25 26 28 30
14 14 14 14 13 11 11 12 12 11 10 9 10 12 14 16 18 20 23 26 29 31 33 36 39 42 45 46 47 48 46 45 43 40 37 31 26 24 24 25 26 27 28
13 13 14 13 11 9 10 9 8 8 8 9 12 13 15 17 19 22 26 28 30 33 35 38 42 43 45 47 47 46 42 42 40 37 32 27 26 25 25 25 24 26 26

GFSMW_700_spd_051.txt.gz
Wind_Speed
35 40 45 54 56 54 51 49 47 41 38 36 34 30 30 33 33 30 29 27 29 30 28 18 18 20 21 19 16 16 16 18 20 23 26 27 27 27 27 28 29 30 31
37 38 40 46 56 60 57 53 51 47 42 39 36 33 36 34 33 32 30 29 29 28 25 21 22 23 21 16 16 16 17 19 22 25 28 30 30 27 28 29 30 32 33
39 38 39 40 46 56 60 59 56 52 47 44 41 42 37 32 33 32 31 30 30 29 28 25 22 23 16 17 18 18 18 21 23 26 30 31 31 31 31 32 32 34 34
29 34 42 42 44 47 53 60 61 57 53 49 46 43 36 34 32 32 31 30 29 31 31 25 23 25 27 16 21 19 20 23 26 28 31 32 32 34 34 35 37 39 39
26 29 34 38 46 44 49 53 61 61 58 53 51 44 40 35 34 32 31 29 30 31 29 25 27 23 19 18 19 19 22 25 28 31 33 34 34 36 37 37 37 39 39
19 21 31 33 41 47 50 52 54 58 62 59 52 46 43 34 33 31 30 29 29 30 28 26 29 23 19 19 19 22 24 27 31 34 36 37 37 38 40 42 41 42 39
21 24 24 31 36 43 50 51 49 52 57 56 55 49 39 34 32 30 28 26 27 28 27 26 24 19 23 20 22 24 27 31 34 36 38 38 38 39 40 43 43 45 44
21 25 27 28 34 38 43 51 47 49 50 51 49 47 37 35 32 29 28 27 27 27 27 27 24 23 22 22 24 27 31 34 36 39 40 39 39 40 41 43 46 49 49
16 16 16 23 29 34 36 43 45 48 45 46 45 39 37 32 30 28 29 28 26 25 26 25 26 21 22 24 26 30 34 37 39 41 41 40 41 41 42 44 46 51 56
31 33 33 27 29 31 35 37 43 47 43 43 39 36 35 30 28 28 26 23 27 23 27 23 21 22 24 26 30 33 36 38 41 42 41 41 41 42 44 46 48 51 56
36 42 40 44 35 30 33 38 43 49 46 43 37 34 31 29 28 27 24 30 26 23 25 23 22 23 25 29 32 36 38 41 42 41 41 41 42 43 46 48 51 54 56
48 52 46 37 38 34 35 39 45 49 47 41 35 31 29 27 27 25 31 26 25 26 24 23 24 25 28 31 35 37 40 42 40 40 41 42 44 46 48 51 53 55 56
31 27 26 33 33 41 35 37 44 48 45 38 32 30 27 25 26 26 22 28 24 24 24 23 25 27 30 33 36 39 41 40 39 41 42 44 45 47 50 53 54 55 56
12 16 16 32 36 36 35 36 42 44 41 35 32 29 25 25 24 23 26 25 24 23 23 24 27 30 32 35 37 40 39 39 40 41 43 45 47 49 51 53 54 55 56
8 9 17 25 31 31 34 35 39 40 36 33 30 27 24 23 22 26 24 24 23 23 24 26 29 31 34 36 38 38 38 39 40 42 44 46 49 51 52 53 54 53 52
7 9 17 24 28 29 30 32 38 36 33 30 26 23 21 22 26 23 22 22 22 23 25 28 30 33 34 36 36 37 38 40 41 42 45 48 50 51 53 53 52 49 47
10 11 16 19 20 23 28 33 35 32 31 25 23 22 23 23 21 21 21 21 23 25 26 29 31 32 33 35 36 37 39 40 41 44 47 49 50 51 52 51 48 45 41
7 11 17 21 24 27 31 33 30 27 26 23 25 23 21 21 21 20 20 22 24 25 27 28 30 31 32 34 36 38 39 41 44 46 47 49 50 50 49 48 46 44 39
13 16 21 25 28 29 30 29 27 28 27 26 22 20 21 19 18 19 21 23 24 25 25 27 29 30 33 34 36 37 41 44 46 47 48 49 51 50 47 46 44 40 35
19 21 24 25 26 27 27 29 27 23 26 21 20 18 17 16 17 21 22 21 21 23 25 26 28 30 33 34 36 39 42 46 48 48 48 47 46 45 44 43 40 37 33
17 21 23 24 25 25 22 21 19 19 18 16 15 14 15 18 20 18 17 19 21 23 24 27 29 32 33 35 38 42 44 47 49 48 47 45 44 42 40 37 33 33 33
13 13 14 15 16 17 17 16 15 14 13 13 15 16 16 17 15 15 17 19 21 23 25 28 31 33 35 38 40 42 45 47 49 48 45 42 41 39 34 30 30 30 31
16 16 15 14 15 16 15 12 12 13 13 14 14 14 15 13 14 15 17 19 21 24 27 29 31 33 36 40 43 45 46 46 46 45 42 40 38 33 28 28 29 29 30
14 13 14 14 13 14 16 16 13 12 12 12 13 12 11 12 14 16 18 20 23 26 28 30 32 34 38 42 44 45 46 46 45 43 40 38 32 27 27 26 27 28 29
16 16 16 16 17 17 17 15 13 11 11 11 9 10 11 13 15 17 20 22 25 27 29 31 34 38 41 43 45 46 46 45 44 42 38 34 27 24 24 26 27 28 29
15 15 15 16 14 13 13 12 9 9 8 8 9 10 12 14 16 19 21 24 26 28 31 34 37 40 43 45 47 46 43 42 41 38 35 29 26 25 26 26 25 26 28

GFSMW_700_spd_054.txt.gz
Wind_Speed
31 33 36 42 51 51 47 50 50 48 42 41 39 37 33 37 34 31 28 28 22 23 23 25 25 23 22 20 22 21 24 19 17 17 19 20 23 24 26 26 28 28 28
31 33 34 35 43 53 57 52 53 53 50 45 42 39 36 37 32 30 27 28 27 23 23 26 26 24 23 26 31 27 18 18 18 19 21 24 25 25 28 28 29 30 31
35 36 36 38 37 43 55 60 59 53 55 49 46 45 42 41 35 31 27 27 27 25 26 26 25 27 24 23 23 25 18 19 20 22 24 27 28 30 31 31 32 33 34
26 32 37 38 39 40 40 51 61 58 55 55 52 49 46 42 36 33 30 28 27 27 27 27 28 28 28 24 27 24 17 22 23 23 25 28 31 33 34 34 35 36 36
22 26 28 36 40 36 38 41 46 54 55 59 58 55 50 46 39 35 32 30 28 28 29 29 29 29 27 28 24 18 18 20 21 24 27 30 33 36 38 38 35 36 37
20 22 24 28 34 43 43 42 41 44 47 54 62 59 55 48 43 38 35 32 31 31 31 32 30 28 31 29 27 21 20 22 24 27 30 33 36 39 41 43 40 40 36
23 23 25 27 26 33 42 48 45 42 42 50 56 60 57 50 44 40 36 33 31 30 30 30 31 30 28 25 23 22 21 24 26 29 33 36 39 41 42 43 43 44 41
23 27 30 34 34 30 31 36 47 43 44 48 50 52 55 51 47 43 38 34 32 30 27 29 29 29 29 24 24 23 23 26 29 32 36 38 40 42 42 42 45 46 45
23 24 24 21 28 35 32 30 36 51 47 47 46 48 47 42 45 43 38 35 31 27 29 29 27 24 29 24 24 24 25 28 32 35 38 40 42 41 42 42 44 48 52
22 24 28 30 28 28 30 29 26 30 39 48 46 45 41 35 36 37 35 32 30 26 24 26 28 24 29 26 24 25 28 32 35 38 40 42 42 42 42 43 44 46 50
38 42 41 39 39 38 36 36 34 27 33 43 46 39 33 36 37 35 32 30 27 26 24 23 30 27 24 24 25 27 31 35 38 40 41 42 42 42 43 44 45 47 50
49 47 47 50 51 56 46 37 34 33 37 39 38 31 32 35 34 32 31 28 24 25 23 26 22 23 24 24 27 30 33 37 40 41 42 41 42 42 44 46 48 50 52
37 34 27 27 36 41 41 38 36 40 39 33 33 32 31 31 31 30 29 29 31 25 24 24 23 24 24 26 29 32 36 39 41 41 41 41 42 43 45 47 50 52 53
25 22 20 31 20 22 35 42 38 33 32 32 35 34 30 30 29 27 24 27 25 25 24 23 22 25 26 28 31 35 38 39 40 40 41 42 43 45 48 50 52 53 54
21 18 16 6 17 30 38 35 34 26 29 34 35 32 28 28 26 22 28 25 25 21 21 23 24 25 27 31 34 37 38 38 38 39 41 42 44 47 50 52 54 55 54
15 12 5 10 19 31 26 33 25 23 28 33 31 29 28 26 26 22 21 22 27 22 21 21 24 26 29 34 35 36 36 37 38 39 40 43 45 47 50 52 52 50 48
7 6 4 8 16 20 22 23 23 26 30 29 28 28 27 24 20 23 26 18 19 20 20 22 25 29 33 33 33 34 36 37 38 40 42 44 46 48 51 52 50 46 43
5 3 4 7 12 14 20 22 27 28 29 27 25 26 21 21 27 21 16 18 18 19 21 24 30 30 29 31 33 34 36 37 39 41 43 46 49 50 51 51 48 45 41
5 5 10 13 14 20 23 26 27 28 31 29 24 21 28 22 16 15 16 17 17 20 25 27 26 28 29 30 33 35 36 38 40 42 44 47 49 49 49 48 46 43 36
3 6 13 18 22 25 29 30 24 29 25 18 28 27 18 15 14 14 14 17 21 23 22 24 25 27 30 32 33 34 37 40 42 43 45 45 46 46 44 44 43 38 31
10 14 17 19 21 23 27 29 29 28 25 25 18 11 11 12 12 14 16 18 18 19 21 23 25 28 30 31 33 35 39 42 44 46 47 45 44 43 41 39 34 32 31
15 12 16 13 15 17 20 16 17 13 10 10 11 12 11 10 11 14 15 15 17 19 21 24 26 29 30 32 35 38 41 44 48 48 46 44 43 41 37 32 30 30 30
10 15 14 15 13 14 16 12 13 12 9 7 7 6 6 9 12 12 14 16 18 20 23 25 26 28 31 34 37 40 43 46 47 46 44 42 40 37 31 27 28 29 30
6 10 12 12 13 14 14 13 9 6 3 3 3 5 9 10 11 12 14 16 19 21 24 25 27 30 34 37 40 42 44 46 45 43 40 39 37 31 27 26 26 28 30
4 3 5 7 7 8 8 7 5 3 3 5 8 7 8 9 11 14 15 17 21 23 25 27 30 33 36 39 42 45 47 47 46 44 41 38 32 25 23 23 25 27 29
9 5 7 9 6 4 3 4 5 7 7 6 6 7 9 11 13 15 17 20 22 25 27 30 33 36 39 42 45 46 44 43 43 41 39 33 27 24 24 24 23 25 28

GFSMW_700_spd_057.txt.gz
Wind_Speed
23 27 29 32 38 42 48 46 45 45 46 45 38 35 34 32 32 31 27 27 23 21 22 21 20 20 21 21 21 19 21 28 27 24 18 17 19 20 21 22 24 25 26
28 29 31 32 33 36 45 47 43 44 46 48 43 40 37 36 33 35 30 27 22 19 21 23 22 21 21 21 24 23 25 25 24 26 26 21 20 22 23 25 27 28 29
27 30 32 35 36 36 41 47 46 42 44 46 49 46 43 41 38 37 31 27 22 19 21 24 22 21 23 24 25 26 21 26 25 24 21 25 25 26 25 27 29 31 33
18 22 27 35 37 38 37 47 50 50 45 46 49 52 49 46 43 39 34 29 27 25 23 25 24 24 25 25 26 27 24 23 22 24 22 24 24 26 29 30 33 34 35
13 15 18 24 28 37 39 39 47 55 53 50 51 53 52 47 44 41 37 34 29 27 24 26 27 28 28 28 26 33 30 19 21 25 24 24 27 29 32 32 34 35 36
18 19 19 19 20 27 39 39 42 43 53 61 58 56 57 52 47 44 40 37 33 30 27 28 29 31 31 30 29 28 28 31 21 24 24 27 30 33 36 38 38 38 34
24 24 24 24 26 27 28 39 42 43 43 44 53 58 57 55 50 46 43 38 34 30 30 29 31 33 32 29 28 32 24 28 25 26 27 30 33 36 39 41 42 43 39
17 23 27 29 32 34 31 32 33 50 42 46 47 43 50 48 50 47 44 40 37 34 33 33 33 30 29 29 33 29 33 24 26 27 30 33 36 39 42 43 45 45 44
20 23 27 28 28 26 27 27 26 32 51 45 46 46 44 45 44 40 41 40 37 36 36 35 33 27 28 32 32 25 25 25 27 29 32 35 38 41 42 43 44 47 49
23 23 26 27 30 35 32 33 30 24 32 52 47 50 47 41 39 38 37 37 38 40 39 35 29 24 28 34 22 30 25 24 29 32 35 37 40 42 43 43 44 45 48
34 38 40 41 42 43 45 40 36 28 28 38 50 50 44 39 34 34 33 38 37 34 34 31 25 24 29 27 26 26 26 30 32 34 37 40 41 42 43 43 43 44 47
35 39 43 39 42 48 57 48 39 39 35 31 34 44 42 38 34 32 35 35 33 32 29 27 30 26 24 27 28 23 29 30 35 37 40 41 42 42 43 43 44 46 48
41 30 27 29 31 36 37 40 52 49 43 34 26 35 30 31 31 33 33 31 32 29 33 26 24 23 29 28 20 26 30 33 36 39 42 41 41 42 42 43 45 47 49
32 23 21 24 24 24 35 27 38 40 36 30 26 31 29 29 30 30 31 31 27 31 22 29 29 24 26 20 24 29 31 33 39 42 41 40 41 42 43 46 48 50 52
22 19 22 23 16 11 14 29 33 36 29 29 28 29 29 28 27 29 27 25 30 22 28 25 26 26 21 20 27 30 32 39 38 39 39 39 40 42 45 48 50 53 54
17 14 17 15 11 6 6 13 30 29 26 25 24 28 29 28 27 29 30 32 25 23 23 28 20 16 19 25 29 34 36 35 36 37 38 39 41 44 46 48 52 53 51
13 10 11 8 10 2 10 14 15 15 21 24 26 27 29 31 31 30 30 28 22 22 21 15 14 19 24 29 33 32 33 34 36 37 38 40 43 45 48 51 52 50 45
10 8 6 4 3 6 8 9 17 19 22 25 26 28 31 34 29 26 23 26 19 15 10 13 19 24 29 29 29 31 33 34 35 37 40 42 45 48 51 52 51 49 44
9 7 5 6 5 7 13 18 22 22 26 25 25 26 33 24 23 28 21 13 7 10 15 19 24 25 25 26 29 31 33 34 35 38 41 44 47 48 49 49 48 46 41
9 5 5 3 5 8 11 17 23 25 30 33 30 29 23 22 20 12 3 5 10 14 19 20 20 23 25 27 29 31 32 34 37 38 41 44 47 48 46 47 46 44 39
3 6 4 3 7 10 14 21 22 19 27 28 24 20 21 14 9 3 7 9 14 16 15 18 20 22 25 28 29 32 34 37 39 41 45 46 47 45 44 43 41 38 33
2 4 5 6 4 6 10 8 9 17 20 20 17 11 9 6 3 5 8 11 11 13 16 19 22 25 27 29 30 33 36 40 44 46 47 46 45 44 42 39 35 31 31
9 13 12 12 17 15 19 22 21 20 17 13 10 7 4 3 4 6 8 10 12 14 17 21 23 25 27 29 32 34 38 42 45 45 44 43 42 40 36 31 28 29 30
7 8 10 13 16 18 17 15 14 13 11 9 6 5 2 4 5 7 9 11 14 17 20 22 23 25 28 31 34 37 40 43 43 41 39 40 39 36 30 26 26 28 29
5 8 10 10 11 13 13 13 12 11 10 7 4 3 3 5 6 8 11 14 17 19 20 22 25 27 30 34 38 41 43 45 44 42 41 39 35 27 22 22 24 25 27
3 2 3 8 9 10 12 12 10 7 5 3 2 3 5 7 8 11 13 16 18 19 22 24 27 31 34 38 40 41 40 41 41 41 41 37 29 22 21 21 20 24 25

GFSMW_700_spd_060.txt.gz
Wind_Speed
24 32 42 51 52 52 50 47 45 45 43 40 41 37 35 34 31 29 27 23 22 21 20 20 21 19 17 17 17 18 19 19 20 23 24 23 21 20 20 22 22 22 23
26 26 29 33 41 47 51 51 52 47 47 45 44 43 39 36 34 33 32 28 24 22 20 19 20 21 20 18 19 20 21 20 22 24 26 25 25 30 25 24 24 26 27
30 30 33 34 35 35 36 38 46 51 47 45 43 44 42 40 39 36 37 32 25 24 21 19 21 22 23 22 22 21 21 23 22 25 24 23 24 27 26 26 26 28 30
22 27 34 37 36 37 38 37 38 48 54 46 44 46 48 45 42 39 39 38 31 27 25 22 21 23 25 26 26 23 24 25 24 26 24 27 24 27 28 27 30 32 34
18 18 19 23 29 36 39 41 41 42 48 53 50 47 47 47 42 40 40 41 36 32 28 25 22 23 26 30 28 26 27 28 28 28 28 22 26 28 29 29 31 33 36
11 13 15 15 18 22 29 37 42 44 47 51 55 54 54 45 45 43 41 40 39 36 32 27 26 25 28 29 30 30 30 28 30 29 25 27 27 30 31 33 34 36 36
15 15 15 14 16 18 20 22 29 39 45 48 57 56 53 49 46 45 43 42 40 38 34 32 30 27 29 31 33 32 32 31 28 28 32 28 30 32 34 37 40 42 40
13 18 22 24 24 26 25 24 27 31 32 42 47 54 55 54 45 47 47 43 43 43 39 34 31 29 32 34 35 31 32 30 28 33 26 28 32 34 36 40 44 46 46
18 20 21 24 27 29 29 31 31 29 33 40 41 49 48 47 43 43 46 47 44 41 40 36 33 33 35 34 28 28 30 32 31 33 27 29 35 37 40 43 47 48 51
20 23 27 30 34 37 39 39 40 39 34 32 37 40 48 46 45 41 40 41 38 38 39 37 36 37 32 28 31 27 30 37 29 25 24 32 37 38 41 46 47 47 49
31 32 35 41 45 46 46 46 47 46 43 40 31 34 38 43 44 41 37 36 36 35 36 37 39 35 29 25 29 29 32 32 27 24 30 35 38 40 44 47 47 47 48
36 33 35 40 31 32 37 44 53 54 51 46 34 28 31 38 38 38 36 35 33 34 36 38 36 32 27 28 30 29 32 35 27 27 33 36 40 44 47 46 46 46 47
26 27 28 23 29 34 35 35 33 46 54 48 45 33 26 33 37 37 37 35 32 34 34 33 34 27 36 32 36 30 29 29 25 29 33 38 45 45 44 45 45 46 48
26 26 19 22 23 25 26 27 33 32 46 39 36 33 27 29 32 39 41 36 33 32 32 32 31 35 26 30 34 28 26 25 27 32 36 43 42 42 43 44 45 48 49
29 21 17 18 15 15 12 12 11 21 23 40 32 35 28 31 28 29 35 32 34 30 34 35 40 33 29 29 23 20 22 27 31 36 38 40 41 42 43 45 47 49 52
25 16 16 14 13 15 10 11 5 13 23 29 28 24 26 28 24 28 28 32 33 32 38 34 35 29 21 16 17 22 27 30 34 34 37 39 40 41 43 45 48 52 55
24 16 14 12 13 10 8 7 3 13 22 27 30 20 22 28 29 32 30 38 28 31 37 30 20 14 13 18 22 25 30 30 31 34 37 38 39 42 44 48 52 53 53
19 15 11 8 10 8 2 5 5 5 5 9 14 16 22 27 32 28 35 33 30 29 23 14 10 13 17 22 25 26 27 29 32 35 37 38 40 43 47 51 53 52 49
16 11 9 6 8 7 5 4 3 6 8 12 15 18 24 25 24 28 27 25 18 14 6 6 11 16 21 23 24 26 28 31 33 34 38 41 43 47 49 52 52 50 46
11 6 6 6 5 6 4 5 9 13 13 12 16 19 23 15 25 21 20 12 7 5 6 9 15 19 19 22 24 26 28 30 32 35 38 42 46 48 49 49 49 48 44
6 4 4 5 5 2 2 2 3 9 11 12 10 16 23 18 16 13 8 5 3 5 9 12 14 17 21 23 25 27 30 32 34 37 40 44 46 46 45 45 45 43 39
13 2 2 2 3 2 0 7 10 6 7 9 17 19 16 14 10 7 4 3 4 7 10 13 16 19 21 23 26 29 33 36 38 41 44 46 45 44 44 42 40 34 30
10 12 5 5 9 15 18 10 14 18 21 19 17 14 11 7 5 2 1 3 5 9 12 15 18 20 23 25 28 31 35 38 41 44 45 45 44 43 41 36 30 28 28
11 12 12 11 14 18 18 19 19 18 16 14 12 10 7 3 1 1 3 5 8 12 15 17 20 22 25 28 30 34 37 40 42 42 41 42 42 40 34 26 25 26 27
6 10 12 14 14 15 17 17 16 14 12 11 8 6 4 1 1 3 5 8 11 14 17 19 22 25 27 30 33 37 40 43 43 42 42 40 36 30 22 20 22 24 25
5 6 11 12 13 14 14 14 12 11 9 7 6 4 2 3 4 6 9 12 15 16 19 21 24 27 30 33 37 40 42 44 44 42 41 36 31 22 18 17 18 22 23

GFSMW_700_spd_063.txt.gz
Wind_Speed
40 44 43 47 50 50 50 46 43 42 42 41 39 37 33 32 32 29 25 25 26 26 23 21 20 22 21 21 21 20 18 19 18 18 20 24 23 22 22 23 28 29 25
33 35 36 37 42 49 56 55 51 47 46 45 45 44 39 36 34 32 30 29 29 28 25 22 21 21 23 24 22 21 21 20 20 20 22 23 24 24 24 25 23 24 24
30 31 33 33 35 38 40 52 55 53 50 47 44 46 45 44 41 38 35 32 33 31 27 24 23 23 22 24 24 24 24 22 22 23 25 25 26 26 27 25 25 26 27
33 32 34 36 38 38 35 38 42 48 55 58 60 54 51 49 43 36 34 34 35 33 29 26 26 25 23 24 25 27 26 27 26 25 26 27 27 28 29 26 27 29 30
17 21 23 28 34 38 39 40 41 40 42 43 51 55 53 51 45 41 36 37 39 37 33 32 30 28 27 24 26 28 30 31 30 30 28 27 29 28 27 29 30 31 32
14 16 17 18 20 23 30 36 40 42 43 43 43 47 51 51 47 45 42 40 38 35 34 35 33 31 29 26 26 28 33 35 32 32 34 31 29 28 32 31 33 33 34
13 15 16 17 18 20 22 25 29 33 41 45 45 46 48 46 45 46 45 42 39 37 36 35 35 35 31 29 29 32 35 33 33 33 35 31 30 33 34 33 34 36 36
11 14 17 19 21 22 25 27 28 29 31 36 42 47 48 46 47 42 43 43 42 38 40 39 37 36 35 33 31 32 36 35 36 36 35 34 33 34 34 33 36 39 42
16 18 20 21 22 23 25 27 28 30 32 34 37 39 42 46 44 45 47 47 44 41 42 41 40 39 40 37 34 33 35 37 27 36 37 35 36 35 33 35 38 41 47
23 25 26 27 29 32 34 36 39 40 39 38 35 34 39 43 41 44 40 39 40 44 45 43 41 40 39 38 36 34 40 32 33 34 36 40 33 33 33 38 40 43 48
27 32 34 36 38 40 43 45 48 49 52 48 43 37 35 32 34 36 41 38 38 38 38 38 37 37 38 38 36 38 35 36 38 34 33 36 37 32 35 38 44 46 49
35 36 34 33 32 35 37 33 34 37 41 52 51 46 36 28 26 29 37 37 36 36 34 35 36 36 38 35 40 37 38 36 37 38 32 34 34 35 37 40 47 46 45
26 24 26 28 30 27 29 33 37 37 35 37 46 44 39 33 25 24 32 34 35 34 33 36 37 36 34 39 37 39 41 42 37 30 27 32 33 36 40 44 44 44 45
22 23 25 19 18 24 27 31 30 29 26 31 32 38 32 26 25 25 29 32 33 35 34 33 33 34 38 36 38 43 38 40 34 27 27 30 33 39 42 41 42 43 46
22 26 22 14 18 22 26 18 20 19 16 17 25 33 31 25 26 26 25 31 33 34 33 34 32 35 34 40 36 40 31 24 24 25 28 34 36 38 39 41 42 45 48
22 25 18 14 16 17 14 14 14 9 6 14 25 33 26 22 25 24 21 26 27 30 34 30 35 37 36 44 40 34 21 22 24 27 32 32 35 38 39 41 44 46 49
20 22 18 13 12 10 9 8 12 4 1 3 21 28 20 20 15 16 22 23 18 23 32 32 40 38 28 29 17 17 22 24 26 28 31 33 35 38 40 42 44 48 51
20 19 16 12 8 6 4 6 8 7 7 9 12 13 19 12 13 17 18 23 25 31 31 34 24 23 17 14 16 20 23 22 26 29 31 33 36 38 40 44 47 51 50
20 13 13 8 3 5 5 4 4 3 4 1 3 6 8 13 16 9 21 17 25 18 22 14 11 10 10 13 18 19 21 24 27 30 33 36 37 38 42 47 50 50 49
15 8 8 6 5 5 5 5 2 2 5 8 8 9 11 6 6 13 20 14 13 14 10 9 8 9 12 13 16 19 22 26 28 31 34 37 40 43 46 49 50 51 49
6 4 4 6 8 8 5 6 8 9 9 8 7 7 3 5 2 12 17 13 11 7 3 5 7 9 12 15 18 21 24 26 28 31 35 39 43 45 47 48 49 47 43
8 3 1 2 5 1 4 7 9 7 5 8 8 15 19 18 16 13 10 7 3 1 3 5 8 11 15 19 21 24 26 29 32 35 39 43 45 45 46 45 43 38 31
12 8 9 10 8 3 6 6 8 17 20 21 18 17 16 13 10 7 5 3 1 2 5 9 12 15 17 20 23 26 30 33 37 40 44 45 45 45 43 38 34 27 24
11 14 12 13 17 22 25 21 21 22 18 15 13 12 10 7 6 4 3 3 4 7 10 11 13 16 19 23 26 30 34 38 41 43 44 44 43 41 37 30 25 23 23
7 11 14 13 13 17 19 17 16 16 14 12 9 8 7 6 4 3 3 5 7 10 12 14 17 20 23 27 31 34 38 41 44 45 44 40 36 32 27 21 20 21 22
2 8 10 10 11 11 13 12 11 10 9 8 7 7 5 3 2 4 7 9 10 12 14 17 20 23 27 31 34 38 41 45 46 44 41 36 30 25 17 14 16 19 21

GFSMW_700_spd_066.txt.gz
Wind_Speed
43 46 48 47 45 44 42 43 42 40 38 37 36 32 30 28 28 28 25 25 25 24 23 22 22 22 21 22 24 24 23 22 22 21 19 19 20 20 20 22 22 24 25
30 35 42 49 53 54 54 49 47 46 44 43 42 41 36 35 32 30 30 30 30 27 26 25 24 24 24 25 26 25 24 24 24 22 22 23 23 21 23 23 25 25 25
32 34 38 41 46 50 46 50 55 53 50 50 50 48 46 44 41 36 34 32 31 29 29 28 27 27 27 26 26 26 26 25 26 25 25 26 25 26 26 27 26 27 25
31 33 35 37 40 45 46 43 43 43 45 51 55 54 52 49 46 42 36 35 37 35 33 31 31 30 30 29 26 25 27 27 27 28 30 30 29 28 29 29 28 26 27
19 21 24 30 34 37 38 39 38 37 35 38 50 55 57 54 50 49 48 45 39 35 32 32 31 32 33 30 28 29 28 31 31 30 30 32 32 31 32 33 26 29 32
11 13 13 15 21 27 33 38 40 40 39 39 40 41 43 47 50 51 52 49 46 43 39 36 34 35 35 34 31 30 30 30 33 25 32 31 33 31 31 33 35 31 34
10 9 10 11 13 14 15 19 24 32 39 41 43 44 43 42 40 38 43 47 47 43 40 37 34 31 30 34 35 35 31 30 31 26 32 34 36 37 31 38 36 35 36
8 10 13 14 15 18 20 21 22 22 26 29 35 41 43 44 43 40 42 41 43 44 41 40 39 37 36 34 35 36 35 33 33 33 35 33 37 37 32 42 37 36 37
13 16 17 19 20 20 21 21 23 23 25 27 28 30 33 35 39 42 43 43 42 43 40 41 41 39 39 37 36 37 37 37 38 36 33 35 35 41 33 41 36 36 39
18 21 23 25 28 30 30 30 31 31 32 35 37 36 35 35 35 36 38 39 42 43 43 42 40 41 40 38 38 39 41 39 40 38 37 39 36 44 37 38 40 39 40
20 23 26 31 35 34 33 33 34 35 38 40 42 42 42 40 36 33 33 35 38 40 42 40 39 41 42 40 40 40 41 41 41 42 43 39 41 48 42 38 37 35 39
25 27 32 30 28 29 29 32 34 35 32 33 37 40 40 40 38 33 32 31 32 37 38 38 35 34 36 39 40 40 40 43 40 45 45 41 43 42 38 37 34 36 40
28 34 28 28 29 29 29 29 30 33 35 34 34 36 38 40 38 33 27 24 31 35 38 37 35 33 35 37 37 36 35 39 39 37 43 41 39 37 34 31 34 39 41
32 23 21 24 24 22 22 26 30 29 26 26 29 27 30 33 34 28 31 27 24 31 34 34 33 33 34 34 35 37 40 44 32 46 40 42 34 30 32 34 35 37 40
18 17 22 21 16 18 21 22 21 18 20 22 22 22 24 29 30 27 26 25 23 27 29 31 32 33 32 31 34 39 46 33 32 32 27 26 27 31 32 34 34 37 40
17 19 22 18 15 17 19 18 16 15 16 17 15 12 16 24 26 26 25 20 20 22 22 26 33 28 31 34 36 34 34 28 25 21 27 28 26 28 31 34 35 39 41
18 18 21 17 13 14 17 14 11 11 5 3 2 6 17 25 23 19 19 16 16 21 21 28 34 29 31 30 34 22 24 21 20 23 23 25 28 30 32 34 37 39 43
17 16 17 14 9 12 15 13 6 3 2 3 4 10 14 16 11 17 16 10 16 15 15 19 21 23 21 23 16 17 19 18 18 20 22 25 28 30 33 37 40 42 44
15 16 12 11 7 9 12 7 4 2 5 3 4 2 6 13 9 7 9 13 13 16 10 16 17 17 12 11 16 17 13 15 18 22 24 27 30 33 37 41 44 44 44
13 10 6 7 5 3 3 2 3 3 2 3 4 7 5 4 9 8 1 8 9 4 9 9 10 9 10 12 9 13 15 18 21 25 27 31 33 36 40 43 45 46 45
13 9 5 3 4 1 2 6 11 12 8 6 6 6 6 5 8 7 5 9 11 10 7 6 3 3 6 8 11 14 17 19 23 26 29 33 37 39 42 44 45 44 40
10 5 6 6 7 5 1 9 9 9 11 15 14 15 18 18 16 14 11 7 6 4 2 0 2 4 8 10 13 16 19 22 25 29 34 37 41 44 44 44 42 39 33
7 1 0 2 6 8 7 6 9 18 21 22 21 19 17 14 11 8 6 4 5 2 1 3 6 9 11 13 16 20 23 27 32 36 40 43 44 44 42 39 35 30 22
4 5 5 6 12 15 17 22 19 19 18 17 15 13 11 9 8 6 4 3 1 3 6 8 9 11 14 17 21 26 30 34 37 39 42 44 44 42 37 31 26 19 17
2 7 8 8 11 16 17 17 16 14 13 12 10 8 7 6 5 3 2 3 5 6 7 8 12 16 20 24 27 30 34 37 40 44 44 41 37 32 28 23 17 16 17
1 5 6 8 8 9 12 12 12 12 10 8 7 6 5 4 2 1 2 4 6 8 11 14 17 20 23 27 31 35 39 42 44 43 41 36 29 21 15 11 13 16 18

GFSMW_700_spd_069.txt.gz
Wind_Speed
37 44 44 44 44 43 42 41 40 37 37 34 32 30 27 26 27 27 27 26 26 26 25 25 25 24 23 24 25 25 25 25 25 23 22 21 22 22 20 22 22 21 21
35 38 45 50 51 50 48 46 44 42 41 39 37 36 32 30 27 29 29 29 29 28 29 27 27 26 26 25 26 26 26 27 28 25 25 25 24 23 22 24 24 25 26
31 35 39 45 51 54 54 52 49 47 46 46 42 42 42 39 37 33 32 31 30 30 31 30 31 30 30 28 27 28 29 29 30 28 28 28 28 24 25 27 26 27 28
27 31 35 39 42 45 48 49 50 52 51 51 54 54 51 47 43 41 38 36 33 32 33 33 32 33 33 33 30 30 29 28 29 30 30 31 35 30 30 28 30 29 30
20 23 27 31 33 36 38 40 39 39 42 43 45 48 51 52 52 49 44 43 41 38 35 34 34 38 37 35 34 34 32 31 30 31 30 36 41 38 28 35 29 32 30
10 11 11 13 16 21 29 33 34 34 36 39 39 39 39 38 42 46 48 49 48 47 46 45 41 38 37 36 35 36 35 34 34 33 32 34 35 29 31 32 31 34 34
8 7 7 8 9 11 13 18 22 26 33 40 43 42 40 39 38 37 39 39 40 42 43 44 43 42 40 38 38 39 38 37 37 35 34 35 33 33 34 36 33 33 35
8 8 8 9 11 13 15 17 20 21 21 23 27 32 37 41 42 41 42 41 40 38 36 43 44 43 41 40 37 34 35 37 39 39 37 38 41 39 37 40 36 39 42
12 11 11 12 13 15 17 18 20 22 24 25 26 29 29 29 28 30 35 38 41 42 42 43 43 42 43 41 40 38 38 38 38 39 42 43 45 43 46 41 38 41 45
13 14 15 16 18 21 23 26 27 27 29 30 31 31 32 33 32 31 32 33 35 38 41 42 42 41 40 42 44 42 39 40 40 41 42 43 45 46 46 43 44 43 46
14 15 18 22 24 26 27 25 26 28 29 32 34 34 35 37 39 39 38 37 36 36 38 39 41 42 40 40 40 41 41 40 41 43 43 44 48 61 57 46 45 42 45
19 21 22 24 27 23 23 24 25 26 27 28 31 32 33 34 35 37 39 37 36 34 33 38 41 42 41 39 39 40 40 40 40 39 42 50 45 58 45 45 40 38 35
22 24 26 28 22 23 26 26 25 23 23 26 29 31 32 31 33 36 38 37 37 33 34 34 37 40 41 38 36 34 34 35 38 40 44 51 49 47 37 34 35 36 33
25 26 26 22 21 23 21 20 20 23 23 23 18 19 22 24 27 30 34 35 32 30 25 32 35 38 38 34 32 32 33 33 36 40 43 38 34 34 30 27 31 34 32
22 23 20 22 19 19 18 19 21 20 18 17 19 20 17 16 17 20 25 26 27 28 29 24 27 33 32 25 30 30 26 32 35 37 38 33 28 27 27 30 29 29 33
17 16 18 21 16 15 15 16 17 16 17 17 14 10 9 3 7 15 22 25 23 22 21 18 21 36 31 32 26 26 27 30 34 30 22 22 25 26 24 26 29 30 33
16 20 18 20 16 12 12 11 13 12 13 9 8 5 2 5 10 18 22 24 25 22 16 18 17 18 28 18 22 24 28 29 25 20 20 21 18 23 27 28 30 31 35
16 17 17 15 11 10 10 9 10 9 8 4 4 3 4 6 11 7 15 15 14 15 15 16 18 17 14 15 17 21 21 19 18 18 17 20 24 26 26 29 31 34 38
12 11 11 10 9 7 9 5 3 4 2 5 5 4 5 8 6 6 2 6 8 11 11 14 16 15 15 16 14 13 14 12 13 16 19 21 24 26 30 34 36 38 41
12 10 10 8 7 6 8 3 4 6 6 6 7 7 7 5 6 5 4 4 8 7 6 6 7 6 6 7 9 6 9 12 15 17 20 23 27 31 34 39 41 43 42
12 10 8 5 4 4 5 2 6 8 10 9 8 10 8 5 8 8 6 7 10 8 7 5 4 4 1 4 6 7 9 13 16 21 24 28 31 35 39 42 43 41 38
8 5 5 7 9 7 6 6 7 5 5 9 11 9 10 14 15 13 13 11 8 6 5 6 3 1 3 4 6 9 12 16 20 24 28 32 36 40 41 40 37 35 29
6 2 2 3 8 10 6 7 4 11 15 18 20 20 18 15 12 10 8 6 6 5 2 1 1 3 5 7 10 14 18 22 26 31 35 38 41 41 39 36 31 23 16
7 2 3 4 4 9 8 9 16 19 18 16 15 15 13 11 9 7 6 5 3 2 2 3 5 7 9 13 17 20 24 28 32 36 39 40 40 38 32 23 15 10 9
3 2 4 7 10 12 14 15 14 13 13 13 12 11 10 8 6 5 3 1 1 3 4 6 8 11 14 18 22 26 30 33 37 38 38 37 33 26 17 11 8 9 12
5 2 2 5 8 9 11 11 10 10 9 10 10 9 7 6 4 2 1 2 2 4 5 8 12 16 20 23 27 31 35 38 39 37 33 27 17 8 5 6 9 11 15

GFSMW_700_spd_072.txt.gz
Wind_Speed
38 42 43 43 44 44 43 42 42 40 41 37 38 35 32 30 31 32 32 31 31 31 31 29 30 30 28 28 28 29 29 29 28 28 28 27 26 26 25 25 25 24 24
34 40 44 46 47 47 47 46 46 44 44 41 39 38 35 33 31 32 31 33 31 32 32 32 30 30 30 31 31 31 30 31 30 30 30 31 30 29 28 27 28 27 27
33 37 41 45 47 48 49 49 49 46 46 44 43 42 41 39 37 33 32 31 31 32 31 34 34 34 33 33 34 33 33 33 32 33 33 34 33 30 30 32 31 31 28
32 34 37 43 45 48 50 52 52 52 51 49 49 48 47 45 43 42 38 36 35 33 34 35 36 36 37 36 35 36 35 36 34 35 35 35 33 33 35 35 34 39 40
28 30 32 34 37 40 41 44 46 48 48 48 49 50 52 51 46 46 47 46 44 43 41 39 39 37 38 38 37 38 38 38 38 35 35 34 35 36 37 38 39 40 38
19 21 23 24 26 29 33 35 38 40 40 39 40 41 42 43 42 40 41 45 49 50 48 44 45 43 42 40 39 40 41 40 42 39 39 38 38 37 36 37 40 33 37
15 15 15 15 16 16 19 22 27 31 33 35 35 35 36 38 40 37 38 37 37 41 47 49 50 51 49 48 47 45 41 42 43 41 40 39 39 38 38 39 41 42 39
15 13 12 11 11 11 13 15 17 19 21 23 26 31 37 42 43 43 41 41 40 37 37 42 45 48 49 48 49 47 45 44 45 45 44 43 42 43 41 45 47 44 40
14 12 11 11 12 13 15 17 19 20 23 25 27 27 28 30 32 33 35 37 39 42 43 44 44 44 45 48 48 48 47 45 48 45 41 41 43 44 48 44 50 55 52
14 14 15 15 16 17 18 21 23 24 27 29 30 31 31 32 32 32 32 33 34 35 38 41 43 44 45 46 47 48 47 45 49 43 43 47 47 44 45 51 51 48 47
14 15 16 17 19 21 23 24 25 26 26 27 30 34 36 37 37 37 38 38 37 37 36 38 40 43 45 47 45 44 45 45 46 46 42 47 39 40 41 48 45 56 53
14 15 18 20 21 21 24 22 22 22 23 23 25 28 30 32 35 37 38 40 42 42 40 39 40 42 43 44 46 44 43 44 43 42 39 43 44 35 39 44 51 56 41
16 17 18 19 21 22 20 20 20 20 19 20 21 24 28 31 33 35 36 37 39 41 39 36 35 36 36 42 44 43 42 41 40 38 37 40 41 42 43 45 44 42 34
16 18 22 23 23 19 20 19 18 16 17 19 19 22 23 23 23 25 28 32 32 34 33 33 33 32 36 38 40 38 35 33 36 31 34 35 40 40 39 41 42 35 33
13 18 22 21 20 18 18 17 15 16 17 16 17 18 19 21 22 22 21 20 22 25 28 30 31 31 28 31 28 30 28 25 31 33 35 33 38 39 35 30 28 30 29
12 16 16 18 20 16 15 14 14 14 13 12 12 10 10 8 7 8 8 11 15 19 23 25 26 28 26 26 27 25 37 27 35 34 32 32 31 27 27 28 25 26 28
13 16 17 17 18 15 12 11 11 11 9 6 6 6 5 5 1 0 4 10 15 19 22 24 29 14 15 15 13 25 26 21 18 22 24 24 23 23 24 26 26 29 32
18 19 16 16 14 11 11 9 9 7 5 4 6 5 5 4 3 3 7 12 18 17 14 15 13 18 14 15 14 14 19 15 15 17 18 19 20 21 23 27 28 31 34
15 11 10 12 12 10 7 8 10 5 5 5 7 6 3 5 6 6 5 2 6 7 11 15 14 13 11 10 11 12 13 11 13 14 15 18 21 24 26 30 32 34 38
12 14 12 11 11 6 4 4 9 8 8 6 7 3 4 2 4 3 6 6 4 7 8 9 5 1 1 1 5 10 7 9 12 15 17 19 23 27 31 35 38 39 40
10 11 10 9 6 5 4 3 7 6 6 5 4 7 5 3 2 3 1 2 4 4 4 4 2 1 2 3 6 7 9 11 14 18 21 25 29 33 37 40 41 40 36
11 7 6 8 8 8 5 3 4 5 7 10 8 4 6 4 7 11 9 8 7 5 4 3 2 1 3 4 6 9 11 15 19 23 26 30 34 38 39 39 36 31 22
9 6 5 6 8 9 8 7 5 5 5 9 10 9 12 14 11 10 7 7 6 4 2 2 2 2 4 6 9 12 16 19 24 28 32 36 38 38 35 29 20 12 7
7 3 4 5 6 7 6 6 8 11 14 14 15 14 12 10 9 9 7 4 3 2 1 1 3 5 8 11 14 18 22 26 30 34 36 37 35 29 21 12 5 3 5
4 2 2 4 5 6 10 15 15 13 13 12 11 10 9 8 8 6 3 1 0 1 2 4 6 9 12 15 19 23 27 31 34 35 34 31 25 16 5 1 1 4 8
3 3 1 3 4 6 9 11 12 11 11 10 9 8 7 6 5 2 1 1 2 3 5 7 10 13 17 20 24 28 32 34 35 32 27 20 11 3 1 1 3 7 11

GFSMW_700_spd_075.txt.gz
Wind_Speed
34 36 40 38 42 42 41 39 38 36 38 37 35 34 34 33 33 31 31 32 33 34 35 34 33 32 32 31 32 32 32 32 32 32 32 32 31 30 29 29 28 27 27
34 40 43 44 45 42 42 42 42 41 42 43 40 40 38 38 37 35 32 32 34 35 35 33 34 33 33 31 32 33 33 34 34 33 34 35 35 33 31 31 30 30 30
27 32 43 45 47 47 46 46 46 46 45 46 47 44 45 44 42 39 37 34 34 35 35 35 34 35 35 33 33 33 33 34 35 35 36 37 38 37 34 33 33 34 33
35 36 39 42 45 46 47 49 49 49 49 48 49 48 47 47 43 41 39 37 36 36 35 36 34 34 37 37 37 37 36 35 38 37 38 40 39 38 39 36 37 37 38
35 36 38 39 41 42 43 45 46 48 50 50 49 49 50 51 47 46 46 44 43 42 41 41 41 41 40 41 40 40 41 39 40 39 38 40 40 40 39 41 38 39 39
31 32 34 36 37 38 38 39 42 44 45 45 44 44 43 43 43 41 43 44 44 43 44 45 46 46 46 45 43 43 43 41 42 43 41 42 43 44 41 41 44 41 41
24 25 26 27 28 29 30 32 34 36 37 39 39 39 38 38 39 38 37 38 41 41 39 42 49 51 49 48 48 48 48 45 43 43 44 46 46 46 45 45 45 46 45
21 20 19 19 19 19 20 21 23 25 26 28 29 31 33 36 39 39 37 38 39 38 37 37 39 42 48 52 54 54 55 52 51 50 50 49 47 48 50 52 46 50 47
20 18 17 17 16 16 16 17 18 20 21 23 24 26 28 29 30 32 34 37 40 42 42 43 43 42 43 45 50 53 54 54 52 52 52 51 50 52 55 60 47 55 54
17 16 15 15 15 15 16 17 19 21 24 25 26 27 29 30 31 32 32 33 34 36 36 38 40 41 43 45 46 47 49 50 51 52 51 51 51 51 52 51 48 54 50
16 16 16 17 17 18 19 21 23 25 26 27 29 30 31 33 35 35 36 37 37 37 38 38 38 38 39 42 45 47 48 47 45 45 47 50 50 42 48 46 45 44 40
16 16 17 18 19 20 22 24 25 26 25 26 26 27 27 28 30 32 35 37 39 40 41 41 42 41 41 40 41 43 43 45 45 44 44 44 44 45 40 45 40 39 42
16 16 18 19 20 21 22 22 21 20 20 21 23 23 23 24 27 30 32 34 35 36 38 40 42 42 40 39 38 38 39 42 42 41 41 38 35 37 40 43 44 47 42
16 17 19 20 21 21 19 17 17 18 18 18 19 21 22 23 25 26 26 26 28 31 33 34 35 34 33 34 34 36 39 40 39 33 31 34 33 39 37 39 41 39 42
16 16 17 20 21 18 15 16 16 16 17 18 19 19 19 20 20 22 23 24 24 22 21 21 21 24 27 32 35 37 34 33 28 30 34 30 35 34 35 35 37 34 31
13 12 16 19 18 17 15 14 14 14 15 16 15 16 14 12 12 12 13 11 9 10 10 13 17 21 24 27 29 31 34 28 27 26 28 36 32 34 34 32 29 27 28
11 14 17 19 19 20 15 12 12 13 12 13 13 10 8 7 8 7 7 5 7 10 12 15 17 19 25 17 13 12 14 10 18 21 17 21 22 24 23 24 26 27 28
14 18 20 20 19 16 14 11 10 11 10 11 8 5 4 7 8 6 6 8 12 10 15 12 10 13 13 12 14 13 13 12 12 14 15 17 16 18 19 24 25 29 32
17 16 15 14 12 14 11 10 9 10 9 7 5 5 6 7 7 7 8 7 8 9 5 7 9 11 12 11 9 8 8 9 10 11 13 14 16 20 23 27 30 33 37
15 15 15 15 12 13 7 9 11 9 9 7 7 5 4 4 5 5 4 7 5 3 5 7 6 5 5 5 6 7 7 7 9 12 15 18 22 26 29 32 35 38 40
14 12 12 13 12 10 6 6 7 7 7 6 5 5 5 4 3 1 1 5 5 3 3 4 5 6 6 4 4 6 9 12 14 17 20 23 28 31 35 38 39 37 34
7 9 8 8 11 8 8 8 4 6 6 5 5 5 6 4 1 7 8 7 5 4 4 4 4 4 4 6 8 11 13 16 19 22 26 30 34 37 38 37 32 26 17
7 8 6 7 7 11 11 8 7 6 6 6 5 6 7 8 8 6 5 5 4 3 2 2 3 5 7 9 11 14 17 20 23 27 31 35 37 35 32 26 18 8 3
7 5 6 7 9 12 11 10 9 6 9 12 12 12 11 9 7 5 4 3 1 1 2 3 4 7 9 12 15 18 21 24 29 33 35 35 33 27 21 13 4 1 4
5 4 4 4 1 5 6 10 12 12 12 12 11 10 8 7 6 4 2 1 1 2 3 5 7 10 13 16 19 22 26 30 33 35 35 31 25 18 9 3 2 4 7
5 4 3 1 2 6 9 10 11 10 10 10 9 9 8 7 6 4 2 3 3 4 5 7 10 13 16 19 22 26 29 32 34 35 31 25 18 8 4 5 5 6 9

GFSMW_700_spd_078.txt.gz
Wind_Speed
25 24 29 34 34 36 39 41 38 33 34 34 33 33 30 28 29 28 29 30 28 28 30 30 32 33 32 30 30 29 30 30 32 33 34 33 32 30 31 30 30 29 29
32 30 33 35 38 39 38 36 37 37 36 35 34 36 35 34 33 33 33 32 32 31 31 31 33 34 33 32 31 30 29 30 32 33 34 36 36 33 32 32 33 33 31
31 38 36 38 38 42 41 38 38 39 40 40 39 38 40 39 38 38 37 36 35 35 35 33 31 32 33 33 32 32 32 32 31 33 33 36 39 35 35 35 35 36 36
28 29 32 40 45 45 45 43 43 42 43 42 45 44 43 43 42 41 41 39 39 39 36 38 35 33 34 35 34 33 34 35 36 36 36 36 39 39 39 36 37 38 39
39 37 40 42 43 41 40 43 44 46 45 46 46 48 50 49 46 45 44 44 42 42 41 40 41 41 39 39 39 39 39 39 39 39 39 39 40 41 42 42 40 40 39
39 41 39 38 39 39 39 39 41 43 44 46 47 48 49 49 49 46 42 40 40 40 41 42 44 44 42 42 43 43 44 46 44 43 43 42 42 42 42 44 43 44 46
34 33 34 36 38 38 38 37 38 38 39 39 40 41 41 42 41 42 41 38 36 40 39 38 39 42 43 46 47 49 49 49 49 46 47 46 46 45 43 44 46 48 49
31 30 27 28 29 29 30 31 32 32 33 33 34 35 37 38 39 40 40 39 39 37 37 36 36 37 37 38 42 47 52 52 52 51 49 52 52 49 49 49 47 50 52
23 22 22 21 21 21 21 22 22 22 23 24 25 27 28 29 30 32 34 36 37 38 38 39 40 41 41 41 41 41 42 44 46 48 49 48 50 51 49 48 50 50 54
21 21 20 19 19 19 19 20 20 21 22 23 25 26 27 27 28 29 31 33 33 33 32 33 34 35 36 38 40 42 43 43 43 43 43 43 44 45 46 47 49 50 51
20 19 18 17 17 17 18 19 20 23 24 25 26 27 29 30 31 32 33 33 35 33 33 34 36 37 36 36 37 37 38 39 40 41 43 43 42 41 42 43 44 43 36
18 17 17 17 18 19 20 22 24 26 25 27 28 28 28 29 29 30 31 31 33 33 34 36 37 39 39 39 39 39 38 38 39 39 40 41 40 40 39 40 35 40 39
17 17 16 16 17 19 21 23 25 26 25 25 25 25 26 27 28 28 27 27 28 29 30 32 34 35 36 38 39 40 39 38 36 37 38 37 37 35 36 41 37 26 39
15 16 16 18 20 22 24 23 24 23 22 22 23 23 22 23 23 24 24 25 24 24 25 26 27 29 30 31 32 32 32 35 38 38 39 31 32 32 37 42 41 37 36
16 17 19 19 19 21 22 21 21 20 20 20 20 20 20 21 21 20 20 20 20 22 22 21 20 19 18 19 22 26 30 33 32 30 33 30 30 29 34 38 36 28 28
17 17 15 14 16 17 18 18 18 18 18 18 17 17 17 16 16 15 13 14 13 12 12 13 12 12 13 16 21 23 21 19 22 24 26 31 27 24 26 27 26 26 25
9 9 12 13 17 20 21 20 15 16 15 14 13 12 11 11 11 10 10 9 7 8 9 9 11 13 16 16 12 16 17 16 10 9 13 15 15 18 20 18 19 19 23
10 12 13 17 20 20 19 15 12 13 12 10 9 9 9 10 10 8 6 7 7 7 6 9 6 7 8 9 9 10 8 9 9 9 9 10 12 14 16 17 20 24 28
13 15 15 15 15 13 13 12 11 11 10 9 7 7 8 7 6 6 5 7 6 9 8 3 6 6 6 5 4 5 4 6 7 8 9 11 14 17 20 23 26 30 34
16 15 14 15 16 13 14 10 10 10 10 9 8 6 5 5 3 3 2 4 7 2 2 1 4 5 4 4 3 5 7 8 9 11 14 17 21 24 27 30 34 37 38
13 14 11 12 13 12 12 8 8 9 11 10 8 5 5 4 0 1 4 4 6 8 7 4 4 4 3 5 6 6 7 10 13 16 19 23 26 30 33 35 36 34 28
11 8 11 10 10 11 10 9 7 6 9 10 7 6 7 5 4 6 8 6 5 4 4 3 3 3 4 5 7 10 13 16 19 22 24 28 31 34 35 33 29 23 15
5 9 9 9 8 9 10 10 9 8 9 9 8 8 9 8 10 8 6 4 3 2 0 1 2 4 6 9 11 13 16 19 22 25 29 32 34 33 30 25 19 10 4
8 8 8 9 10 13 12 13 12 10 9 10 11 12 13 12 8 6 5 3 2 1 1 2 4 6 8 10 12 15 18 21 24 27 30 33 33 30 25 18 8 5 5
6 7 7 7 5 5 12 11 11 10 13 14 14 13 11 8 7 5 4 3 2 2 3 4 6 8 11 14 16 19 22 25 28 30 32 33 31 26 20 11 6 6 7
6 7 7 5 3 1 7 11 13 14 14 12 11 10 8 7 5 5 4 3 4 4 5 6 8 11 14 16 18 21 24 27 29 31 32 32 27 21 14 9 9 9 10

GFSMW_700_spd_081.txt.gz
Wind_Speed
27 20 26 27 31 29 33 35 35 34 33 30 28 29 28 27 24 23 24 25 24 24 24 24 24 25 26 26 28 29 29 27 27 29 30 30 30 29 30 31 32 30 28
31 26 25 29 28 32 32 34 38 37 36 33 31 31 30 31 30 30 29 28 28 27 28 27 25 27 28 27 27 26 27 28 29 29 30 31 31 30 30 31 33 33 34
35 33 32 29 31 32 33 33 34 37 38 38 36 35 35 35 34 33 32 32 32 33 33 31 30 29 31 30 27 27 28 29 30 30 31 34 34 33 32 32 33 34 34
32 34 41 38 39 37 36 37 37 35 38 38 39 39 37 36 35 34 34 35 36 36 36 36 36 36 35 33 31 31 31 33 32 34 33 34 36 37 39 36 35 36 36
34 38 41 44 46 45 43 40 37 36 36 39 39 40 40 40 40 39 40 40 40 41 42 41 41 41 40 38 37 38 38 38 38 37 38 38 39 40 41 41 37 38 39
45 45 45 42 41 43 42 41 37 37 41 42 44 44 46 45 45 44 44 44 45 45 44 43 45 45 45 43 41 41 41 41 42 43 41 41 42 42 43 44 43 41 41
45 45 43 40 39 39 38 39 38 37 37 39 40 41 42 43 44 45 45 42 40 40 37 37 39 39 40 41 42 43 44 45 46 47 47 44 42 43 43 43 46 46 44
42 43 46 44 42 41 42 42 41 38 37 37 37 38 39 39 39 40 42 42 40 39 38 36 38 37 35 35 36 38 39 39 41 43 45 46 46 45 45 44 42 43 44
38 40 37 35 33 34 34 35 34 32 31 31 32 33 33 34 35 36 37 39 39 37 39 38 37 36 37 37 37 38 39 40 42 42 42 41 40 39 40 38 38 38 42
28 29 27 25 25 25 25 25 25 23 23 24 25 27 28 29 28 29 29 29 30 31 32 33 32 31 30 30 31 33 34 36 37 39 41 42 42 39 38 38 38 39 39
21 21 20 20 21 20 20 21 22 22 23 24 26 27 28 29 29 30 30 31 31 32 32 33 33 33 32 32 33 34 35 35 36 36 37 36 35 37 38 39 39 40 38
18 19 19 19 19 19 19 21 22 23 25 27 28 29 29 30 31 32 31 32 31 31 31 32 33 34 34 35 35 36 37 37 37 37 35 35 36 35 35 37 38 36 39
19 19 19 18 19 20 21 23 24 26 28 29 29 29 29 29 28 29 29 29 29 28 28 29 30 30 31 31 32 32 32 33 33 32 33 34 35 37 35 36 38 34 36
16 17 17 17 18 20 22 25 25 25 26 27 26 27 26 26 27 27 27 26 26 25 26 25 24 24 25 25 25 24 23 24 26 27 31 34 33 35 27 28 29 27 32
15 15 16 18 21 22 23 25 26 27 27 26 25 24 24 25 24 24 23 23 23 22 20 20 20 19 19 17 17 16 16 19 22 23 24 30 25 19 25 22 22 25 30
17 18 19 20 20 20 21 22 24 24 25 25 24 22 22 21 21 21 19 17 16 14 12 12 12 12 11 12 13 14 15 14 16 19 16 8 14 12 14 15 18 19 19
18 15 14 15 16 18 19 21 25 21 22 22 20 19 18 17 15 13 12 12 11 10 9 10 7 7 8 12 14 12 13 10 10 9 9 9 10 11 11 13 16 17 19
11 10 11 14 16 20 23 23 24 19 18 17 16 15 14 12 11 10 10 10 10 9 7 5 4 4 5 6 7 9 7 6 6 6 6 7 9 11 14 17 20 23 26
11 12 14 16 19 19 19 18 17 14 14 14 13 11 10 9 10 9 9 9 7 7 7 7 5 5 4 3 2 2 2 3 4 6 9 11 13 15 18 22 26 29 32
14 15 17 16 20 20 18 16 16 12 14 13 12 12 9 8 8 9 8 8 5 4 6 6 5 4 3 3 3 2 3 5 7 9 12 15 18 22 25 29 31 33 32
15 15 16 16 16 18 17 14 14 13 13 13 13 12 10 10 8 7 9 7 8 9 9 7 5 4 3 2 2 4 5 7 10 13 17 20 23 26 29 31 31 30 28
12 12 10 12 14 14 15 15 12 11 10 14 14 12 12 10 8 9 12 11 9 8 7 5 3 2 1 2 3 5 8 11 14 17 20 23 25 27 29 29 28 26 21
7 7 9 10 11 10 11 13 12 10 9 12 14 11 12 12 11 13 11 9 7 6 4 3 2 1 1 4 6 9 11 14 17 20 22 24 26 28 29 28 26 20 13
7 7 9 9 10 14 13 15 15 14 12 13 14 13 14 14 15 12 10 9 7 5 4 3 2 2 4 6 9 11 14 16 19 21 23 25 26 28 27 24 20 14 9
7 6 8 8 9 9 13 16 16 15 13 12 14 16 18 17 14 12 10 7 6 5 5 4 3 4 6 8 11 13 16 18 21 23 24 25 26 27 25 21 16 11 11
5 5 7 8 6 6 4 9 10 11 12 15 17 18 16 14 12 11 8 7 6 6 5 5 5 6 8 10 13 15 18 20 22 23 24 25 26 25 23 20 15 14 14

GFSMW_700_spd_084.txt.gz
Wind_Speed
35 32 31 29 29 31 31 33 32 29 29 28 27 26 24 23 21 19 19 19 20 19 20 20 20 21 22 21 22 23 24 24 25 27 27 26 26 26 27 26 25 25 25
37 36 36 35 34 28 31 33 33 34 34 31 30 31 28 27 26 24 24 25 24 23 23 23 24 26 26 26 25 26 25 24 25 27 28 29 29 27 26 27 27 26 27
40 36 33 34 32 32 30 33 34 35 34 33 33 32 32 32 32 30 29 27 27 28 29 30 30 30 30 28 28 29 29 28 27 28 30 33 33 30 29 28 29 30 31
47 42 38 35 35 33 31 33 33 35 37 38 40 39 37 35 33 32 31 31 32 32 33 33 34 33 33 34 33 33 32 32 31 34 33 34 35 36 37 33 32 32 34
45 47 43 39 36 36 36 34 31 32 34 36 35 36 39 39 37 37 36 36 36 37 38 38 39 39 40 40 38 37 37 37 38 38 38 38 39 39 40 42 38 36 37
36 38 39 46 42 39 39 38 38 37 36 37 37 38 38 38 38 37 37 37 38 40 42 44 45 44 43 43 44 43 43 41 40 41 40 40 41 41 42 42 43 41 40
37 43 40 39 43 41 38 38 40 42 41 38 39 40 41 42 42 42 43 43 43 43 44 46 46 44 43 42 40 40 39 41 41 40 41 41 41 40 43 40 43 44 45
33 41 44 44 42 42 43 41 41 41 40 38 37 38 39 39 40 41 42 41 41 40 39 40 39 38 38 37 36 36 36 37 38 39 39 40 38 38 38 40 39 42 42
30 37 40 47 46 47 47 45 42 43 44 43 41 39 39 39 38 38 38 39 39 38 35 36 37 37 36 35 34 34 36 37 37 39 40 41 41 40 40 38 38 38 45
24 29 35 41 47 48 47 46 43 40 38 36 35 34 34 33 33 34 34 33 33 32 31 31 32 31 30 30 30 30 29 29 30 31 32 34 34 36 35 35 36 35 37
22 28 32 35 37 35 31 31 30 29 29 28 27 27 28 29 29 30 30 30 30 30 30 30 31 32 32 32 32 32 32 32 33 34 34 35 36 35 36 36 34 36 37
25 23 22 23 25 25 25 24 23 23 24 25 26 27 29 30 30 31 31 32 33 33 34 34 34 34 34 34 34 34 34 34 34 34 34 34 33 34 32 32 31 34 36
19 19 20 20 20 20 20 20 21 23 25 27 28 29 30 31 32 32 33 33 32 32 32 31 31 32 31 31 30 31 32 31 30 29 29 28 28 29 30 30 31 32 30
16 17 18 18 18 18 19 20 23 26 27 29 29 29 30 31 31 31 30 29 29 29 28 28 29 29 29 28 27 27 26 26 23 20 21 22 25 26 30 28 31 24 22
17 16 15 15 16 18 20 22 24 26 28 29 29 29 28 28 27 27 28 27 26 25 25 26 26 25 24 24 22 20 18 15 15 19 18 21 23 27 20 16 19 17 21
13 13 14 16 18 20 21 23 25 26 28 28 29 28 26 26 26 26 26 25 24 23 22 21 19 18 16 15 15 14 13 13 14 16 16 16 13 10 9 11 14 16 16
15 17 16 19 21 21 21 23 24 26 28 27 26 26 24 24 23 23 22 20 18 17 16 14 13 11 12 13 12 13 13 12 12 12 12 9 8 8 8 10 12 15 18
17 17 17 15 15 16 18 22 26 28 29 26 24 22 21 21 19 17 17 15 14 13 13 11 11 11 9 8 8 8 8 8 8 6 6 6 7 9 12 15 18 21 24
19 16 16 17 17 17 19 22 22 23 23 19 19 18 18 18 16 15 15 13 13 12 10 11 11 10 8 8 6 5 5 5 4 5 6 8 11 13 16 20 23 27 29
19 19 19 19 19 19 20 22 23 22 20 17 16 17 17 15 14 14 15 13 11 9 10 13 11 8 7 6 5 4 4 3 4 6 9 12 15 17 19 23 26 28 29
19 20 20 19 20 21 22 20 21 21 20 16 16 16 16 14 13 12 12 13 11 11 12 11 10 8 7 6 5 5 4 4 7 9 12 15 18 20 22 25 28 29 30
20 20 19 17 16 16 17 19 20 21 18 15 17 17 17 14 13 12 15 13 14 13 12 10 10 9 8 6 4 4 5 7 9 12 15 18 20 22 24 26 27 27 27
19 13 11 12 14 15 15 17 17 18 16 14 16 18 17 15 14 14 17 16 14 13 12 11 9 8 6 5 5 6 7 10 12 14 17 19 21 22 24 25 26 25 24
7 8 10 11 13 14 16 15 16 15 15 13 14 17 17 18 17 18 18 16 15 13 12 11 9 8 6 6 6 7 9 12 14 15 17 19 21 22 23 24 24 23 21
7 9 9 10 11 13 14 16 17 17 17 16 17 17 17 18 20 19 18 17 14 12 11 10 9 7 6 7 7 9 11 13 14 16 18 19 21 22 23 23 23 22 20
9 7 8 10 10 10 10 8 14 17 20 18 16 17 20 22 21 19 17 15 13 12 11 10 9 8 8 9 9 10 12 13 15 17 18 19 20 21 22 22 23 22 20

GFSMW_700_spd_087.txt.gz
Wind_Speed
25 27 27 27 27 25 24 22 26 27 25 26 26 24 21 20 19 18 17 18 18 18 19 19 19 18 17 18 21 22 22 22 23 26 25 25 25 24 22 22 21 20 21
31 33 31 33 32 29 29 26 27 30 30 28 27 26 25 24 23 23 23 22 21 21 22 22 22 22 22 24 25 25 25 25 26 28 28 29 27 25 24 25 24 23 23
40 40 42 37 36 33 32 27 28 28 31 32 31 29 28 29 29 30 27 24 25 25 25 25 26 27 28 28 28 28 28 29 30 30 32 34 33 30 29 28 28 27 27
44 39 40 42 39 36 33 33 32 30 31 32 33 33 32 33 32 30 30 28 29 30 29 29 29 30 32 32 31 32 34 35 35 33 33 35 37 38 39 34 33 33 33
48 48 41 41 38 36 35 33 31 30 31 32 33 34 35 33 34 34 35 35 34 33 32 32 33 34 35 36 37 38 39 39 40 38 39 40 41 41 41 43 40 36 37
39 43 50 44 42 40 38 35 34 30 29 29 30 32 34 35 35 36 37 36 35 36 36 36 37 38 40 41 41 43 43 43 42 42 41 40 38 39 40 40 39 39 35
33 40 46 49 48 44 42 39 36 35 34 33 33 33 32 35 38 37 38 38 38 39 39 41 42 44 45 44 44 43 41 39 39 39 36 37 37 37 39 38 39 41 39
27 33 41 41 38 40 44 44 38 36 37 38 38 36 34 34 36 38 41 42 43 43 43 44 45 46 45 44 42 39 38 38 38 36 35 36 34 36 35 37 39 42 41
25 29 34 37 37 37 33 35 38 39 39 39 39 38 37 35 36 37 39 39 40 40 40 41 42 42 42 41 39 38 37 34 34 35 35 36 36 36 37 37 37 37 40
23 27 30 33 37 38 39 39 37 38 40 41 42 41 43 42 40 39 38 38 38 39 39 37 36 36 35 33 32 30 30 29 29 29 29 30 31 32 34 34 34 34 36
16 16 19 24 30 35 38 43 46 45 45 45 46 44 40 35 34 34 34 34 34 33 33 32 31 32 32 31 32 31 31 31 31 31 31 32 33 33 34 34 33 34 31
14 17 19 23 28 31 34 36 39 42 40 37 34 31 30 30 30 31 31 31 31 31 32 32 32 33 34 34 34 34 34 33 33 33 33 33 32 32 32 33 32 30 30
17 20 24 27 27 26 25 26 26 28 27 26 26 27 28 30 30 31 32 32 32 33 34 34 34 33 33 33 33 33 32 31 31 31 29 29 28 27 27 27 27 28 28
19 20 20 19 18 19 19 20 21 23 24 25 27 28 30 30 31 32 33 33 33 33 32 32 31 30 30 30 29 29 29 28 27 26 25 22 22 23 25 25 27 26 23
17 17 17 16 16 17 18 19 21 23 24 26 27 29 30 31 31 32 31 30 30 29 29 28 28 27 27 27 26 25 25 24 21 19 18 18 19 21 17 15 13 12 15
12 14 15 16 15 16 18 19 21 23 25 26 28 28 29 29 29 28 28 26 26 26 26 26 25 24 23 22 21 19 18 15 15 15 15 14 15 14 12 11 11 11 13
11 12 12 13 16 18 20 21 22 23 24 27 28 29 28 28 27 26 25 24 24 24 23 22 20 18 17 16 15 15 13 15 14 13 11 12 10 9 8 9 12 15 18
13 14 14 16 18 19 18 17 19 22 25 28 29 28 27 25 23 22 21 20 20 19 17 16 15 14 14 13 12 10 10 11 10 9 8 8 8 10 10 13 16 19 22
18 18 18 18 17 16 17 19 20 22 23 24 26 22 21 20 19 18 18 17 16 16 14 14 15 14 12 10 10 10 9 9 8 8 7 7 10 12 14 17 19 22 25
23 20 19 19 19 19 20 20 20 22 24 26 23 19 18 18 17 16 16 15 15 15 15 15 13 12 10 9 9 9 9 9 8 7 8 11 12 14 17 19 21 24 26
20 20 19 20 21 22 21 21 22 24 23 24 24 19 17 18 16 15 16 16 16 15 13 14 14 11 10 10 10 10 9 8 8 9 10 12 14 16 18 20 22 24 26
18 18 19 21 22 21 20 17 20 21 23 22 21 17 18 18 17 16 14 15 16 15 14 15 14 13 11 11 11 9 8 9 9 10 12 14 16 17 19 20 22 23 25
19 19 20 20 17 15 17 20 21 21 19 21 19 17 20 20 19 17 16 17 16 17 18 16 14 13 13 12 10 9 9 10 10 11 13 15 17 18 19 20 21 22 23
20 19 13 10 13 14 16 18 18 18 18 19 18 16 18 19 18 17 16 19 20 19 16 15 15 14 13 11 10 11 11 10 11 13 14 16 17 18 19 20 21 22 23
6 6 8 9 12 14 15 16 20 19 19 16 17 14 16 18 19 18 20 22 21 20 19 17 15 14 13 13 12 11 11 11 12 14 15 16 17 18 18 19 20 22 22
11 8 7 9 11 14 14 15 14 16 20 20 19 17 16 17 19 21 22 21 19 18 17 16 15 15 15 14 12 12 12 12 13 14 15 17 18 18 19 20 21 22 23

GFSMW_700_spd_090.txt.gz
Wind_Speed
26 22 20 27 24 22 21 23 30 22 22 20 19 20 19 19 20 18 16 15 17 18 17 18 20 19 18 19 19 18 19 20 21 24 23 24 24 22 20 20 20 20 21
23 31 23 23 25 21 22 21 25 25 24 23 23 23 22 21 22 21 19 19 19 19 19 20 20 21 22 22 22 22 23 24 24 27 29 30 26 24 24 24 23 24 25
34 32 26 24 24 24 26 25 24 25 28 30 27 27 27 25 26 25 23 23 22 22 22 23 24 25 25 25 26 27 27 27 28 30 33 34 33 29 28 30 29 29 29
31 31 35 30 29 31 32 30 29 26 25 29 30 31 30 28 26 26 27 26 26 25 27 28 29 29 28 29 28 30 32 33 33 34 35 35 37 37 40 36 34 32 32
42 38 37 37 38 38 36 34 33 34 32 29 29 30 32 31 30 30 30 30 30 32 31 29 30 30 32 32 33 34 34 36 37 38 38 39 40 40 39 42 35 32 32
44 46 47 44 42 42 38 35 33 34 31 29 29 31 30 29 30 30 31 31 33 34 34 35 34 34 33 34 35 37 38 39 40 41 40 40 40 37 39 37 35 37 31
41 44 44 51 47 45 41 38 34 33 32 29 28 28 29 30 31 31 33 33 34 34 34 36 37 37 37 38 40 42 43 43 43 40 40 38 37 38 33 37 39 36 36
34 32 40 41 42 46 46 41 39 36 35 33 32 30 29 29 30 32 34 35 35 36 39 39 40 42 43 44 45 45 42 41 40 39 39 39 38 36 35 36 36 38 39
32 31 29 33 38 36 41 46 46 42 40 39 37 35 35 34 33 32 32 32 34 36 38 40 41 43 44 44 44 44 42 41 40 38 37 35 33 32 33 33 33 34 37
21 25 30 29 32 34 35 35 35 34 36 38 38 38 37 35 34 34 34 37 39 40 41 41 41 41 41 41 41 40 37 34 31 31 30 29 30 30 30 30 32 33 36
15 19 27 24 26 28 30 32 36 36 35 36 36 37 38 38 39 39 41 38 36 36 37 38 37 36 34 33 32 33 32 32 31 32 31 31 31 32 31 31 32 33 32
14 14 19 21 21 24 26 30 32 35 37 41 42 42 42 43 42 39 35 33 32 32 32 31 32 32 32 32 33 34 34 33 33 32 32 31 31 30 30 29 29 28 28
17 15 15 17 19 21 24 28 30 33 36 37 40 41 40 37 34 32 31 31 31 31 32 32 32 33 33 34 35 35 35 34 33 32 30 30 29 27 26 23 24 25 26
15 15 16 18 21 24 25 27 27 26 25 26 27 28 29 30 31 31 30 30 31 32 33 34 34 34 34 33 33 33 32 31 30 29 28 26 24 22 20 21 23 21 20
14 16 19 19 17 14 14 15 16 18 20 22 23 25 28 30 30 33 30 31 33 33 32 33 33 31 30 30 30 29 28 27 26 25 23 20 18 17 18 16 15 14 12
11 13 14 15 13 13 14 16 18 19 21 23 24 26 28 30 30 33 30 31 32 31 29 29 28 29 28 26 26 25 24 23 20 18 16 16 14 15 15 13 11 9 9
8 10 11 11 12 14 16 18 20 21 22 24 26 28 30 30 31 30 28 28 29 29 27 26 25 25 25 22 22 19 17 16 15 15 14 12 12 12 11 9 10 11 13
11 10 10 12 13 15 18 19 21 22 22 24 27 29 30 30 29 27 26 26 25 24 23 23 22 21 18 17 16 15 14 14 14 12 11 10 9 10 10 11 13 14 17
11 12 14 17 18 19 21 19 18 20 23 23 24 25 27 24 23 23 22 21 21 20 19 18 17 16 15 14 14 13 12 10 10 9 7 8 10 11 12 14 15 17 19
17 19 20 20 20 19 20 21 23 23 19 23 23 27 28 22 19 19 18 18 18 17 16 16 15 16 14 13 13 12 10 9 7 7 8 10 11 13 14 16 17 19 20
22 23 22 22 22 22 22 23 23 24 23 24 27 25 28 22 18 17 17 15 16 16 15 15 15 14 14 13 12 10 9 8 8 9 10 11 13 14 15 17 18 19 20
22 21 18 17 20 22 24 25 24 24 21 23 23 24 25 19 19 19 17 16 16 17 15 15 16 16 14 13 12 11 9 9 10 10 12 12 13 14 15 17 17 18 19
18 19 21 19 21 23 23 20 21 22 24 23 22 21 24 17 20 21 19 17 16 18 17 16 16 16 16 15 13 12 11 10 11 12 12 12 14 15 16 16 17 17 18
13 18 18 19 21 17 16 17 19 21 21 20 20 20 22 19 19 21 19 17 17 17 17 18 18 17 16 15 13 12 12 12 12 12 12 13 14 15 16 16 17 18 19
11 8 13 11 11 12 15 17 18 20 23 21 21 20 18 16 16 18 18 17 19 21 22 20 19 17 17 15 13 13 13 13 13 13 13 14 15 15 16 17 18 19 20
12 10 10 10 11 11 13 16 17 19 18 18 21 19 18 15 15 17 18 18 20 21 20 18 18 18 16 15 15 15 15 14 14 14 14 15 16 16 16 18 20 21 22

GFSMW_700_spd_093.txt.gz
Wind_Speed
28 19 18 24 27 25 21 27 31 31 21 16 17 25 27 24 22 21 28 21 19 19 18 18 19 19 18 18 18 19 18 18 19 21 20 21 21 20 21 21 21 22 22
31 23 20 24 27 25 21 27 29 30 26 25 20 18 20 20 22 25 22 20 20 20 18 19 19 19 19 20 21 22 22 23 24 25 26 25 24 23 24 24 24 26 26
34 28 23 26 25 26 24 24 19 20 34 27 25 22 22 22 22 21 19 21 21 20 19 20 20 21 22 23 24 26 26 26 28 28 30 31 30 29 28 27 28 29 31
23 31 25 16 25 26 27 27 22 18 16 18 22 25 21 20 20 19 21 23 23 23 23 23 22 24 25 26 27 28 28 29 31 32 33 33 35 36 39 34 31 31 27
24 27 32 30 29 23 25 29 18 25 22 22 21 24 25 28 26 26 28 25 28 27 26 26 26 28 29 29 29 29 32 34 36 35 36 37 38 39 39 41 31 28 32
37 31 34 36 42 33 31 32 30 31 29 29 27 28 29 30 30 29 30 32 31 28 28 30 29 31 33 34 33 35 36 36 37 39 39 41 41 40 38 37 35 36 27
37 39 42 37 37 38 35 33 33 34 32 31 29 27 27 29 31 31 30 30 31 31 32 33 34 35 36 35 36 38 39 39 41 42 43 41 38 38 38 38 37 33 35
40 44 40 39 39 41 39 38 38 37 34 33 31 29 27 25 26 27 29 32 31 31 33 35 35 36 37 38 40 41 43 44 44 42 39 40 38 38 37 36 34 34 37
35 39 39 40 41 40 38 41 44 41 38 35 33 32 30 28 28 28 28 30 31 32 32 32 35 38 39 40 40 42 43 42 41 40 40 40 35 33 30 29 30 31 34
27 30 32 33 33 34 38 36 36 40 43 39 37 36 36 35 34 35 34 34 33 32 33 35 38 40 41 42 41 41 41 41 39 38 35 32 29 28 29 30 31 31 33
22 23 26 29 28 28 29 30 32 33 34 37 40 40 39 40 40 39 39 37 36 36 37 37 38 39 40 39 37 35 34 33 32 31 30 31 30 30 31 32 32 32 32
21 21 23 28 29 26 25 27 26 28 30 32 33 33 35 37 38 39 39 38 39 38 37 35 35 34 34 33 32 32 32 32 33 32 33 32 31 31 31 31 30 28 27
18 16 17 19 23 25 24 25 26 27 30 32 34 35 37 40 42 42 42 40 39 36 35 33 32 33 32 32 33 33 34 34 35 34 33 32 31 31 28 27 25 22 22
16 18 18 18 19 20 20 22 24 26 29 32 34 36 36 37 37 37 36 34 34 34 32 32 32 32 33 33 34 34 34 34 33 32 31 30 28 27 25 23 20 19 18
14 15 16 17 19 21 23 25 26 25 25 26 28 26 26 27 29 30 30 31 32 32 33 33 33 33 34 34 33 32 31 31 30 29 28 26 25 23 19 18 17 14 14
14 15 16 17 17 18 18 18 17 17 16 17 19 21 23 25 27 29 30 32 33 33 36 34 33 31 33 32 31 30 29 28 27 26 25 23 19 17 16 14 12 11 10
10 11 11 12 12 13 14 15 16 17 18 19 20 23 25 28 30 31 33 33 34 34 34 33 32 31 30 30 29 26 26 25 23 20 18 16 15 15 13 11 9 9 11
11 10 11 11 11 12 13 15 16 18 20 22 23 25 27 30 32 34 34 34 33 32 31 31 30 28 27 27 24 22 20 19 17 15 16 15 13 11 10 9 9 11 13
12 12 12 13 14 15 16 18 20 21 21 21 22 24 24 27 30 29 28 29 28 27 27 26 25 24 22 21 19 17 16 15 14 14 13 12 10 10 9 10 11 13 15
13 14 16 17 19 19 20 21 20 21 21 24 24 24 24 25 30 30 24 23 21 22 21 20 19 18 18 16 16 16 15 14 14 13 11 10 10 9 10 11 13 15 15
16 18 20 22 23 25 25 23 23 23 26 24 25 24 25 26 27 29 22 20 17 17 18 18 17 17 17 17 16 16 15 15 13 11 11 10 9 10 12 12 14 15 15
18 19 21 22 21 21 24 23 24 27 26 27 24 22 23 25 26 27 19 19 17 15 16 17 17 17 18 17 17 16 15 14 12 11 10 10 10 11 12 13 14 15 15
14 17 18 19 22 20 23 23 23 26 28 25 23 24 25 25 24 23 19 20 19 17 17 18 17 18 18 18 18 16 15 13 12 11 11 10 11 11 12 13 14 14 15
12 15 12 16 19 21 22 22 22 20 21 23 23 22 22 23 22 23 20 22 20 17 16 17 17 18 19 19 17 16 14 13 12 12 11 11 12 12 13 13 13 14 15
11 11 6 11 16 18 16 16 17 18 19 19 22 22 22 21 23 22 18 20 20 18 18 20 20 20 20 19 17 16 15 14 13 13 13 12 13 13 13 14 14 15 16
12 10 9 9 10 12 12 12 16 16 16 17 19 17 20 20 18 18 16 19 20 19 21 20 20 21 19 17 18 17 16 15 15 14 14 14 14 14 14 15 15 16 17

GFSMW_700_spd_096.txt.gz
Wind_Speed
36 51 40 35 35 30 31 35 37 35 35 32 32 36 35 38 37 37 35 33 33 31 28 27 25 22 21 21 20 20 19 18 19 19 19 20 19 19 20 21 22 23 24
33 45 52 34 34 29 25 28 33 33 33 27 25 29 30 32 32 32 31 31 28 27 25 25 23 21 22 22 21 21 21 21 22 23 24 24 23 23 24 24 25 27 28
24 47 39 40 34 28 25 25 29 33 34 33 32 29 29 32 28 29 27 23 25 25 26 24 23 24 23 22 23 23 24 24 25 25 27 28 29 28 28 28 29 31 31
24 45 49 47 28 23 26 30 28 28 35 42 34 32 34 34 31 27 27 25 23 22 22 23 24 24 23 23 24 25 25 27 27 28 29 33 35 33 36 34 34 32 32
22 46 49 33 28 23 27 30 28 22 24 42 34 31 25 31 30 29 25 25 26 30 30 25 23 23 23 24 25 26 28 32 33 34 33 35 37 36 38 42 38 33 30
25 23 38 25 30 30 19 28 23 23 21 22 22 40 25 15 18 19 34 29 30 29 28 26 32 30 30 28 31 31 34 36 35 36 36 37 39 39 41 42 39 37 31
33 28 28 26 28 20 23 29 27 23 25 23 21 18 21 20 21 23 23 27 31 31 29 27 27 29 29 32 34 36 38 39 38 38 39 40 41 43 41 40 40 38 37
37 36 33 30 29 28 32 35 29 28 31 31 29 26 27 24 25 26 28 29 30 30 26 27 30 31 32 34 36 37 39 39 40 41 43 44 43 41 40 40 38 37 32
34 39 37 39 36 36 33 36 39 35 33 32 31 29 28 28 26 25 25 28 27 27 29 29 30 33 33 35 37 39 39 40 41 42 41 41 40 40 39 36 33 32 32
33 35 39 40 38 37 38 38 38 38 39 39 39 37 34 32 31 29 28 28 29 30 30 31 33 33 34 36 39 41 42 43 42 41 41 40 38 36 33 30 30 32 33
27 27 30 34 35 35 35 34 33 35 36 35 37 38 39 36 35 35 34 34 35 36 37 37 37 38 39 40 40 40 39 38 37 37 35 37 33 33 31 32 31 32 33
22 22 22 27 30 32 31 30 27 29 32 33 32 31 33 36 38 38 39 40 41 41 41 40 40 41 41 39 38 37 36 34 33 33 35 34 36 33 33 32 31 31 31
17 19 19 19 23 26 29 28 29 28 28 28 28 29 30 32 34 35 36 39 40 42 42 42 43 42 40 37 36 35 34 34 35 33 33 35 35 34 33 32 31 30 29
16 19 19 20 22 25 27 27 27 27 27 27 28 30 32 34 36 38 40 42 44 45 46 45 43 41 39 36 35 35 35 36 36 35 34 34 34 33 31 30 29 27 25
13 15 16 16 16 18 21 23 25 26 27 27 29 31 33 35 36 37 38 39 40 40 40 40 39 38 38 38 36 36 36 36 35 34 34 32 32 31 29 27 25 22 20
11 14 15 16 18 20 22 24 25 26 27 28 29 29 29 28 27 27 29 31 33 34 36 36 37 37 36 38 38 37 35 33 32 32 31 29 28 27 24 22 19 17 16
9 13 15 18 19 21 22 22 22 21 20 19 19 20 21 23 26 28 30 32 34 35 37 37 37 37 37 36 36 35 32 30 29 29 28 25 23 21 19 17 16 14 13
9 11 12 13 14 15 16 16 16 16 17 18 20 22 24 26 28 30 32 35 36 37 37 38 37 37 36 34 34 31 29 28 26 25 21 20 18 16 16 14 14 12 12
10 12 13 14 14 14 15 15 16 18 19 21 23 24 26 26 27 28 31 35 34 32 34 34 33 35 33 31 28 25 23 21 20 19 19 17 15 15 13 13 12 12 14
13 13 15 16 17 18 18 19 19 20 21 22 23 25 26 29 27 29 30 33 37 31 27 27 27 29 26 24 22 20 19 18 18 17 16 15 15 14 13 13 13 14 14
14 16 18 20 22 24 23 24 25 24 24 26 26 27 25 26 27 28 29 29 29 26 23 22 23 22 20 20 20 18 18 18 17 16 16 15 14 13 13 13 13 14 14
17 19 21 22 23 25 25 27 27 28 27 25 28 29 27 28 26 27 25 27 27 22 20 18 19 19 19 20 20 19 19 18 17 17 15 14 13 13 13 13 14 14 14
15 17 18 19 24 23 26 21 22 24 27 27 27 30 32 27 27 27 27 25 23 21 21 18 17 17 17 19 19 19 19 19 18 16 15 14 13 13 14 15 14 15 14
11 12 15 17 18 18 19 21 23 21 24 28 28 27 28 27 26 25 25 25 22 22 23 20 18 18 18 19 19 20 20 19 17 16 15 14 14 15 14 14 15 14 14
11 11 13 10 10 13 16 18 20 19 19 23 24 25 25 26 25 25 23 26 26 21 23 21 19 20 18 20 22 22 21 19 18 17 16 15 15 15 15 15 15 15 15
13 13 12 11 10 11 13 14 14 13 14 16 20 20 21 21 24 23 21 20 20 22 24 23 20 22 23 23 22 22 22 20 19 18 17 17 17 16 16 16 16 15 16

GFSMW_700_spd_099.txt.gz
Wind_Speed
28 29 47 41 35 37 33 35 36 34 32 40 28 30 37 40 38 38 37 36 34 34 31 30 30 30 29 26 25 24 22 20 19 18 19 19 20 20 20 21 23 24 25
28 29 33 45 43 37 35 35 36 35 33 36 43 43 35 38 39 36 36 36 35 34 32 31 32 30 28 25 25 23 22 22 21 21 21 22 23 23 23 24 25 27 29
28 28 37 40 45 40 37 37 36 35 36 38 41 46 41 35 36 39 37 35 33 33 31 30 29 26 26 25 25 23 23 23 23 23 23 25 26 28 29 29 28 28 31
23 26 30 37 47 48 41 38 34 33 38 44 42 44 42 34 35 40 39 37 31 30 29 25 24 25 24 23 23 23 23 25 25 26 27 28 30 30 33 36 31 32 35
24 32 32 36 39 46 42 40 32 30 33 40 34 49 36 37 41 36 37 35 35 36 36 29 26 24 22 21 20 21 24 25 25 30 30 31 33 35 35 38 38 38 38
26 31 29 35 43 47 45 44 34 26 37 25 16 28 34 48 47 38 36 34 44 46 46 41 27 24 24 29 29 28 29 29 31 31 29 35 37 37 37 38 39 41 41
31 30 30 33 46 47 41 44 35 29 20 18 22 13 14 24 40 40 28 42 35 31 26 30 28 36 39 35 34 26 24 30 33 36 34 40 38 39 39 41 43 41 40
30 32 26 32 42 38 53 49 20 27 28 15 17 17 18 21 17 17 23 21 26 35 20 20 22 16 16 21 20 24 30 32 35 37 38 40 41 41 42 41 40 40 40
29 32 29 26 36 27 27 22 14 20 19 21 23 25 21 24 21 20 17 21 18 19 20 19 21 21 23 25 26 28 32 36 38 39 40 41 42 42 41 41 40 38 37
26 25 33 35 30 29 30 25 24 27 29 30 29 30 28 27 24 24 24 22 20 21 20 24 26 25 26 29 31 33 35 37 40 43 43 45 43 41 39 40 37 34 31
34 34 30 34 31 33 30 29 28 30 30 32 33 34 34 35 33 32 30 29 28 28 29 31 32 32 33 35 36 37 39 40 42 40 39 38 38 36 36 34 36 33 33
27 28 31 34 34 35 34 32 33 32 32 34 37 37 33 33 34 34 35 35 35 35 35 37 39 39 39 39 40 41 42 42 39 37 35 33 33 34 34 36 36 36 35
22 27 25 26 30 34 36 36 34 30 29 29 30 31 30 30 31 33 34 35 36 37 39 40 40 41 42 43 43 43 41 39 37 35 33 32 33 35 33 35 36 36 34
15 20 21 21 23 26 29 32 32 30 28 27 28 27 27 27 29 30 32 33 35 37 39 41 43 44 45 45 45 43 40 38 36 37 36 35 35 35 37 35 35 34 31
13 15 16 16 18 21 24 27 29 29 28 27 27 26 27 29 30 32 33 35 37 38 40 42 44 45 44 42 42 41 39 38 36 36 37 38 37 34 34 34 32 30 28
11 13 14 15 15 16 18 20 23 25 26 26 27 27 28 29 30 32 32 31 31 32 33 35 37 38 39 40 39 39 38 38 36 37 36 36 35 32 31 30 29 27 24
8 11 13 14 15 16 17 18 20 21 23 25 26 26 25 25 24 25 25 27 29 31 32 35 37 38 38 39 39 39 37 37 38 36 34 33 32 30 28 26 24 21 19
5 7 9 11 13 15 17 18 19 20 20 20 20 21 22 23 24 26 28 30 31 34 35 36 39 39 39 39 38 38 38 35 34 31 31 30 28 26 23 21 19 19 16
7 8 10 11 11 11 12 13 14 15 16 17 19 20 22 24 26 28 29 30 33 35 37 37 37 35 36 37 36 36 33 30 29 27 27 25 22 20 19 18 16 17 15
10 10 11 11 12 13 13 14 15 17 18 20 22 23 24 25 26 27 29 31 32 32 35 36 35 30 30 30 30 30 26 24 24 22 21 19 18 18 18 16 17 15 15
12 12 13 15 16 17 18 19 21 23 24 25 25 25 26 27 27 28 29 28 31 29 29 29 32 25 24 24 22 22 19 20 19 18 18 18 17 17 17 16 15 15 15
14 15 17 19 20 22 24 26 28 29 30 31 31 30 28 29 31 27 29 31 30 30 29 27 26 24 21 19 18 18 18 18 18 18 19 17 17 17 16 15 15 15 15
17 19 20 21 21 22 24 27 29 28 25 26 28 28 30 29 29 33 35 31 30 28 26 23 22 23 20 18 17 18 18 19 19 19 18 17 17 17 16 15 15 15 14
14 15 17 17 19 21 24 25 23 25 27 24 22 26 27 31 31 31 31 31 29 26 25 22 22 23 20 18 17 18 20 19 19 19 19 19 18 17 16 15 15 15 15
14 14 13 14 14 14 11 15 17 21 21 22 23 22 24 28 29 30 30 30 28 26 26 27 24 23 20 20 20 20 21 21 22 21 21 19 18 17 16 16 16 16 16
13 13 14 14 14 12 12 14 16 17 15 15 16 17 19 21 24 25 27 26 25 23 23 20 22 21 19 21 22 23 24 24 23 23 21 19 19 18 17 17 17 17 17

GFSMW_700_spd_102.txt.gz
Wind_Speed
17 23 28 28 24 23 27 30 30 30 32 38 48 36 32 33 31 32 35 36 33 32 32 32 31 30 27 26 24 24 24 22 20 19 19 18 17 17 18 19 20 22 24
26 26 28 32 31 29 27 29 30 32 31 31 48 37 28 36 36 35 36 36 36 35 33 32 31 30 29 28 27 25 25 22 21 21 21 20 20 19 21 21 22 26 26
32 28 31 32 37 37 34 32 33 32 32 33 37 40 42 38 42 41 38 39 33 33 34 34 35 32 31 30 28 25 25 23 22 22 22 22 22 23 24 24 28 28 29
32 32 30 31 35 31 38 38 36 33 31 34 32 31 33 38 45 46 44 45 39 32 28 35 36 33 30 27 27 24 24 22 21 23 22 22 23 25 28 26 29 33 33
28 34 23 30 33 33 34 39 39 35 34 35 34 34 35 36 37 40 43 51 42 40 37 31 35 42 30 27 31 25 27 24 24 23 24 24 25 25 24 31 34 36 36
27 27 36 26 32 33 35 37 41 38 36 41 40 41 38 38 39 42 42 44 43 45 49 40 32 29 32 36 37 29 24 22 26 30 28 25 25 23 26 33 35 37 38
32 29 31 41 35 34 35 33 38 39 39 40 33 30 29 30 39 32 32 40 37 39 47 40 38 38 35 37 36 35 21 26 36 38 32 24 21 28 32 34 34 38 42
31 35 33 38 35 33 34 34 36 36 42 46 38 25 25 36 40 29 8 16 38 48 50 37 27 41 49 37 30 30 41 38 20 23 22 31 32 35 37 38 39 41 43
35 33 36 33 33 28 33 31 28 32 37 44 40 32 33 19 14 13 10 12 14 12 16 23 34 14 5 8 9 9 12 19 25 29 31 33 35 37 39 41 42 43 40
31 31 27 31 28 25 29 31 37 35 33 33 25 21 13 17 19 21 18 13 15 20 14 14 14 14 11 16 17 22 24 27 27 30 32 37 40 42 42 42 41 39 32
29 27 26 25 30 26 31 29 27 24 18 23 17 19 22 23 24 25 26 25 25 22 22 19 22 20 21 23 25 29 30 32 34 37 38 40 40 39 38 36 35 32 40
35 31 28 30 34 30 27 28 25 20 21 19 16 20 26 27 29 28 29 29 29 28 27 27 28 29 30 31 33 35 37 38 39 41 41 40 37 36 35 33 32 34 33
29 34 36 33 27 28 32 31 29 25 22 22 25 28 30 30 28 28 29 29 31 32 33 33 34 35 36 38 40 41 42 42 43 43 42 40 37 34 33 35 35 33 31
16 22 26 25 24 26 29 31 31 29 29 29 28 27 26 25 25 25 26 28 29 30 31 33 36 37 39 41 42 44 45 46 45 44 41 38 36 35 33 34 36 29 39
10 14 17 19 19 19 21 23 26 29 29 28 27 26 26 26 26 26 27 28 29 31 34 36 38 40 42 44 45 46 45 44 42 39 38 37 36 36 35 34 34 36 34
11 13 13 13 14 15 16 18 21 24 25 26 26 27 27 27 27 28 28 28 30 31 32 32 32 33 34 35 37 38 38 37 36 36 36 36 36 35 33 32 31 30 30
10 10 11 12 13 13 14 16 17 20 22 23 24 24 25 25 26 27 27 25 25 25 26 28 30 32 34 37 38 39 39 37 36 35 35 35 35 33 31 29 30 30 29
8 9 10 11 12 12 13 14 16 17 19 21 23 23 23 22 22 22 22 23 25 27 28 31 33 36 38 39 39 40 40 38 37 36 35 33 32 30 29 28 27 27 24
4 6 7 8 9 11 11 12 13 14 15 16 17 17 18 19 21 22 23 25 27 29 31 33 34 34 37 38 36 35 36 35 36 34 32 29 28 27 25 23 22 20 19
8 8 8 9 10 10 11 11 12 13 14 15 16 18 20 21 22 22 24 25 27 29 30 30 31 31 32 35 33 28 29 30 30 26 25 24 23 21 20 17 18 18 18
11 10 10 10 11 12 13 14 16 16 17 18 20 21 22 23 24 24 26 27 28 28 28 30 29 31 31 33 28 23 22 21 21 21 20 20 18 18 17 17 18 18 17
12 12 13 13 14 16 18 19 21 21 23 25 25 26 27 28 29 28 28 32 31 30 31 30 29 28 28 27 27 22 19 17 18 18 18 19 18 18 18 17 18 17 16
12 14 16 17 19 21 22 23 23 24 26 27 27 27 27 28 30 29 29 28 30 32 29 27 27 26 22 23 25 21 18 18 18 17 18 18 18 18 18 17 18 16 14
12 14 15 15 16 17 17 19 21 23 23 24 25 27 28 27 26 28 29 30 30 30 30 28 26 25 26 23 23 19 18 18 18 20 21 20 19 18 18 17 17 15 15
14 14 14 14 15 16 16 17 14 16 17 21 22 24 23 24 22 23 25 27 27 28 29 28 25 24 28 22 21 20 20 19 22 23 20 20 19 19 18 17 17 16 16
13 13 14 14 15 17 16 14 14 14 16 17 16 16 16 17 18 18 19 21 22 23 22 22 22 24 21 20 20 19 20 22 22 23 21 21 21 20 19 18 18 17 17

GFSMW_700_spd_105.txt.gz
Wind_Speed
25 25 26 25 24 28 28 28 28 31 44 36 29 24 24 21 28 31 31 28 29 29 29 28 28 27 26 25 25 24 23 22 21 20 19 18 17 16 15 16 16 17 18
23 25 24 25 26 23 23 23 20 23 27 31 40 38 39 39 36 34 30 28 31 31 32 32 31 30 29 29 28 27 26 24 23 22 21 20 19 18 18 18 18 19 21
24 23 20 20 22 25 24 22 21 19 24 27 31 33 35 35 39 33 42 34 29 28 32 35 36 34 31 31 30 29 27 26 25 23 23 22 21 21 21 21 21 21 22
26 25 26 26 22 25 26 25 24 22 22 27 29 30 30 31 31 31 34 39 38 44 39 34 34 39 37 36 32 33 29 29 26 24 21 22 23 24 26 24 25 23 26
27 32 27 22 23 22 27 27 28 28 28 26 28 33 36 35 37 39 39 39 38 36 35 39 36 52 47 44 40 41 29 30 27 24 28 25 23 24 27 27 25 27 30
27 30 26 26 27 28 28 28 27 30 29 28 29 33 33 37 36 33 32 30 36 39 38 39 44 46 44 28 35 46 45 42 39 39 43 31 27 24 28 32 20 26 33
33 29 32 32 31 33 30 28 26 27 28 30 30 31 30 35 38 34 31 29 33 39 44 37 42 48 47 49 38 33 37 31 32 33 35 38 33 30 21 16 27 32 34
34 34 35 35 34 33 32 27 27 27 25 27 31 32 34 34 32 30 26 30 33 44 39 41 35 32 27 29 35 43 44 37 37 34 34 35 17 15 23 31 32 34 35
39 36 36 36 35 37 33 31 26 24 26 23 27 30 31 29 30 27 26 21 25 28 33 8 10 24 38 40 32 36 39 36 30 13 13 20 26 32 34 34 33 36 42
42 37 39 39 36 34 31 31 28 27 20 22 24 27 31 29 29 29 20 12 15 14 13 12 11 11 11 8 7 6 11 11 15 20 22 24 29 31 33 36 38 40 39
27 36 40 37 33 33 28 27 25 23 24 25 28 28 24 26 22 17 14 15 14 15 17 16 14 20 20 14 15 19 19 24 25 24 27 31 34 36 36 36 37 36 35
31 28 35 34 31 26 29 25 26 25 20 21 21 24 26 19 19 20 22 23 20 19 23 22 24 26 25 25 24 26 28 29 30 31 34 37 38 39 39 38 36 33 33
36 32 31 31 28 25 26 23 24 27 23 21 18 20 22 23 21 22 22 22 22 24 25 27 29 29 29 30 31 32 33 35 37 38 40 42 43 45 42 39 35 34 34
29 31 33 32 30 24 22 26 26 28 27 26 25 23 23 23 26 25 23 21 21 23 24 26 28 29 29 31 33 35 37 39 41 43 44 46 46 44 41 38 35 34 35
28 34 33 32 31 28 24 25 31 33 32 29 27 26 26 24 22 23 22 21 22 23 24 26 28 30 33 36 37 40 43 45 46 46 46 44 41 40 37 35 35 35 35
19 22 28 32 29 23 19 21 25 28 29 29 28 26 24 23 23 23 23 24 24 27 28 29 31 33 34 35 36 37 38 38 39 40 39 38 37 36 35 34 34 35 36
12 14 16 17 17 16 16 16 16 18 19 21 22 22 23 24 24 24 25 25 27 29 30 29 29 29 31 33 35 37 39 40 40 40 38 38 37 37 36 36 36 35 35
8 9 10 10 10 11 11 11 12 14 15 17 18 20 20 22 23 24 25 26 25 25 26 27 29 30 32 34 37 39 39 40 41 40 39 37 36 37 37 36 36 34 32
4 5 7 9 10 11 12 13 14 15 15 17 18 19 19 19 19 20 20 21 23 24 26 28 29 30 32 32 35 37 37 37 35 35 35 35 34 34 33 33 31 29 27
4 5 6 7 8 9 10 11 13 14 15 15 16 16 17 18 19 20 22 24 25 26 27 29 31 32 32 33 33 35 36 35 31 28 29 29 29 27 27 27 24 23 21
8 8 8 8 9 10 11 12 12 13 15 15 16 18 20 21 22 23 25 26 27 30 32 33 33 34 32 31 31 31 33 32 26 25 23 23 23 21 20 21 19 19 18
11 11 11 11 12 12 13 14 15 17 18 20 22 23 25 25 26 27 28 29 31 32 32 32 30 34 30 29 28 27 28 29 23 20 19 18 18 17 18 18 18 18 19
13 14 14 15 16 17 19 21 21 22 23 24 26 27 27 27 27 27 27 27 29 29 31 31 33 31 29 27 27 24 25 27 22 18 17 17 17 17 18 18 18 19 18
14 15 15 17 17 17 17 18 18 20 22 23 24 25 24 24 26 28 29 27 29 30 29 30 31 31 28 25 25 27 25 23 19 18 17 17 18 19 19 19 19 19 17
11 13 14 14 15 15 16 15 15 17 16 16 18 19 19 24 25 21 20 20 21 22 24 26 28 27 24 23 25 27 21 20 19 18 19 20 21 21 20 20 20 18 17
13 14 14 14 16 16 16 16 15 14 15 16 17 19 18 19 18 19 19 19 19 21 22 22 21 21 20 21 23 21 18 20 20 19 20 24 26 21 20 20 20 19 18

GFSMW_700_spd_108.txt.gz
Wind_Speed
35 30 27 31 40 39 39 37 35 35 38 39 39 32 31 28 28 26 26 26 26 26 25 25 25 24 24 23 24 24 24 23 23 21 20 20 21 19 18 17 15 16 15
29 29 25 28 33 37 37 36 34 34 34 38 34 37 30 30 23 25 24 25 25 24 25 24 25 26 26 28 27 28 27 27 26 25 25 24 23 22 20 20 18 20 19
32 27 22 26 25 29 31 33 34 33 36 36 34 34 35 30 33 30 27 21 26 25 27 30 27 25 27 28 29 30 29 28 29 28 29 26 24 23 23 23 22 22 22
33 27 25 23 22 23 21 23 25 20 37 40 38 34 32 31 31 30 31 31 33 36 38 40 42 37 33 34 30 39 40 30 27 31 29 29 27 25 25 25 27 25 24
29 25 23 20 20 21 22 21 20 17 17 19 19 21 21 26 26 26 31 29 33 35 37 39 39 36 36 31 36 37 46 44 41 46 35 29 31 31 27 28 31 26 26
20 20 22 22 19 21 22 23 23 21 23 23 20 20 20 21 24 27 28 28 31 31 34 27 33 33 40 39 44 45 42 48 40 40 41 40 38 37 40 39 40 33 28
29 28 25 26 22 21 20 20 25 22 22 22 21 22 22 21 22 23 27 29 29 29 30 28 28 27 29 34 44 47 35 37 38 41 44 44 40 44 43 44 42 28 25
32 31 26 26 26 24 23 25 23 24 21 21 23 24 24 22 21 22 26 28 31 31 28 28 33 32 29 39 35 28 40 34 35 42 41 43 44 36 34 35 18 13 25
31 28 25 23 25 27 28 26 25 20 22 21 22 21 19 18 19 20 18 21 24 25 26 25 27 25 17 19 31 36 34 34 30 27 24 29 39 37 19 20 23 30 37
31 35 30 28 27 27 27 26 25 23 20 20 20 19 18 16 18 21 22 19 21 22 17 14 15 15 9 6 5 5 9 7 7 8 8 12 18 22 26 27 29 32 36
36 31 32 30 26 29 29 25 24 25 21 21 17 12 12 16 16 19 21 20 17 17 16 17 16 14 18 15 11 12 13 13 13 20 23 25 26 28 30 32 33 34 35
38 33 30 31 31 31 30 30 27 23 24 17 16 17 20 19 15 17 19 17 18 18 17 16 16 21 19 21 22 21 22 26 27 25 28 30 32 34 34 36 37 38 39
27 29 25 30 29 26 27 24 24 22 21 18 17 18 21 19 19 24 21 20 20 22 24 26 26 26 26 24 27 26 29 31 32 33 34 35 38 40 41 42 43 43 44
23 27 29 26 28 26 24 23 24 23 24 24 21 19 17 18 20 22 22 24 23 23 24 23 23 23 24 25 26 28 30 32 34 35 37 40 42 43 44 46 46 45 43
19 29 30 28 27 27 27 22 21 22 24 27 25 23 22 23 24 24 22 21 20 19 20 20 21 22 24 26 29 32 34 35 37 39 41 42 43 44 43 42 41 40 39
18 25 27 29 29 29 27 23 22 24 27 28 28 28 27 28 28 26 24 22 21 21 21 22 25 27 28 31 33 34 34 35 37 38 40 41 42 42 42 42 40 39 39
16 20 25 28 29 28 28 28 26 26 29 32 32 31 30 30 28 25 24 23 22 23 24 26 27 29 29 30 32 33 35 36 39 41 42 43 44 44 43 42 42 41 39
13 15 17 20 23 25 26 24 21 21 22 24 25 26 27 26 25 25 23 22 23 25 26 27 27 28 30 32 33 35 36 37 38 40 41 41 41 42 41 40 41 40 39
9 10 12 14 15 17 18 18 17 17 18 20 21 22 23 23 22 22 23 24 24 24 24 25 27 28 31 32 34 35 36 36 38 39 39 38 38 37 38 36 36 37 37
5 7 9 10 11 13 14 14 15 15 17 18 19 20 20 20 21 21 21 21 22 23 24 25 28 31 33 35 36 38 38 38 37 38 38 37 34 31 30 32 32 30 30
5 6 7 8 9 10 11 12 12 14 15 15 15 16 17 18 19 19 21 22 24 25 27 30 33 36 37 39 40 36 34 34 34 34 34 32 28 26 25 26 26 25 24
10 8 9 9 10 11 11 12 13 15 15 16 18 19 20 21 22 24 26 27 29 31 34 37 39 37 37 36 35 34 34 33 32 31 31 28 24 21 18 19 20 19 18
14 13 13 12 13 14 15 16 17 18 20 21 23 24 25 27 28 30 31 31 32 32 34 35 33 33 37 36 36 33 31 31 30 31 29 24 19 18 17 17 16 16 17
15 15 15 16 17 18 18 19 20 21 22 23 25 26 27 28 28 29 30 30 33 35 29 29 28 28 28 29 31 32 31 28 29 28 24 21 17 16 16 18 18 18 18
17 17 17 17 19 19 20 20 20 20 21 23 23 23 25 27 22 23 26 28 26 23 22 22 23 24 25 27 28 27 25 26 29 21 20 20 18 19 21 23 20 18 18
15 16 16 17 17 17 18 18 19 19 20 20 19 22 19 21 21 23 23 25 25 24 24 23 23 24 24 25 25 25 23 25 24 21 20 21 20 22 24 23 20 19 18

GFSMW_700_spd_111.txt.gz
Wind_Speed
37 34 36 43 43 39 41 39 39 35 39 41 39 39 39 36 33 30 29 29 27 26 25 24 23 23 21 20 21 22 22 22 22 23 23 22 22 22 21 20 19 19 19
39 34 32 36 51 41 44 47 39 39 41 40 35 33 36 37 34 33 32 30 27 25 24 23 22 22 23 24 25 25 25 26 26 27 27 27 26 25 24 24 22 23 23
38 35 32 31 32 40 41 46 41 40 46 41 41 35 33 33 36 32 28 27 25 21 20 20 23 23 22 26 24 25 27 26 25 27 30 30 29 26 26 26 26 26 25
36 37 31 29 29 39 39 43 36 42 40 42 43 45 51 49 43 43 32 35 32 23 24 28 32 32 34 34 35 39 34 34 31 37 41 35 27 29 27 28 29 28 27
47 34 30 26 23 21 33 35 34 38 31 34 43 43 32 31 34 39 37 38 34 28 29 32 31 32 34 33 29 32 39 30 39 41 32 40 36 28 45 36 33 34 30
26 30 28 27 23 16 9 13 21 22 25 26 20 34 21 12 33 27 32 21 19 28 28 28 31 33 28 25 28 34 27 27 34 35 41 42 38 46 46 42 38 35 33
34 30 29 29 26 19 15 13 12 11 11 11 7 9 13 14 16 12 16 19 21 18 16 26 26 26 29 24 25 32 31 30 30 31 44 30 38 44 40 44 45 41 43
37 22 21 22 21 16 18 15 11 9 12 13 13 15 13 11 13 15 14 16 18 20 22 25 28 26 26 29 33 31 31 34 28 25 24 28 31 38 45 38 33 35 37
26 13 20 20 21 18 15 14 13 12 12 15 17 16 16 16 17 17 17 17 17 17 17 19 22 26 29 23 16 19 19 29 31 33 29 25 26 22 23 30 35 24 24
18 19 22 23 19 17 17 17 16 15 15 13 15 16 15 15 14 13 12 12 14 16 18 18 21 21 22 16 8 6 5 8 9 8 7 11 18 18 20 21 23 25 27
24 21 22 23 22 21 20 19 13 11 11 12 13 13 12 11 10 10 8 9 10 14 15 16 19 22 20 14 16 14 13 12 12 13 16 18 20 21 23 26 28 29 30
23 22 19 24 24 22 19 18 16 15 15 14 14 12 11 12 10 10 10 11 11 14 15 18 17 19 18 16 17 20 21 22 23 23 26 28 24 25 28 32 33 36 37
26 25 23 20 22 21 20 18 19 19 19 15 15 14 14 14 14 12 14 17 18 16 16 19 21 22 23 23 24 26 28 26 27 27 28 29 31 33 35 37 40 41 41
16 20 29 29 23 23 21 22 23 22 17 16 17 17 15 14 14 15 16 18 18 19 21 25 25 24 25 25 26 26 26 26 27 28 30 32 35 37 39 41 42 44 45
18 17 24 26 25 24 23 20 20 19 17 18 20 18 18 16 17 17 19 19 21 21 22 21 21 22 22 23 24 25 26 28 30 32 34 36 37 38 39 40 41 41 42
15 17 24 26 23 23 22 21 21 19 16 20 23 27 25 22 20 21 22 22 22 22 22 21 20 20 22 25 25 26 28 29 30 32 35 37 39 41 42 43 44 43 43
11 15 17 26 26 25 25 25 26 23 22 22 24 26 28 26 25 26 26 26 25 24 24 22 22 23 24 25 26 27 28 30 33 35 37 38 40 41 41 42 43 43 42
10 13 18 21 25 27 28 29 28 27 27 27 28 30 30 30 29 29 28 26 26 27 25 25 26 26 27 27 29 31 32 33 35 36 37 38 40 41 41 41 40 38 38
7 9 13 19 23 26 27 28 28 26 23 23 25 26 27 28 27 27 26 25 26 25 25 26 26 27 28 29 31 31 33 34 36 38 40 40 41 42 42 40 37 35 33
5 6 9 11 13 16 17 19 20 20 20 21 21 22 23 24 24 23 23 24 24 25 25 26 26 27 30 31 32 34 38 40 37 35 37 37 38 40 40 39 34 31 29
3 5 5 7 9 11 13 15 16 18 18 18 18 19 20 21 22 22 24 23 24 25 26 26 28 30 32 36 38 39 39 40 38 35 34 34 35 37 38 36 29 27 25
5 7 8 9 9 10 11 12 14 16 16 17 18 19 20 21 22 22 23 25 26 26 28 30 32 34 35 37 39 39 38 38 37 37 34 32 33 35 37 30 23 19 18
10 11 11 12 13 13 13 14 16 17 18 19 21 22 23 24 25 26 27 28 29 30 32 32 33 36 38 35 33 33 33 32 32 35 33 30 31 31 29 23 17 16 15
16 16 15 15 15 15 16 17 19 20 22 23 25 27 28 29 30 31 31 31 30 30 35 36 37 32 29 28 28 27 28 30 30 29 27 28 30 24 22 19 18 18 18
20 19 19 19 19 20 20 20 21 22 23 23 25 26 27 28 29 30 31 31 30 29 31 31 26 25 24 26 26 27 27 28 28 26 25 27 22 22 21 21 20 22 22
20 20 21 22 21 20 20 20 20 21 22 22 23 25 24 24 26 26 24 24 28 29 28 27 27 28 27 27 27 27 27 26 27 25 23 22 21 20 21 22 23 23 22

GFSMW_700_spd_114.txt.gz
Wind_Speed
15 17 31 39 50 44 46 48 50 52 43 40 37 36 35 35 34 33 32 31 29 28 28 28 26 24 22 18 17 16 15 17 20 21 21 22 22 22 22 22 22 22 22
17 22 38 35 47 50 38 46 48 47 51 40 35 37 36 35 34 35 34 32 31 30 29 27 25 23 21 19 19 18 19 20 22 24 25 24 23 24 26 26 24 25 25
23 38 35 36 36 37 41 35 55 56 51 42 42 42 39 37 37 37 36 35 33 30 27 24 23 22 21 19 18 16 16 19 24 26 27 28 30 31 32 29 26 26 27
28 36 27 32 33 41 46 40 50 55 47 44 47 41 39 40 39 35 34 33 32 30 28 27 26 24 20 18 20 28 30 28 26 35 34 34 41 37 36 32 27 25 25
38 33 29 32 29 31 36 34 33 36 45 47 45 43 41 39 37 36 36 33 33 30 29 30 26 22 26 27 33 26 34 29 25 18 23 28 35 30 38 35 31 29 38
32 30 32 28 27 27 31 37 39 45 45 40 37 39 52 48 42 41 41 36 34 34 42 39 37 40 30 28 33 26 25 19 25 30 34 30 31 28 36 36 37 42 45
27 30 30 25 24 19 13 22 40 31 31 21 21 43 21 21 21 28 46 40 46 40 33 37 38 33 24 24 21 26 29 26 27 28 35 27 38 36 37 33 44 36 37
30 31 30 24 20 13 8 3 5 27 11 16 10 6 9 13 7 11 26 11 33 17 9 11 11 19 21 24 26 25 27 28 28 30 35 25 29 19 24 30 18 24 23
26 35 28 24 19 13 8 5 3 4 2 1 6 8 8 9 11 9 7 11 10 13 16 17 18 15 19 22 23 24 24 26 27 27 27 24 31 33 20 23 28 29 25
24 24 32 26 21 16 13 11 7 2 1 6 9 8 8 10 11 12 12 11 13 13 13 13 13 15 17 19 19 18 12 10 12 14 11 14 13 16 21 22 24 29 22
26 24 20 19 19 17 11 7 6 8 6 8 8 10 12 15 16 17 18 18 16 14 14 15 14 15 15 17 19 20 19 15 14 14 15 17 19 19 21 23 21 25 26
19 20 11 18 20 18 14 13 10 6 5 2 7 9 10 15 17 16 15 12 11 12 14 15 14 13 16 18 20 23 18 18 20 22 24 25 26 28 26 25 28 30 34
14 16 13 17 17 16 16 14 11 8 7 6 6 9 12 14 14 12 13 11 11 9 14 15 14 15 18 20 21 20 22 23 25 27 29 28 28 29 29 31 33 34 37
17 18 18 14 15 17 17 13 12 12 12 11 9 12 15 15 14 13 15 12 14 13 13 14 17 20 23 25 25 24 24 24 24 25 25 26 29 30 32 33 35 37 38
16 18 20 23 21 19 18 15 13 15 14 11 12 15 15 13 13 14 15 14 14 14 14 16 18 19 19 21 21 21 22 23 25 27 28 30 31 32 33 34 36 37 39
13 14 15 21 26 25 22 19 17 14 11 10 13 17 18 17 16 16 17 17 17 17 19 19 19 20 20 21 22 22 24 25 28 29 29 30 32 33 35 37 38 38 39
9 15 16 22 24 23 23 23 21 18 15 13 12 16 22 23 22 20 20 20 20 21 23 22 21 21 21 23 23 24 25 27 28 29 30 31 33 34 35 37 38 40 40
8 9 12 17 25 25 22 21 20 20 20 19 20 20 22 24 27 27 25 25 25 26 25 24 24 23 23 24 25 27 27 28 28 30 30 32 35 36 37 37 38 38 39
6 6 8 14 17 23 24 25 25 25 24 23 25 27 27 28 30 31 30 30 29 27 25 24 24 24 24 25 26 26 28 28 31 33 35 36 36 36 34 35 37 37 38
4 7 8 11 16 21 23 24 25 26 27 26 23 21 21 23 24 26 27 26 24 23 22 22 23 24 25 25 26 27 30 33 36 38 38 37 31 32 34 35 36 36 37
2 3 6 8 10 11 13 15 17 18 18 19 20 20 20 20 20 21 22 22 22 22 23 23 23 24 26 27 28 31 33 36 37 36 35 35 33 33 33 33 35 35 34
5 7 6 8 8 9 11 13 15 15 15 17 18 19 20 22 22 22 22 22 22 23 23 24 26 29 30 31 33 34 35 35 31 29 29 30 30 30 29 30 32 32 29
15 13 11 11 11 11 12 12 13 14 15 16 17 18 19 21 22 22 23 23 24 26 27 29 30 31 32 34 35 35 32 27 23 25 28 29 30 26 27 29 28 26 22
13 17 14 13 13 13 15 16 16 17 19 20 20 22 23 25 25 26 27 28 29 31 32 32 30 30 36 33 28 24 23 24 25 25 26 28 26 26 28 26 25 23 22
17 17 18 16 16 17 18 18 18 20 21 22 23 24 26 27 29 29 31 31 32 32 31 31 30 32 31 26 25 25 25 25 27 27 26 26 25 25 25 25 24 22 22
18 20 21 21 21 21 21 23 22 21 20 21 22 23 24 25 27 28 29 29 29 28 26 27 30 29 27 26 26 27 28 28 29 27 24 24 25 24 24 24 24 23 23

GFSMW_700_spd_117.txt.gz
Wind_Speed
39 15 15 23 24 38 38 55 46 46 44 42 36 36 36 37 37 37 36 34 33 32 31 32 33 31 28 24 20 18 15 13 13 14 16 18 19 19 18 18 19 22 24
38 18 11 36 41 29 26 45 48 43 36 33 29 32 34 36 36 37 37 36 35 34 33 33 32 30 28 25 21 19 16 16 16 14 15 17 19 21 18 18 20 25 26
29 22 15 33 26 31 23 41 45 43 37 32 32 36 35 37 39 40 40 38 37 34 33 31 31 29 26 24 22 21 19 18 17 17 21 25 29 24 25 30 34 30 30
25 22 15 32 22 21 35 19 36 47 40 39 36 38 39 40 39 38 40 39 37 36 35 34 32 30 28 27 24 23 20 18 23 30 36 31 25 30 31 27 27 23 26
22 21 17 18 16 24 25 21 29 21 31 36 39 37 40 39 38 38 38 38 37 37 37 36 34 32 30 27 25 22 23 29 25 26 23 25 24 24 28 27 25 22 22
15 25 20 20 18 16 17 18 27 26 37 38 35 48 45 45 41 39 40 39 38 37 37 36 34 32 29 27 26 29 27 33 30 29 28 29 28 30 32 34 36 30 23
21 23 22 20 16 15 15 19 21 28 36 54 31 7 41 49 42 40 43 41 38 36 35 36 37 36 37 31 31 27 27 32 34 31 32 29 27 29 29 27 28 33 27
27 28 25 20 18 15 15 23 22 28 27 29 41 19 27 30 38 37 45 45 41 36 38 32 36 42 46 41 25 28 27 27 27 28 31 29 30 32 30 21 11 13 19
24 24 25 22 23 18 12 14 11 19 25 26 21 12 7 15 40 32 26 44 48 39 33 28 32 30 19 19 24 24 25 25 25 27 28 27 27 29 24 26 29 34 27
21 30 28 29 26 19 14 13 16 12 14 18 14 14 11 14 15 12 10 4 11 2 12 13 15 16 19 22 26 27 23 21 20 16 15 14 13 12 13 17 19 24 26
19 22 23 28 23 18 17 13 11 9 10 8 12 12 14 18 4 3 8 13 17 18 18 19 19 19 18 18 18 18 20 22 20 18 16 16 17 18 20 22 23 24 25
24 21 16 23 21 19 15 13 12 12 9 8 5 7 5 7 12 16 18 19 18 17 18 18 18 17 16 17 19 20 22 22 25 22 20 22 23 25 26 26 27 27 28
24 16 17 14 13 17 16 13 14 11 8 8 11 12 13 15 17 17 19 19 16 14 14 15 15 16 15 15 16 15 17 18 19 22 25 26 28 29 28 28 28 29 31
21 15 11 16 15 12 14 13 11 9 5 4 8 14 17 20 21 19 19 19 19 17 15 16 17 16 17 18 19 22 24 25 26 25 25 25 26 26 27 28 30 31 32
12 13 13 13 12 10 12 14 10 7 4 4 4 13 17 18 19 19 19 20 19 19 17 15 16 16 18 20 19 20 22 23 24 23 24 25 26 28 29 30 31 31 32
14 13 15 14 15 17 16 15 13 10 7 5 7 13 16 17 18 20 21 21 20 20 18 17 17 16 17 18 19 20 22 22 24 25 26 27 28 29 30 30 30 29 30
10 12 12 14 16 21 21 21 18 15 12 10 9 12 17 19 18 19 20 21 22 20 19 19 18 18 19 20 21 22 23 24 24 26 27 28 28 28 29 32 34 32 31
6 10 14 14 17 20 23 23 21 18 16 15 13 13 13 17 22 26 24 23 23 23 22 21 21 22 23 23 24 23 23 24 25 27 26 28 29 30 33 35 34 31 30
2 7 9 12 15 23 23 23 22 20 19 19 19 19 19 20 21 24 26 28 28 26 25 24 24 24 23 24 24 24 24 25 25 27 28 30 34 33 32 32 31 29 29
2 1 4 8 12 15 21 23 23 23 23 23 23 24 25 25 25 26 28 29 29 27 26 25 24 24 23 23 24 25 24 24 27 30 32 32 33 29 26 26 26 26 27
1 1 2 4 7 11 16 20 22 22 23 23 23 23 22 20 20 20 22 23 24 24 24 23 23 23 23 23 24 25 27 29 32 33 32 31 25 23 22 22 23 23 26
5 5 5 7 8 9 10 11 13 14 14 14 14 14 14 15 16 17 19 20 21 23 23 23 24 25 25 26 27 29 32 34 34 33 27 22 21 23 23 23 23 24 26
13 13 12 12 13 12 12 12 12 13 14 14 15 15 16 16 17 19 19 20 21 23 24 25 25 27 27 29 30 34 34 32 25 23 20 20 22 23 24 24 25 25 25
17 18 19 19 17 16 15 15 15 16 16 17 18 18 19 19 20 21 21 22 24 25 26 27 28 29 30 32 32 33 33 24 20 19 19 21 24 24 25 26 25 25 24
16 18 19 19 20 22 21 20 19 19 19 20 20 21 22 22 24 25 26 28 29 30 31 31 31 31 30 30 31 31 25 23 23 21 22 24 25 25 26 26 25 25 24
19 20 21 20 19 20 22 22 24 24 24 22 22 23 23 24 25 25 25 26 26 25 29 31 28 26 26 28 29 28 24 25 25 22 24 24 25 25 26 25 25 25 24